<?xml version='1.0' encoding='UTF-8'?><gpx version="1.1" creator="JPX - https://github.com/jenetics/jpx" xmlns="http://www.topografix.com/GPX/1/1"><trk><trkseg><trkpt lat="43.18758777704864" lon="-0.1129004192480721"><ele>358.0</ele><time>2026-04-28T16:32:16Z</time></trkpt><trkpt lat="43.187541752726624" lon="-0.11301410215226065"><ele>358.0</ele><time>2026-04-28T16:32:19Z</time></trkpt><trkpt lat="43.18749327126007" lon="-0.11316399191801249"><ele>358.0</ele><time>2026-04-28T16:32:21Z</time></trkpt><trkpt lat="43.187465369237955" lon="-0.11325250246116914"><ele>358.0</ele><time>2026-04-28T16:32:22Z</time></trkpt><trkpt lat="43.187436254798996" lon="-0.11334204314891046"><ele>358.0</ele><time>2026-04-28T16:32:23Z</time></trkpt><trkpt lat="43.18740398725706" lon="-0.11344027885458464"><ele>358.0</ele><time>2026-04-28T16:32:24Z</time></trkpt><trkpt lat="43.187371779010164" lon="-0.11354363817199858"><ele>358.59999999999997</ele><time>2026-04-28T16:32:25Z</time></trkpt><trkpt lat="43.1873381459743" lon="-0.11365159979036049"><ele>359.2</ele><time>2026-04-28T16:32:26Z</time></trkpt><trkpt lat="43.18730391533336" lon="-0.11376789864812763"><ele>359.8</ele><time>2026-04-28T16:32:27Z</time></trkpt><trkpt lat="43.1872573114916" lon="-0.11387438458897502"><ele>360.4</ele><time>2026-04-28T16:32:28Z</time></trkpt><trkpt lat="43.187202347829846" lon="-0.11397659681133751"><ele>361.0</ele><time>2026-04-28T16:32:29Z</time></trkpt><trkpt lat="43.187143348485826" lon="-0.11407913366521343"><ele>361.20000000000005</ele><time>2026-04-28T16:32:30Z</time></trkpt><trkpt lat="43.18708061330385" lon="-0.1141808093612408"><ele>361.40000000000003</ele><time>2026-04-28T16:32:31Z</time></trkpt><trkpt lat="43.18701911019513" lon="-0.1142758754243938"><ele>361.6</ele><time>2026-04-28T16:32:32Z</time></trkpt><trkpt lat="43.186953664383076" lon="-0.11436762784748399"><ele>361.8</ele><time>2026-04-28T16:32:33Z</time></trkpt><trkpt lat="43.18688652214189" lon="-0.11446423748554901"><ele>362.0</ele><time>2026-04-28T16:32:34Z</time></trkpt><trkpt lat="43.18682597658452" lon="-0.1145674303101021"><ele>362.0</ele><time>2026-04-28T16:32:35Z</time></trkpt><trkpt lat="43.186773228922725" lon="-0.11467960219263484"><ele>362.0</ele><time>2026-04-28T16:32:36Z</time></trkpt><trkpt lat="43.186728770450024" lon="-0.11479150826452071"><ele>362.0</ele><time>2026-04-28T16:32:37Z</time></trkpt><trkpt lat="43.18669016753133" lon="-0.11489767085031566"><ele>362.0</ele><time>2026-04-28T16:32:38Z</time></trkpt><trkpt lat="43.18664853618754" lon="-0.11499053828422005"><ele>362.0</ele><time>2026-04-28T16:32:39Z</time></trkpt><trkpt lat="43.186600667720114" lon="-0.11506480247922143"><ele>362.0</ele><time>2026-04-28T16:32:40Z</time></trkpt><trkpt lat="43.18654597039617" lon="-0.11511717466124552"><ele>362.5</ele><time>2026-04-28T16:32:41Z</time></trkpt><trkpt lat="43.18649142229069" lon="-0.11516722095180087"><ele>363.0</ele><time>2026-04-28T16:32:42Z</time></trkpt><trkpt lat="43.186398905055825" lon="-0.1152397036419574"><ele>363.5</ele><time>2026-04-28T16:32:44Z</time></trkpt><trkpt lat="43.18636494039874" lon="-0.11536361542758486"><ele>364.0</ele><time>2026-04-28T16:32:46Z</time></trkpt><trkpt lat="43.18636576813175" lon="-0.11545921718426858"><ele>364.5</ele><time>2026-04-28T16:32:48Z</time></trkpt><trkpt lat="43.18635943678802" lon="-0.11557073887267673"><ele>365.0</ele><time>2026-04-28T16:32:50Z</time></trkpt><trkpt lat="43.18643195860987" lon="-0.11566398213575055"><ele>364.8</ele><time>2026-04-28T16:32:53Z</time></trkpt><trkpt lat="43.18651526761871" lon="-0.11569830419821163"><ele>364.6</ele><time>2026-04-28T16:32:55Z</time></trkpt><trkpt lat="43.18661362639088" lon="-0.11576068383620391"><ele>364.4</ele><time>2026-04-28T16:32:57Z</time></trkpt><trkpt lat="43.18675212162326" lon="-0.11576458535380957"><ele>364.2</ele><time>2026-04-28T16:32:59Z</time></trkpt><trkpt lat="43.186821199355656" lon="-0.11580024451919047"><ele>364.0</ele><time>2026-04-28T16:33:00Z</time></trkpt><trkpt lat="43.18689513070006" lon="-0.11583896159868848"><ele>364.0</ele><time>2026-04-28T16:33:01Z</time></trkpt><trkpt lat="43.186974365678694" lon="-0.11588207386021947"><ele>364.0</ele><time>2026-04-28T16:33:02Z</time></trkpt><trkpt lat="43.18705124680426" lon="-0.11592209488602571"><ele>364.0</ele><time>2026-04-28T16:33:03Z</time></trkpt><trkpt lat="43.18712978429809" lon="-0.1159599300710634"><ele>364.0</ele><time>2026-04-28T16:33:04Z</time></trkpt><trkpt lat="43.18720593033279" lon="-0.11599615792626974"><ele>364.0</ele><time>2026-04-28T16:33:05Z</time></trkpt><trkpt lat="43.18728535211679" lon="-0.11603553706493304"><ele>364.0</ele><time>2026-04-28T16:33:06Z</time></trkpt><trkpt lat="43.187360457286985" lon="-0.11611298056689653"><ele>363.8333333333333</ele><time>2026-04-28T16:33:07Z</time></trkpt><trkpt lat="43.18743794388133" lon="-0.1161564470506783"><ele>363.66666666666663</ele><time>2026-04-28T16:33:08Z</time></trkpt><trkpt lat="43.187513865486395" lon="-0.11620234382540348"><ele>363.5</ele><time>2026-04-28T16:33:09Z</time></trkpt><trkpt lat="43.18758628918314" lon="-0.1162439314230042"><ele>363.3333333333333</ele><time>2026-04-28T16:33:10Z</time></trkpt><trkpt lat="43.18767583738796" lon="-0.11622824012206255"><ele>363.1666666666667</ele><time>2026-04-28T16:33:11Z</time></trkpt><trkpt lat="43.18775086598469" lon="-0.11626490252512009"><ele>363.0</ele><time>2026-04-28T16:33:12Z</time></trkpt><trkpt lat="43.18782815025866" lon="-0.11630266714445163"><ele>363.0</ele><time>2026-04-28T16:33:13Z</time></trkpt><trkpt lat="43.18790355486262" lon="-0.116339513278152"><ele>363.0</ele><time>2026-04-28T16:33:14Z</time></trkpt><trkpt lat="43.187973205600656" lon="-0.11637354780487451"><ele>363.0</ele><time>2026-04-28T16:33:15Z</time></trkpt><trkpt lat="43.188037488036755" lon="-0.11640495914051575"><ele>363.0</ele><time>2026-04-28T16:33:16Z</time></trkpt><trkpt lat="43.18810198091558" lon="-0.11644166354497758"><ele>363.0</ele><time>2026-04-28T16:33:17Z</time></trkpt><trkpt lat="43.188162648959384" lon="-0.1164749322053822"><ele>363.0</ele><time>2026-04-28T16:33:18Z</time></trkpt><trkpt lat="43.18827731796414" lon="-0.11652960376003046"><ele>363.0</ele><time>2026-04-28T16:33:20Z</time></trkpt><trkpt lat="43.188389345275674" lon="-0.11656935171254011"><ele>363.0</ele><time>2026-04-28T16:33:22Z</time></trkpt><trkpt lat="43.18845468139262" lon="-0.11659843968961858"><ele>363.0</ele><time>2026-04-28T16:33:23Z</time></trkpt><trkpt lat="43.18855887278893" lon="-0.11665202272235095"><ele>363.0</ele><time>2026-04-28T16:33:25Z</time></trkpt><trkpt lat="43.18862738218194" lon="-0.11668674498055401"><ele>363.0</ele><time>2026-04-28T16:33:26Z</time></trkpt><trkpt lat="43.188693292237396" lon="-0.11671851663443537"><ele>363.0</ele><time>2026-04-28T16:33:27Z</time></trkpt><trkpt lat="43.18876388248705" lon="-0.11675150082700314"><ele>363.0</ele><time>2026-04-28T16:33:28Z</time></trkpt><trkpt lat="43.18884077568525" lon="-0.11678727951478819"><ele>363.0</ele><time>2026-04-28T16:33:29.001Z</time></trkpt><trkpt lat="43.18891788994613" lon="-0.11682316074744475"><ele>363.0</ele><time>2026-04-28T16:33:30.001Z</time></trkpt><trkpt lat="43.18898692350078" lon="-0.11685797517915456"><ele>363.0</ele><time>2026-04-28T16:33:31.001Z</time></trkpt><trkpt lat="43.18905266954683" lon="-0.11688999343743163"><ele>363.0</ele><time>2026-04-28T16:33:32.001Z</time></trkpt><trkpt lat="43.189126417322065" lon="-0.11692590811913375"><ele>363.0</ele><time>2026-04-28T16:33:33.001Z</time></trkpt><trkpt lat="43.18919071957833" lon="-0.11698074276720007"><ele>363.0</ele><time>2026-04-28T16:33:34.001Z</time></trkpt><trkpt lat="43.1892643219534" lon="-0.11700501777690901"><ele>363.0</ele><time>2026-04-28T16:33:35.001Z</time></trkpt><trkpt lat="43.189333403216175" lon="-0.1170387912929438"><ele>363.0</ele><time>2026-04-28T16:33:36.001Z</time></trkpt><trkpt lat="43.18939672222505" lon="-0.11707711924673256"><ele>363.0</ele><time>2026-04-28T16:33:37.001Z</time></trkpt><trkpt lat="43.18945638375198" lon="-0.1171054371924714"><ele>363.0</ele><time>2026-04-28T16:33:38.001Z</time></trkpt><trkpt lat="43.18956139417309" lon="-0.11714997240290384"><ele>363.0</ele><time>2026-04-28T16:33:40.001Z</time></trkpt><trkpt lat="43.18965334968397" lon="-0.11718996715541287"><ele>363.0</ele><time>2026-04-28T16:33:42.001Z</time></trkpt><trkpt lat="43.18975531343686" lon="-0.11724000814736897"><ele>363.0</ele><time>2026-04-28T16:33:44.001Z</time></trkpt><trkpt lat="43.189849075556275" lon="-0.11727824626735128"><ele>363.0</ele><time>2026-04-28T16:33:46.001Z</time></trkpt><trkpt lat="43.189943712555134" lon="-0.11732418192148765"><ele>363.0</ele><time>2026-04-28T16:33:48.001Z</time></trkpt><trkpt lat="43.19003640319286" lon="-0.11737078109562583"><ele>363.0</ele><time>2026-04-28T16:33:50.001Z</time></trkpt><trkpt lat="43.19013383487358" lon="-0.1174168376053395"><ele>363.2</ele><time>2026-04-28T16:33:52.001Z</time></trkpt><trkpt lat="43.19023274125612" lon="-0.11745832520183706"><ele>363.4</ele><time>2026-04-28T16:33:54.001Z</time></trkpt><trkpt lat="43.19031830542202" lon="-0.11747708115050784"><ele>363.59999999999997</ele><time>2026-04-28T16:33:56.001Z</time></trkpt><trkpt lat="43.19038083594988" lon="-0.11750629971756245"><ele>363.79999999999995</ele><time>2026-04-28T16:34:22Z</time></trkpt><trkpt lat="43.19048036124332" lon="-0.11756210338260305"><ele>364.0</ele><time>2026-04-28T16:34:25Z</time></trkpt><trkpt lat="43.19058898821687" lon="-0.11761394560054174"><ele>363.8333333333333</ele><time>2026-04-28T16:34:27Z</time></trkpt><trkpt lat="43.19070112533304" lon="-0.11768894866483634"><ele>363.66666666666663</ele><time>2026-04-28T16:34:29Z</time></trkpt><trkpt lat="43.19076821422979" lon="-0.11772150252157289"><ele>363.5</ele><time>2026-04-28T16:34:30Z</time></trkpt><trkpt lat="43.19084291672179" lon="-0.11775152922319702"><ele>363.3333333333333</ele><time>2026-04-28T16:34:31Z</time></trkpt><trkpt lat="43.190911473876724" lon="-0.1177895282292195"><ele>363.1666666666667</ele><time>2026-04-28T16:34:32Z</time></trkpt><trkpt lat="43.190987298631384" lon="-0.11782598850313525"><ele>363.0</ele><time>2026-04-28T16:34:33Z</time></trkpt><trkpt lat="43.19105941321081" lon="-0.11785780821872409"><ele>363.0</ele><time>2026-04-28T16:34:34Z</time></trkpt><trkpt lat="43.191132274005945" lon="-0.11789301957897375"><ele>363.0</ele><time>2026-04-28T16:34:35Z</time></trkpt><trkpt lat="43.19120650167973" lon="-0.11792899163734807"><ele>363.0</ele><time>2026-04-28T16:34:36Z</time></trkpt><trkpt lat="43.1912805794175" lon="-0.1179737552522729"><ele>363.0</ele><time>2026-04-28T16:34:37Z</time></trkpt><trkpt lat="43.191348067332804" lon="-0.11803173644139126"><ele>363.0</ele><time>2026-04-28T16:34:38Z</time></trkpt><trkpt lat="43.191424199961425" lon="-0.11807158227765394"><ele>363.0</ele><time>2026-04-28T16:34:39Z</time></trkpt><trkpt lat="43.19147209014695" lon="-0.1181582719631677"><ele>363.0</ele><time>2026-04-28T16:34:40Z</time></trkpt><trkpt lat="43.19152883698599" lon="-0.11821787702229211"><ele>363.0</ele><time>2026-04-28T16:34:41Z</time></trkpt><trkpt lat="43.19158236067808" lon="-0.11827496669346745"><ele>363.0</ele><time>2026-04-28T16:34:42Z</time></trkpt><trkpt lat="43.191633000436184" lon="-0.11833034125869743"><ele>363.0</ele><time>2026-04-28T16:34:43Z</time></trkpt><trkpt lat="43.19172968757016" lon="-0.11841755898052587"><ele>363.0</ele><time>2026-04-28T16:34:45Z</time></trkpt><trkpt lat="43.191835430543804" lon="-0.11845691318542338"><ele>363.0</ele><time>2026-04-28T16:34:47Z</time></trkpt><trkpt lat="43.191941584805775" lon="-0.11850946457817897"><ele>362.59999999999997</ele><time>2026-04-28T16:34:49Z</time></trkpt><trkpt lat="43.19206045344938" lon="-0.11852084329658129"><ele>362.2</ele><time>2026-04-28T16:34:51Z</time></trkpt><trkpt lat="43.192178760220685" lon="-0.11852466735165985"><ele>361.8</ele><time>2026-04-28T16:34:53Z</time></trkpt><trkpt lat="43.19228973794995" lon="-0.11853787105955291"><ele>361.4</ele><time>2026-04-28T16:34:55Z</time></trkpt><trkpt lat="43.19238834964923" lon="-0.11855783479864304"><ele>361.0</ele><time>2026-04-28T16:34:57Z</time></trkpt><trkpt lat="43.192491293673505" lon="-0.11859191972814222"><ele>360.8</ele><time>2026-04-28T16:34:59Z</time></trkpt><trkpt lat="43.19257558230545" lon="-0.11862210462385801"><ele>360.6</ele><time>2026-04-28T16:35:01Z</time></trkpt><trkpt lat="43.19265674874695" lon="-0.11866360005183876"><ele>360.4</ele><time>2026-04-28T16:35:03Z</time></trkpt><trkpt lat="43.19276649810915" lon="-0.11871263596101513"><ele>360.2</ele><time>2026-04-28T16:35:05Z</time></trkpt><trkpt lat="43.19287461360203" lon="-0.11876839749867138"><ele>360.0</ele><time>2026-04-28T16:35:07Z</time></trkpt><trkpt lat="43.19299361185849" lon="-0.11881936794603222"><ele>360.0</ele><time>2026-04-28T16:35:09Z</time></trkpt><trkpt lat="43.19305370566143" lon="-0.11884984905312547"><ele>360.0</ele><time>2026-04-28T16:35:10Z</time></trkpt><trkpt lat="43.19311669074971" lon="-0.11887936935199513"><ele>360.0</ele><time>2026-04-28T16:35:11Z</time></trkpt><trkpt lat="43.19323641317378" lon="-0.11893043053768652"><ele>360.0</ele><time>2026-04-28T16:35:13Z</time></trkpt><trkpt lat="43.19329757285511" lon="-0.11895589787258083"><ele>360.0</ele><time>2026-04-28T16:35:14Z</time></trkpt><trkpt lat="43.19340519478314" lon="-0.11901405982321947"><ele>360.0</ele><time>2026-04-28T16:35:16Z</time></trkpt><trkpt lat="43.19350055970301" lon="-0.11904596336641482"><ele>359.8333333333333</ele><time>2026-04-28T16:35:18Z</time></trkpt><trkpt lat="43.193566891673576" lon="-0.1190833060248424"><ele>359.6666666666667</ele><time>2026-04-28T16:35:21Z</time></trkpt><trkpt lat="43.19365086623424" lon="-0.11912928043975025"><ele>359.5</ele><time>2026-04-28T16:35:50.001Z</time></trkpt><trkpt lat="43.1937719323427" lon="-0.11918242217523506"><ele>359.33333333333337</ele><time>2026-04-28T16:35:52.001Z</time></trkpt><trkpt lat="43.19384315615589" lon="-0.11921404642822513"><ele>359.1666666666667</ele><time>2026-04-28T16:35:53.001Z</time></trkpt><trkpt lat="43.19391612062948" lon="-0.11925484804129828"><ele>359.0</ele><time>2026-04-28T16:35:54.001Z</time></trkpt><trkpt lat="43.193995619597274" lon="-0.11929649113019075"><ele>359.2</ele><time>2026-04-28T16:35:55.001Z</time></trkpt><trkpt lat="43.19407954261039" lon="-0.11933624698719676"><ele>359.4</ele><time>2026-04-28T16:35:56.001Z</time></trkpt><trkpt lat="43.19416376136374" lon="-0.11937767500283916"><ele>359.6</ele><time>2026-04-28T16:35:57.001Z</time></trkpt><trkpt lat="43.194247404078084" lon="-0.11941645982215553"><ele>359.8</ele><time>2026-04-28T16:35:58.001Z</time></trkpt><trkpt lat="43.19433653433471" lon="-0.11945484479346676"><ele>360.0</ele><time>2026-04-28T16:35:59.001Z</time></trkpt><trkpt lat="43.19442557080331" lon="-0.11950606749155562"><ele>360.0</ele><time>2026-04-28T16:36:00.001Z</time></trkpt><trkpt lat="43.1945159902835" lon="-0.11955304981694595"><ele>360.0</ele><time>2026-04-28T16:36:01.001Z</time></trkpt><trkpt lat="43.19461165840175" lon="-0.11960407012404636"><ele>360.0</ele><time>2026-04-28T16:36:02.001Z</time></trkpt><trkpt lat="43.19470453963977" lon="-0.11964979996486626"><ele>360.0</ele><time>2026-04-28T16:36:03.001Z</time></trkpt><trkpt lat="43.19480328727719" lon="-0.11969313551959186"><ele>360.0</ele><time>2026-04-28T16:36:04.001Z</time></trkpt><trkpt lat="43.194900603132716" lon="-0.11973985587950464"><ele>359.8</ele><time>2026-04-28T16:36:05.001Z</time></trkpt><trkpt lat="43.19499073581119" lon="-0.11978944968634168"><ele>359.6</ele><time>2026-04-28T16:36:06Z</time></trkpt><trkpt lat="43.19508137112202" lon="-0.1198361833892265"><ele>359.4</ele><time>2026-04-28T16:36:07Z</time></trkpt><trkpt lat="43.195172487018304" lon="-0.11988234041984036"><ele>359.2</ele><time>2026-04-28T16:36:08Z</time></trkpt><trkpt lat="43.19526387242422" lon="-0.11992573041762533"><ele>359.0</ele><time>2026-04-28T16:36:09Z</time></trkpt><trkpt lat="43.1953598556898" lon="-0.11995374961943271"><ele>359.0</ele><time>2026-04-28T16:36:10Z</time></trkpt><trkpt lat="43.19544710085248" lon="-0.1200162566531642"><ele>359.0</ele><time>2026-04-28T16:36:11Z</time></trkpt><trkpt lat="43.19554741894951" lon="-0.12004618029161267"><ele>359.0</ele><time>2026-04-28T16:36:12Z</time></trkpt><trkpt lat="43.195638870595964" lon="-0.12011355374510478"><ele>359.0</ele><time>2026-04-28T16:36:13Z</time></trkpt><trkpt lat="43.19573788947401" lon="-0.12016361865585311"><ele>359.0</ele><time>2026-04-28T16:36:14Z</time></trkpt><trkpt lat="43.19584334844593" lon="-0.12019910408589052"><ele>358.79999999999995</ele><time>2026-04-28T16:36:15Z</time></trkpt><trkpt lat="43.19595063759479" lon="-0.12023628280508138"><ele>358.59999999999997</ele><time>2026-04-28T16:36:16Z</time></trkpt><trkpt lat="43.19604726139449" lon="-0.12029704928387563"><ele>358.4</ele><time>2026-04-28T16:36:17Z</time></trkpt><trkpt lat="43.19616434790296" lon="-0.12034885842813338"><ele>358.2</ele><time>2026-04-28T16:36:18Z</time></trkpt><trkpt lat="43.19626548426644" lon="-0.12039880138148676"><ele>358.0</ele><time>2026-04-28T16:36:19Z</time></trkpt><trkpt lat="43.196372093032096" lon="-0.12045709420220872"><ele>358.0</ele><time>2026-04-28T16:36:20Z</time></trkpt><trkpt lat="43.196477204451824" lon="-0.12050778179387352"><ele>358.0</ele><time>2026-04-28T16:36:21Z</time></trkpt><trkpt lat="43.19659624180803" lon="-0.12054910295331282"><ele>358.0</ele><time>2026-04-28T16:36:22Z</time></trkpt><trkpt lat="43.1966930760275" lon="-0.12061010130133494"><ele>358.0</ele><time>2026-04-28T16:36:23Z</time></trkpt><trkpt lat="43.19679991062365" lon="-0.1206660543894615"><ele>358.0</ele><time>2026-04-28T16:36:24Z</time></trkpt><trkpt lat="43.19690411142428" lon="-0.12071934598058812"><ele>358.0</ele><time>2026-04-28T16:36:25Z</time></trkpt><trkpt lat="43.19700598979916" lon="-0.12077614351617896"><ele>358.0</ele><time>2026-04-28T16:36:26Z</time></trkpt><trkpt lat="43.19711058115023" lon="-0.1208335305701097"><ele>358.0</ele><time>2026-04-28T16:36:27Z</time></trkpt><trkpt lat="43.19721329200562" lon="-0.12088813249982272"><ele>358.0</ele><time>2026-04-28T16:36:28Z</time></trkpt><trkpt lat="43.19732230756087" lon="-0.12091960609619942"><ele>357.59999999999997</ele><time>2026-04-28T16:36:29Z</time></trkpt><trkpt lat="43.197422759310726" lon="-0.12096844432254633"><ele>357.2</ele><time>2026-04-28T16:36:30Z</time></trkpt><trkpt lat="43.19752681804564" lon="-0.12101903863351571"><ele>356.8</ele><time>2026-04-28T16:36:31Z</time></trkpt><trkpt lat="43.197633794992925" lon="-0.12107026392911385"><ele>356.4</ele><time>2026-04-28T16:36:32Z</time></trkpt><trkpt lat="43.19774550580822" lon="-0.1211240961862547"><ele>356.0</ele><time>2026-04-28T16:36:33Z</time></trkpt><trkpt lat="43.197844693397556" lon="-0.12117244500511778"><ele>356.0</ele><time>2026-04-28T16:36:34Z</time></trkpt><trkpt lat="43.19794175524048" lon="-0.12123049332491811"><ele>356.0</ele><time>2026-04-28T16:36:35Z</time></trkpt><trkpt lat="43.1980536101525" lon="-0.12127551985117414"><ele>356.0</ele><time>2026-04-28T16:36:36Z</time></trkpt><trkpt lat="43.198156012490635" lon="-0.12134879170335246"><ele>356.0</ele><time>2026-04-28T16:36:37Z</time></trkpt><trkpt lat="43.198265139477215" lon="-0.12139788847521191"><ele>355.5</ele><time>2026-04-28T16:36:38Z</time></trkpt><trkpt lat="43.198371566557164" lon="-0.12145529798250725"><ele>355.0</ele><time>2026-04-28T16:36:39Z</time></trkpt><trkpt lat="43.1984854212994" lon="-0.12149703232066651"><ele>354.5</ele><time>2026-04-28T16:36:40Z</time></trkpt><trkpt lat="43.198591489875106" lon="-0.12154991898603276"><ele>354.0</ele><time>2026-04-28T16:36:41Z</time></trkpt><trkpt lat="43.198692853317475" lon="-0.1216075275109017"><ele>353.79999999999995</ele><time>2026-04-28T16:36:42Z</time></trkpt><trkpt lat="43.198795957752885" lon="-0.12165832511109229"><ele>353.59999999999997</ele><time>2026-04-28T16:36:43Z</time></trkpt><trkpt lat="43.19890061652161" lon="-0.12170361257188152"><ele>353.4</ele><time>2026-04-28T16:36:44Z</time></trkpt><trkpt lat="43.199006053679796" lon="-0.12175879751448143"><ele>353.2</ele><time>2026-04-28T16:36:45Z</time></trkpt><trkpt lat="43.19910494113595" lon="-0.12180457977324471"><ele>353.0</ele><time>2026-04-28T16:36:46Z</time></trkpt><trkpt lat="43.199206871379964" lon="-0.12185563387874118"><ele>353.0</ele><time>2026-04-28T16:36:47Z</time></trkpt><trkpt lat="43.19930903738486" lon="-0.12190405599362436"><ele>353.0</ele><time>2026-04-28T16:36:48Z</time></trkpt><trkpt lat="43.19941401600706" lon="-0.12193660122693159"><ele>353.0</ele><time>2026-04-28T16:36:49Z</time></trkpt><trkpt lat="43.199520346595165" lon="-0.1219832123840166"><ele>353.0</ele><time>2026-04-28T16:36:50Z</time></trkpt><trkpt lat="43.19962291242658" lon="-0.12203609921321477"><ele>353.0</ele><time>2026-04-28T16:36:51Z</time></trkpt><trkpt lat="43.19972987970802" lon="-0.12209562854176087"><ele>353.0</ele><time>2026-04-28T16:36:52Z</time></trkpt><trkpt lat="43.199836542378016" lon="-0.12214478114305562"><ele>353.0</ele><time>2026-04-28T16:36:53Z</time></trkpt><trkpt lat="43.19994039282643" lon="-0.12220120264301573"><ele>353.0</ele><time>2026-04-28T16:36:54Z</time></trkpt><trkpt lat="43.20004463379466" lon="-0.12225638542876721"><ele>353.0</ele><time>2026-04-28T16:36:55Z</time></trkpt><trkpt lat="43.200142191949844" lon="-0.12230527776745201"><ele>353.0</ele><time>2026-04-28T16:36:56Z</time></trkpt><trkpt lat="43.20023644726488" lon="-0.12235125039407962"><ele>353.0</ele><time>2026-04-28T16:36:57Z</time></trkpt><trkpt lat="43.20033395302422" lon="-0.12237518618227225"><ele>353.0</ele><time>2026-04-28T16:36:58Z</time></trkpt><trkpt lat="43.20042082396569" lon="-0.122431313457419"><ele>353.0</ele><time>2026-04-28T16:36:59Z</time></trkpt><trkpt lat="43.200517118266085" lon="-0.12249683552798772"><ele>353.0</ele><time>2026-04-28T16:37:00Z</time></trkpt><trkpt lat="43.20061738299319" lon="-0.12254236699901531"><ele>353.0</ele><time>2026-04-28T16:37:01Z</time></trkpt><trkpt lat="43.200715987527666" lon="-0.12260001974562514"><ele>352.2</ele><time>2026-04-28T16:37:02Z</time></trkpt><trkpt lat="43.20081630019463" lon="-0.12264135162789"><ele>351.4</ele><time>2026-04-28T16:37:03Z</time></trkpt><trkpt lat="43.20091319883438" lon="-0.12269397396711523"><ele>350.59999999999997</ele><time>2026-04-28T16:37:04Z</time></trkpt><trkpt lat="43.20101882298883" lon="-0.12272750951725725"><ele>349.79999999999995</ele><time>2026-04-28T16:37:05Z</time></trkpt><trkpt lat="43.20112467699342" lon="-0.12277880712705153"><ele>349.0</ele><time>2026-04-28T16:37:06Z</time></trkpt><trkpt lat="43.201221546076326" lon="-0.12284769010237258"><ele>349.0</ele><time>2026-04-28T16:37:07Z</time></trkpt><trkpt lat="43.20133476976468" lon="-0.12287550990306552"><ele>349.0</ele><time>2026-04-28T16:37:08Z</time></trkpt><trkpt lat="43.20143449329452" lon="-0.12294756549150307"><ele>349.0</ele><time>2026-04-28T16:37:09Z</time></trkpt><trkpt lat="43.201536601291004" lon="-0.12298040329744817"><ele>349.0</ele><time>2026-04-28T16:37:10Z</time></trkpt><trkpt lat="43.201640921168824" lon="-0.1230550001774731"><ele>349.0</ele><time>2026-04-28T16:37:11Z</time></trkpt><trkpt lat="43.20174813533374" lon="-0.1231097073667255"><ele>349.0</ele><time>2026-04-28T16:37:12Z</time></trkpt><trkpt lat="43.20186215008881" lon="-0.12315542193790979"><ele>349.0</ele><time>2026-04-28T16:37:13Z</time></trkpt><trkpt lat="43.201965796259046" lon="-0.1232068926916097"><ele>349.0</ele><time>2026-04-28T16:37:14Z</time></trkpt><trkpt lat="43.202070548472385" lon="-0.1232679322256003"><ele>349.0</ele><time>2026-04-28T16:37:15Z</time></trkpt><trkpt lat="43.202180227362554" lon="-0.12331268582413592"><ele>349.0</ele><time>2026-04-28T16:37:16Z</time></trkpt><trkpt lat="43.202292188112345" lon="-0.12335721877732649"><ele>349.0</ele><time>2026-04-28T16:37:17Z</time></trkpt><trkpt lat="43.202398887249046" lon="-0.12340195298088369"><ele>349.0</ele><time>2026-04-28T16:37:18Z</time></trkpt><trkpt lat="43.20249891580506" lon="-0.12345965161223246"><ele>348.6</ele><time>2026-04-28T16:37:19Z</time></trkpt><trkpt lat="43.20260271418185" lon="-0.12351975148840251"><ele>348.2</ele><time>2026-04-28T16:37:20Z</time></trkpt><trkpt lat="43.202710842916574" lon="-0.12357177106026328"><ele>347.8</ele><time>2026-04-28T16:37:21Z</time></trkpt><trkpt lat="43.20281613842543" lon="-0.12362800072694324"><ele>347.40000000000003</ele><time>2026-04-28T16:37:22Z</time></trkpt><trkpt lat="43.20291585963267" lon="-0.12366451944543953"><ele>347.0</ele><time>2026-04-28T16:37:23Z</time></trkpt><trkpt lat="43.20301153422234" lon="-0.12371252817844486"><ele>347.0</ele><time>2026-04-28T16:37:24Z</time></trkpt><trkpt lat="43.20310968485447" lon="-0.12376719999731746"><ele>347.0</ele><time>2026-04-28T16:37:25Z</time></trkpt><trkpt lat="43.20321326479535" lon="-0.12380294922170915"><ele>347.0</ele><time>2026-04-28T16:37:26.001Z</time></trkpt><trkpt lat="43.203314994387604" lon="-0.1238518914276102"><ele>347.0</ele><time>2026-04-28T16:37:27.001Z</time></trkpt><trkpt lat="43.203418486208456" lon="-0.12390172495787488"><ele>347.0</ele><time>2026-04-28T16:37:28.001Z</time></trkpt><trkpt lat="43.20352349107367" lon="-0.12395251119992873"><ele>347.0</ele><time>2026-04-28T16:37:29.001Z</time></trkpt><trkpt lat="43.20362120341308" lon="-0.12402181978403305"><ele>347.0</ele><time>2026-04-28T16:37:30.001Z</time></trkpt><trkpt lat="43.20373059740302" lon="-0.1240597766403174"><ele>347.0</ele><time>2026-04-28T16:37:31.001Z</time></trkpt><trkpt lat="43.203835109533664" lon="-0.12411267397502987"><ele>347.0</ele><time>2026-04-28T16:37:32.001Z</time></trkpt><trkpt lat="43.20394176883703" lon="-0.12416914570146625"><ele>347.0</ele><time>2026-04-28T16:37:33.001Z</time></trkpt><trkpt lat="43.20404702489767" lon="-0.12422310040774845"><ele>347.25</ele><time>2026-04-28T16:37:34.001Z</time></trkpt><trkpt lat="43.20416049598583" lon="-0.12427317510749167"><ele>347.5</ele><time>2026-04-28T16:37:35.001Z</time></trkpt><trkpt lat="43.204265781441364" lon="-0.12433488261596118"><ele>347.75</ele><time>2026-04-28T16:37:36.001Z</time></trkpt><trkpt lat="43.20438029060875" lon="-0.12437596551787684"><ele>348.0</ele><time>2026-04-28T16:37:37.001Z</time></trkpt><trkpt lat="43.20449207256755" lon="-0.12442973884032522"><ele>348.0</ele><time>2026-04-28T16:37:38.001Z</time></trkpt><trkpt lat="43.204599057887236" lon="-0.12449481608920905"><ele>348.0</ele><time>2026-04-28T16:37:39.001Z</time></trkpt><trkpt lat="43.204710747639155" lon="-0.12454774660903278"><ele>348.0</ele><time>2026-04-28T16:37:40.001Z</time></trkpt><trkpt lat="43.204818475316074" lon="-0.12460768609252018"><ele>348.0</ele><time>2026-04-28T16:37:41.001Z</time></trkpt><trkpt lat="43.2049311588719" lon="-0.12466249483403669"><ele>347.25</ele><time>2026-04-28T16:37:42.001Z</time></trkpt><trkpt lat="43.205040935125886" lon="-0.12472123542157684"><ele>346.5</ele><time>2026-04-28T16:37:43.001Z</time></trkpt><trkpt lat="43.205154211112216" lon="-0.12475444709050959"><ele>345.75</ele><time>2026-04-28T16:37:44.001Z</time></trkpt><trkpt lat="43.20525841508548" lon="-0.12482901153627629"><ele>345.0</ele><time>2026-04-28T16:37:45.001Z</time></trkpt><trkpt lat="43.20536997029618" lon="-0.12486148971095828"><ele>345.0</ele><time>2026-04-28T16:37:46.001Z</time></trkpt><trkpt lat="43.20547557891276" lon="-0.12493501661448046"><ele>345.0</ele><time>2026-04-28T16:37:47.001Z</time></trkpt><trkpt lat="43.205592260371965" lon="-0.12497758342868512"><ele>345.0</ele><time>2026-04-28T16:37:48.001Z</time></trkpt><trkpt lat="43.20569779680732" lon="-0.1250302979296273"><ele>345.0</ele><time>2026-04-28T16:37:49.001Z</time></trkpt><trkpt lat="43.20580728047722" lon="-0.1250827037125975"><ele>344.75</ele><time>2026-04-28T16:37:50.001Z</time></trkpt><trkpt lat="43.20591218246581" lon="-0.12513837229646887"><ele>344.5</ele><time>2026-04-28T16:37:51.001Z</time></trkpt><trkpt lat="43.20602127354875" lon="-0.12519219869995518"><ele>344.25</ele><time>2026-04-28T16:37:52.001Z</time></trkpt><trkpt lat="43.206130592043046" lon="-0.12524189210491266"><ele>344.0</ele><time>2026-04-28T16:37:53.001Z</time></trkpt><trkpt lat="43.20624057669185" lon="-0.12529333722169148"><ele>344.0</ele><time>2026-04-28T16:37:54.001Z</time></trkpt><trkpt lat="43.20634939029242" lon="-0.12534535364037766"><ele>344.0</ele><time>2026-04-28T16:37:55.001Z</time></trkpt><trkpt lat="43.206458141539365" lon="-0.12540014457844578"><ele>344.0</ele><time>2026-04-28T16:37:56.001Z</time></trkpt><trkpt lat="43.206566317360284" lon="-0.12544766623999878"><ele>344.0</ele><time>2026-04-28T16:37:57.001Z</time></trkpt><trkpt lat="43.20667830256456" lon="-0.12550236649183594"><ele>344.25</ele><time>2026-04-28T16:37:58.001Z</time></trkpt><trkpt lat="43.2067876398072" lon="-0.12555541985596935"><ele>344.5</ele><time>2026-04-28T16:37:59.001Z</time></trkpt><trkpt lat="43.20689634421857" lon="-0.12560842128813896"><ele>344.75</ele><time>2026-04-28T16:38:00.001Z</time></trkpt><trkpt lat="43.20700681302032" lon="-0.12566273565329228"><ele>345.0</ele><time>2026-04-28T16:38:01.001Z</time></trkpt><trkpt lat="43.20710891977715" lon="-0.12572132395998284"><ele>344.75</ele><time>2026-04-28T16:38:02.001Z</time></trkpt><trkpt lat="43.20722447847419" lon="-0.12577288375198573"><ele>344.5</ele><time>2026-04-28T16:38:03.001Z</time></trkpt><trkpt lat="43.207322017149025" lon="-0.1258276541335614"><ele>344.25</ele><time>2026-04-28T16:38:04.001Z</time></trkpt><trkpt lat="43.20743378244402" lon="-0.1258840215998264"><ele>344.0</ele><time>2026-04-28T16:38:05.001Z</time></trkpt><trkpt lat="43.20754431053109" lon="-0.12593388164296274"><ele>344.0</ele><time>2026-04-28T16:38:06.001Z</time></trkpt><trkpt lat="43.20764803373352" lon="-0.12598436671835941"><ele>344.0</ele><time>2026-04-28T16:38:07.001Z</time></trkpt><trkpt lat="43.20772557472674" lon="-0.12601288469386399"><ele>344.0</ele><time>2026-04-28T16:38:08.001Z</time></trkpt><trkpt lat="43.207792923906595" lon="-0.1261127416330999"><ele>344.0</ele><time>2026-04-28T16:38:09.001Z</time></trkpt><trkpt lat="43.207880871461164" lon="-0.1261880262546314"><ele>344.0</ele><time>2026-04-28T16:38:10.001Z</time></trkpt><trkpt lat="43.20808287357828" lon="-0.12622759775012335"><ele>343.0</ele><time>2026-04-28T16:38:11.001Z</time></trkpt><trkpt lat="43.20820245640436" lon="-0.1262612766569805"><ele>342.0</ele><time>2026-04-28T16:38:12Z</time></trkpt><trkpt lat="43.20832084201895" lon="-0.12631710352028436"><ele>341.0</ele><time>2026-04-28T16:38:13Z</time></trkpt><trkpt lat="43.208431773711155" lon="-0.12637231165994614"><ele>340.0</ele><time>2026-04-28T16:38:14Z</time></trkpt><trkpt lat="43.208543081299105" lon="-0.12643386256235178"><ele>340.0</ele><time>2026-04-28T16:38:15Z</time></trkpt><trkpt lat="43.20865462504735" lon="-0.12648828809040072"><ele>340.0</ele><time>2026-04-28T16:38:16Z</time></trkpt><trkpt lat="43.20876058147782" lon="-0.1265434424936983"><ele>340.0</ele><time>2026-04-28T16:38:17Z</time></trkpt><trkpt lat="43.208873860160026" lon="-0.1265971598747806"><ele>340.0</ele><time>2026-04-28T16:38:18Z</time></trkpt><trkpt lat="43.20897966394316" lon="-0.12665277466263436"><ele>340.25</ele><time>2026-04-28T16:38:19Z</time></trkpt><trkpt lat="43.20909868930048" lon="-0.12671410199215583"><ele>340.5</ele><time>2026-04-28T16:38:20Z</time></trkpt><trkpt lat="43.20923171078721" lon="-0.12675858999759196"><ele>340.75</ele><time>2026-04-28T16:38:21Z</time></trkpt><trkpt lat="43.20934125422686" lon="-0.1268112250127197"><ele>341.0</ele><time>2026-04-28T16:38:22Z</time></trkpt><trkpt lat="43.20942833753688" lon="-0.12686294144452764"><ele>341.0</ele><time>2026-04-28T16:38:23Z</time></trkpt><trkpt lat="43.20954084691129" lon="-0.12690111034186502"><ele>341.0</ele><time>2026-04-28T16:38:24Z</time></trkpt><trkpt lat="43.20964490469521" lon="-0.12689517899852326"><ele>341.0</ele><time>2026-04-28T16:38:25Z</time></trkpt><trkpt lat="43.20974320409568" lon="-0.12696669143140546"><ele>341.0</ele><time>2026-04-28T16:38:26Z</time></trkpt><trkpt lat="43.20986578721359" lon="-0.12704798012274637"><ele>340.25</ele><time>2026-04-28T16:38:27Z</time></trkpt><trkpt lat="43.20997336450676" lon="-0.12710789128606526"><ele>339.5</ele><time>2026-04-28T16:38:28Z</time></trkpt><trkpt lat="43.21007930327011" lon="-0.12718243533579274"><ele>338.75</ele><time>2026-04-28T16:38:29Z</time></trkpt><trkpt lat="43.210187688352484" lon="-0.1272355002908524"><ele>338.0</ele><time>2026-04-28T16:38:30Z</time></trkpt><trkpt lat="43.21029714977962" lon="-0.12728908345773934"><ele>338.0</ele><time>2026-04-28T16:38:31Z</time></trkpt><trkpt lat="43.2104109302116" lon="-0.12734072908912378"><ele>338.0</ele><time>2026-04-28T16:38:32Z</time></trkpt><trkpt lat="43.210522351867574" lon="-0.12740443252415007"><ele>338.0</ele><time>2026-04-28T16:38:33Z</time></trkpt><trkpt lat="43.210628373604685" lon="-0.12745596488990898"><ele>338.0</ele><time>2026-04-28T16:38:34Z</time></trkpt><trkpt lat="43.21073349059467" lon="-0.1275071844636305"><ele>338.0</ele><time>2026-04-28T16:38:35Z</time></trkpt><trkpt lat="43.21084363081356" lon="-0.1275538526677567"><ele>338.0</ele><time>2026-04-28T16:38:36Z</time></trkpt><trkpt lat="43.210950687221015" lon="-0.12760548729299445"><ele>338.0</ele><time>2026-04-28T16:38:37Z</time></trkpt><trkpt lat="43.21105366507391" lon="-0.12766365290611806"><ele>338.0</ele><time>2026-04-28T16:38:38Z</time></trkpt><trkpt lat="43.2111599065779" lon="-0.1277149955852486"><ele>338.0</ele><time>2026-04-28T16:38:39Z</time></trkpt><trkpt lat="43.2112624639452" lon="-0.127765813395461"><ele>338.0</ele><time>2026-04-28T16:38:40Z</time></trkpt><trkpt lat="43.211359630026635" lon="-0.1278097477464147"><ele>338.0</ele><time>2026-04-28T16:38:41Z</time></trkpt><trkpt lat="43.21145438270738" lon="-0.12785180622230008"><ele>338.0</ele><time>2026-04-28T16:38:42Z</time></trkpt><trkpt lat="43.21154763070237" lon="-0.12789811323675757"><ele>338.0</ele><time>2026-04-28T16:38:43Z</time></trkpt><trkpt lat="43.21163613860937" lon="-0.12794729403329733"><ele>337.79999999999995</ele><time>2026-04-28T16:38:44Z</time></trkpt><trkpt lat="43.21172535453255" lon="-0.12799101453582318"><ele>337.6</ele><time>2026-04-28T16:38:45Z</time></trkpt><trkpt lat="43.21181439564811" lon="-0.12803151676780927"><ele>337.4</ele><time>2026-04-28T16:38:46Z</time></trkpt><trkpt lat="43.21190106988446" lon="-0.12806925284330092"><ele>337.20000000000005</ele><time>2026-04-28T16:38:47Z</time></trkpt><trkpt lat="43.21198715032462" lon="-0.12810729271361876"><ele>337.0</ele><time>2026-04-28T16:38:48Z</time></trkpt><trkpt lat="43.2120769608959" lon="-0.12814275584468007"><ele>337.0</ele><time>2026-04-28T16:38:49Z</time></trkpt><trkpt lat="43.21216644436944" lon="-0.12816940185755452"><ele>337.0</ele><time>2026-04-28T16:38:50Z</time></trkpt><trkpt lat="43.212261750473864" lon="-0.12817341489693776"><ele>337.0</ele><time>2026-04-28T16:38:51Z</time></trkpt><trkpt lat="43.212357053829166" lon="-0.12817756497930904"><ele>337.0</ele><time>2026-04-28T16:38:52Z</time></trkpt><trkpt lat="43.2124531103438" lon="-0.1281859489885722"><ele>337.0</ele><time>2026-04-28T16:38:53Z</time></trkpt><trkpt lat="43.212549390299515" lon="-0.12819749610414266"><ele>336.8</ele><time>2026-04-28T16:38:54Z</time></trkpt><trkpt lat="43.2126421548309" lon="-0.1282008290926034"><ele>336.6</ele><time>2026-04-28T16:38:55Z</time></trkpt><trkpt lat="43.212733754389056" lon="-0.12820464240320886"><ele>336.40000000000003</ele><time>2026-04-28T16:38:56Z</time></trkpt><trkpt lat="43.21282252420247" lon="-0.12823019745646932"><ele>336.20000000000005</ele><time>2026-04-28T16:38:57Z</time></trkpt><trkpt lat="43.21290601889079" lon="-0.12828435619892264"><ele>336.0</ele><time>2026-04-28T16:38:58Z</time></trkpt><trkpt lat="43.21298975691487" lon="-0.12834974699040463"><ele>336.20000000000005</ele><time>2026-04-28T16:38:59Z</time></trkpt><trkpt lat="43.21307585244973" lon="-0.1284148582621429"><ele>336.40000000000003</ele><time>2026-04-28T16:39:00Z</time></trkpt><trkpt lat="43.21316915706444" lon="-0.12847311638620582"><ele>336.6</ele><time>2026-04-28T16:39:01Z</time></trkpt><trkpt lat="43.21327279934412" lon="-0.12849596050531387"><ele>336.8</ele><time>2026-04-28T16:39:02Z</time></trkpt><trkpt lat="43.21335901653527" lon="-0.12853610356436818"><ele>337.0</ele><time>2026-04-28T16:39:03Z</time></trkpt><trkpt lat="43.21344962795477" lon="-0.12857624769674683"><ele>337.0</ele><time>2026-04-28T16:39:04Z</time></trkpt><trkpt lat="43.213540221622864" lon="-0.12862100521441125"><ele>337.0</ele><time>2026-04-28T16:39:05Z</time></trkpt><trkpt lat="43.21360964833099" lon="-0.1286553054258235"><ele>337.0</ele><time>2026-04-28T16:39:06Z</time></trkpt><trkpt lat="43.21370391556542" lon="-0.12872112117205772"><ele>337.0</ele><time>2026-04-28T16:39:08Z</time></trkpt><trkpt lat="43.21381254380475" lon="-0.12877469996456742"><ele>337.0</ele><time>2026-04-28T16:39:10Z</time></trkpt><trkpt lat="43.21388823660228" lon="-0.12879147340779154"><ele>337.00000000000006</ele><time>2026-04-28T16:39:11Z</time></trkpt><trkpt lat="43.21395842251583" lon="-0.12882532213197956"><ele>337.0</ele><time>2026-04-28T16:39:12Z</time></trkpt><trkpt lat="43.21402524199636" lon="-0.1288510323357805"><ele>337.0</ele><time>2026-04-28T16:39:13Z</time></trkpt><trkpt lat="43.214089788442635" lon="-0.12886793734337848"><ele>337.0</ele><time>2026-04-28T16:39:14Z</time></trkpt><trkpt lat="43.21415446639255" lon="-0.128893947436881"><ele>337.0</ele><time>2026-04-28T16:39:15Z</time></trkpt><trkpt lat="43.21421973856075" lon="-0.12891546066585774"><ele>337.00000000000006</ele><time>2026-04-28T16:39:16Z</time></trkpt><trkpt lat="43.21428684693947" lon="-0.12893556086212918"><ele>337.0</ele><time>2026-04-28T16:39:17Z</time></trkpt><trkpt lat="43.21435892832736" lon="-0.12894637505760784"><ele>336.66666666666663</ele><time>2026-04-28T16:39:18Z</time></trkpt><trkpt lat="43.21442735132412" lon="-0.12892188275334962"><ele>336.3333333333333</ele><time>2026-04-28T16:39:19Z</time></trkpt><trkpt lat="43.214499125435744" lon="-0.12893012970838957"><ele>336.0</ele><time>2026-04-28T16:39:20Z</time></trkpt><trkpt lat="43.21457041427244" lon="-0.12891203541100635"><ele>335.6666666666667</ele><time>2026-04-28T16:39:21Z</time></trkpt><trkpt lat="43.214647909869" lon="-0.1289381091672404"><ele>335.33333333333337</ele><time>2026-04-28T16:39:22Z</time></trkpt><trkpt lat="43.21471497095101" lon="-0.12900936596200985"><ele>335.0</ele><time>2026-04-28T16:39:23Z</time></trkpt><trkpt lat="43.214795349787146" lon="-0.12903518458953409"><ele>334.83333333333337</ele><time>2026-04-28T16:39:24Z</time></trkpt><trkpt lat="43.21487226847501" lon="-0.12908969087393393"><ele>334.6666666666667</ele><time>2026-04-28T16:39:25Z</time></trkpt><trkpt lat="43.21494569220845" lon="-0.12915338559027334"><ele>334.5</ele><time>2026-04-28T16:39:26Z</time></trkpt><trkpt lat="43.21501521370817" lon="-0.12921629806268756"><ele>334.3333333333333</ele><time>2026-04-28T16:39:27Z</time></trkpt><trkpt lat="43.215088787108265" lon="-0.12927911538515724"><ele>334.16666666666663</ele><time>2026-04-28T16:39:28Z</time></trkpt><trkpt lat="43.215157718030305" lon="-0.12935912499104255"><ele>334.0</ele><time>2026-04-28T16:39:29Z</time></trkpt><trkpt lat="43.21521488571743" lon="-0.1294581472091167"><ele>334.0</ele><time>2026-04-28T16:39:30Z</time></trkpt><trkpt lat="43.21527455554888" lon="-0.1295470143292927"><ele>334.0</ele><time>2026-04-28T16:39:31Z</time></trkpt><trkpt lat="43.215350615910594" lon="-0.12960600481209153"><ele>334.0</ele><time>2026-04-28T16:39:32Z</time></trkpt><trkpt lat="43.21542191210912" lon="-0.12967075740853629"><ele>334.0</ele><time>2026-04-28T16:39:33Z</time></trkpt><trkpt lat="43.21550162928598" lon="-0.1297342300922729"><ele>334.0</ele><time>2026-04-28T16:39:34Z</time></trkpt><trkpt lat="43.21558333734615" lon="-0.12979848075820613"><ele>334.0</ele><time>2026-04-28T16:39:35.001Z</time></trkpt><trkpt lat="43.21566066242287" lon="-0.12986232551982488"><ele>334.0</ele><time>2026-04-28T16:39:36.001Z</time></trkpt><trkpt lat="43.21574006326339" lon="-0.12992556936733093"><ele>334.0</ele><time>2026-04-28T16:39:37.001Z</time></trkpt><trkpt lat="43.21582336890072" lon="-0.12997925093867807"><ele>334.0</ele><time>2026-04-28T16:39:38.001Z</time></trkpt><trkpt lat="43.215909387460876" lon="-0.13000969936986886"><ele>334.0</ele><time>2026-04-28T16:39:39.001Z</time></trkpt><trkpt lat="43.216001624397606" lon="-0.13003875367010573"><ele>334.0</ele><time>2026-04-28T16:39:40.001Z</time></trkpt><trkpt lat="43.21609491452756" lon="-0.13006605608851196"><ele>334.0</ele><time>2026-04-28T16:39:41.001Z</time></trkpt><trkpt lat="43.216193585114524" lon="-0.13009247870736132"><ele>334.0</ele><time>2026-04-28T16:39:42.001Z</time></trkpt><trkpt lat="43.216289289911984" lon="-0.13014600505609916"><ele>334.0</ele><time>2026-04-28T16:39:43.001Z</time></trkpt><trkpt lat="43.216390367076094" lon="-0.13017632791896197"><ele>334.0</ele><time>2026-04-28T16:39:44.001Z</time></trkpt><trkpt lat="43.216494530212664" lon="-0.1302004568566553"><ele>334.0</ele><time>2026-04-28T16:39:45.001Z</time></trkpt><trkpt lat="43.21659361055191" lon="-0.130231731268029"><ele>333.79999999999995</ele><time>2026-04-28T16:39:46.001Z</time></trkpt><trkpt lat="43.21668906614622" lon="-0.13026546687877094"><ele>333.59999999999997</ele><time>2026-04-28T16:39:47.001Z</time></trkpt><trkpt lat="43.2167938722693" lon="-0.13029343442403013"><ele>333.4</ele><time>2026-04-28T16:39:48.001Z</time></trkpt><trkpt lat="43.21689043603123" lon="-0.13035294304822326"><ele>333.2</ele><time>2026-04-28T16:39:49.001Z</time></trkpt><trkpt lat="43.21698052858483" lon="-0.1304212929040993"><ele>333.0</ele><time>2026-04-28T16:39:50.001Z</time></trkpt><trkpt lat="43.21706295104364" lon="-0.13051671081503616"><ele>333.0</ele><time>2026-04-28T16:39:51.001Z</time></trkpt><trkpt lat="43.21715460004025" lon="-0.13058513565030827"><ele>333.0</ele><time>2026-04-28T16:39:52.001Z</time></trkpt><trkpt lat="43.21724670495036" lon="-0.13065881225011688"><ele>333.0</ele><time>2026-04-28T16:39:53.001Z</time></trkpt><trkpt lat="43.21733709206528" lon="-0.13074331335726044"><ele>333.0</ele><time>2026-04-28T16:39:54.001Z</time></trkpt><trkpt lat="43.217433026610664" lon="-0.1308090335019198"><ele>333.0</ele><time>2026-04-28T16:39:55.001Z</time></trkpt><trkpt lat="43.21751852454243" lon="-0.13089634135638759"><ele>332.59999999999997</ele><time>2026-04-28T16:39:56.001Z</time></trkpt><trkpt lat="43.21760563540823" lon="-0.1309852963339094"><ele>332.2</ele><time>2026-04-28T16:39:57.001Z</time></trkpt><trkpt lat="43.21768253009582" lon="-0.13109246102593552"><ele>331.8</ele><time>2026-04-28T16:39:58.001Z</time></trkpt><trkpt lat="43.217770562398734" lon="-0.1311788241355341"><ele>331.4</ele><time>2026-04-28T16:39:59.001Z</time></trkpt><trkpt lat="43.217865430640465" lon="-0.13125076859222481"><ele>331.0</ele><time>2026-04-28T16:40:00.001Z</time></trkpt><trkpt lat="43.21794993229634" lon="-0.13133537907835743"><ele>331.0</ele><time>2026-04-28T16:40:01.001Z</time></trkpt><trkpt lat="43.218034517999854" lon="-0.13143574005319336"><ele>331.0</ele><time>2026-04-28T16:40:02.001Z</time></trkpt><trkpt lat="43.21811887155555" lon="-0.1315315233494963"><ele>331.0</ele><time>2026-04-28T16:40:03.001Z</time></trkpt><trkpt lat="43.218214581963515" lon="-0.13160158435326605"><ele>331.0</ele><time>2026-04-28T16:40:04.001Z</time></trkpt><trkpt lat="43.21829373085253" lon="-0.1317064925112818"><ele>331.0</ele><time>2026-04-28T16:40:05.001Z</time></trkpt><trkpt lat="43.21837842172069" lon="-0.1317972748934014"><ele>330.4</ele><time>2026-04-28T16:40:06.001Z</time></trkpt><trkpt lat="43.21847316389618" lon="-0.13186648377295426"><ele>329.8</ele><time>2026-04-28T16:40:07.001Z</time></trkpt><trkpt lat="43.21856074000015" lon="-0.1319548286837293"><ele>329.2</ele><time>2026-04-28T16:40:08.001Z</time></trkpt><trkpt lat="43.218645030918125" lon="-0.13203985955800945"><ele>328.59999999999997</ele><time>2026-04-28T16:40:09.001Z</time></trkpt><trkpt lat="43.21872279700935" lon="-0.1321472328271147"><ele>328.0</ele><time>2026-04-28T16:40:10.001Z</time></trkpt><trkpt lat="43.218812387006864" lon="-0.13222941613124517"><ele>328.0</ele><time>2026-04-28T16:40:11.001Z</time></trkpt><trkpt lat="43.218898854808764" lon="-0.1323209535751551"><ele>328.0</ele><time>2026-04-28T16:40:12.001Z</time></trkpt><trkpt lat="43.21898398259727" lon="-0.13240619237093035"><ele>328.0</ele><time>2026-04-28T16:40:13.001Z</time></trkpt><trkpt lat="43.219068922224416" lon="-0.13249304725185737"><ele>328.0</ele><time>2026-04-28T16:40:14.001Z</time></trkpt><trkpt lat="43.219149251059974" lon="-0.1325835927250408"><ele>328.0</ele><time>2026-04-28T16:40:15.001Z</time></trkpt><trkpt lat="43.21923647999484" lon="-0.13266964700131553"><ele>328.2</ele><time>2026-04-28T16:40:16.001Z</time></trkpt><trkpt lat="43.21932348143131" lon="-0.13275330714182065"><ele>328.4</ele><time>2026-04-28T16:40:17.001Z</time></trkpt><trkpt lat="43.21940609741562" lon="-0.1328415623642332"><ele>328.59999999999997</ele><time>2026-04-28T16:40:18Z</time></trkpt><trkpt lat="43.21949006661521" lon="-0.1329290047612629"><ele>328.79999999999995</ele><time>2026-04-28T16:40:19Z</time></trkpt><trkpt lat="43.2195745731831" lon="-0.13301532700704813"><ele>329.0</ele><time>2026-04-28T16:40:20Z</time></trkpt><trkpt lat="43.2196598148359" lon="-0.1331023467892636"><ele>329.0</ele><time>2026-04-28T16:40:21Z</time></trkpt><trkpt lat="43.21974146167466" lon="-0.13319119904673052"><ele>329.0</ele><time>2026-04-28T16:40:22Z</time></trkpt><trkpt lat="43.21982597766143" lon="-0.13327767015758657"><ele>329.0</ele><time>2026-04-28T16:40:23Z</time></trkpt><trkpt lat="43.21991200410899" lon="-0.13336315916321226"><ele>329.0</ele><time>2026-04-28T16:40:24Z</time></trkpt><trkpt lat="43.21999087854095" lon="-0.13344543734589942"><ele>329.0</ele><time>2026-04-28T16:40:25Z</time></trkpt><trkpt lat="43.220083741410036" lon="-0.13352870749883702"><ele>329.2</ele><time>2026-04-28T16:40:26Z</time></trkpt><trkpt lat="43.22016628218676" lon="-0.13361522043964552"><ele>329.4</ele><time>2026-04-28T16:40:27Z</time></trkpt><trkpt lat="43.22024957039175" lon="-0.13370351126022706"><ele>329.6</ele><time>2026-04-28T16:40:28Z</time></trkpt><trkpt lat="43.22033258676974" lon="-0.13378766639769768"><ele>329.8</ele><time>2026-04-28T16:40:29Z</time></trkpt><trkpt lat="43.22041769797409" lon="-0.13387342167810962"><ele>330.0</ele><time>2026-04-28T16:40:30Z</time></trkpt><trkpt lat="43.220501164644716" lon="-0.1339635540456128"><ele>330.0</ele><time>2026-04-28T16:40:31Z</time></trkpt><trkpt lat="43.22058517834314" lon="-0.13404882275738886"><ele>330.0</ele><time>2026-04-28T16:40:32Z</time></trkpt><trkpt lat="43.22067050125285" lon="-0.1341345872122471"><ele>330.0</ele><time>2026-04-28T16:40:33Z</time></trkpt><trkpt lat="43.22075722721248" lon="-0.1342241633780435"><ele>330.0</ele><time>2026-04-28T16:40:34Z</time></trkpt><trkpt lat="43.2208394175758" lon="-0.13431907291728218"><ele>330.0</ele><time>2026-04-28T16:40:35Z</time></trkpt><trkpt lat="43.22092637080436" lon="-0.1344111743945076"><ele>330.0</ele><time>2026-04-28T16:40:36Z</time></trkpt><trkpt lat="43.22101323085317" lon="-0.13450034497505903"><ele>330.0</ele><time>2026-04-28T16:40:37Z</time></trkpt><trkpt lat="43.22110031521399" lon="-0.1345885593338107"><ele>330.0</ele><time>2026-04-28T16:40:38Z</time></trkpt><trkpt lat="43.22118752449239" lon="-0.13467605566364302"><ele>330.0</ele><time>2026-04-28T16:40:39Z</time></trkpt><trkpt lat="43.22127712100873" lon="-0.13476892219116476"><ele>330.0</ele><time>2026-04-28T16:40:40Z</time></trkpt><trkpt lat="43.22136913127049" lon="-0.13485789287903055"><ele>330.0</ele><time>2026-04-28T16:40:41Z</time></trkpt><trkpt lat="43.22146204227173" lon="-0.13494444355924842"><ele>330.0</ele><time>2026-04-28T16:40:42Z</time></trkpt><trkpt lat="43.22155438122619" lon="-0.1350317709302627"><ele>330.0</ele><time>2026-04-28T16:40:43Z</time></trkpt><trkpt lat="43.22164306050126" lon="-0.1351296599135754"><ele>330.0</ele><time>2026-04-28T16:40:44Z</time></trkpt><trkpt lat="43.221734320376804" lon="-0.13522003837847363"><ele>329.5</ele><time>2026-04-28T16:40:45Z</time></trkpt><trkpt lat="43.22182756595896" lon="-0.13531043471424176"><ele>329.0</ele><time>2026-04-28T16:40:46Z</time></trkpt><trkpt lat="43.221919107526915" lon="-0.13540266773263737"><ele>328.5</ele><time>2026-04-28T16:40:47Z</time></trkpt><trkpt lat="43.222010362340704" lon="-0.13549359413629145"><ele>328.0</ele><time>2026-04-28T16:40:48Z</time></trkpt><trkpt lat="43.22210256906924" lon="-0.135580966086872"><ele>328.0</ele><time>2026-04-28T16:40:49Z</time></trkpt><trkpt lat="43.22218900721482" lon="-0.1356753360496618"><ele>328.0</ele><time>2026-04-28T16:40:50Z</time></trkpt><trkpt lat="43.22227884782" lon="-0.13576842801798905"><ele>328.0</ele><time>2026-04-28T16:40:51Z</time></trkpt><trkpt lat="43.222367973135775" lon="-0.13585838995354269"><ele>328.0</ele><time>2026-04-28T16:40:52Z</time></trkpt><trkpt lat="43.22245395380538" lon="-0.13595255774010676"><ele>328.0</ele><time>2026-04-28T16:40:53Z</time></trkpt><trkpt lat="43.22254334108172" lon="-0.1360460034689029"><ele>327.79999999999995</ele><time>2026-04-28T16:40:54Z</time></trkpt><trkpt lat="43.22262812190632" lon="-0.1361390735521677"><ele>327.6</ele><time>2026-04-28T16:40:55Z</time></trkpt><trkpt lat="43.22271857985698" lon="-0.13623014601036934"><ele>327.4</ele><time>2026-04-28T16:40:56Z</time></trkpt><trkpt lat="43.222806624212076" lon="-0.1363216033578388"><ele>327.20000000000005</ele><time>2026-04-28T16:40:57Z</time></trkpt><trkpt lat="43.22289814837162" lon="-0.13641025683828967"><ele>327.0</ele><time>2026-04-28T16:40:58Z</time></trkpt><trkpt lat="43.22298777388626" lon="-0.13650046453808415"><ele>327.0</ele><time>2026-04-28T16:40:59Z</time></trkpt><trkpt lat="43.22308080670881" lon="-0.13659108599797057"><ele>327.0</ele><time>2026-04-28T16:41:00Z</time></trkpt><trkpt lat="43.22316964252827" lon="-0.13668681470057173"><ele>327.0</ele><time>2026-04-28T16:41:01Z</time></trkpt><trkpt lat="43.22325622892762" lon="-0.1367873708760297"><ele>327.0</ele><time>2026-04-28T16:41:02Z</time></trkpt><trkpt lat="43.22334411418527" lon="-0.1368815425791293"><ele>326.8</ele><time>2026-04-28T16:41:03Z</time></trkpt><trkpt lat="43.22343555327191" lon="-0.13697271878374925"><ele>326.6</ele><time>2026-04-28T16:41:04Z</time></trkpt><trkpt lat="43.22352436082315" lon="-0.1370612038319673"><ele>326.40000000000003</ele><time>2026-04-28T16:41:05Z</time></trkpt><trkpt lat="43.22361537252156" lon="-0.13715368086254817"><ele>326.20000000000005</ele><time>2026-04-28T16:41:06Z</time></trkpt><trkpt lat="43.223706901923094" lon="-0.1372437211433542"><ele>326.0</ele><time>2026-04-28T16:41:07Z</time></trkpt><trkpt lat="43.223793836414316" lon="-0.13733394734156418"><ele>326.20000000000005</ele><time>2026-04-28T16:41:08Z</time></trkpt><trkpt lat="43.22388394256927" lon="-0.13742303866863956"><ele>326.40000000000003</ele><time>2026-04-28T16:41:09Z</time></trkpt><trkpt lat="43.2239732926884" lon="-0.137512383563145"><ele>326.6</ele><time>2026-04-28T16:41:10Z</time></trkpt><trkpt lat="43.22406112617739" lon="-0.13760502113379497"><ele>326.8</ele><time>2026-04-28T16:41:11Z</time></trkpt><trkpt lat="43.22415004820512" lon="-0.13769954290207007"><ele>327.0</ele><time>2026-04-28T16:41:12Z</time></trkpt><trkpt lat="43.2242388085464" lon="-0.13779012894762488"><ele>326.6</ele><time>2026-04-28T16:41:13Z</time></trkpt><trkpt lat="43.22432514245443" lon="-0.13788354173667705"><ele>326.20000000000005</ele><time>2026-04-28T16:41:14Z</time></trkpt><trkpt lat="43.22441450586848" lon="-0.13797834723257146"><ele>325.8</ele><time>2026-04-28T16:41:15Z</time></trkpt><trkpt lat="43.22450401602061" lon="-0.1380657308231227"><ele>325.4</ele><time>2026-04-28T16:41:16.001Z</time></trkpt><trkpt lat="43.22459082139858" lon="-0.13814944957753345"><ele>325.0</ele><time>2026-04-28T16:41:17.001Z</time></trkpt><trkpt lat="43.22467743806123" lon="-0.13823829883279617"><ele>325.0</ele><time>2026-04-28T16:41:18.001Z</time></trkpt><trkpt lat="43.22475885193182" lon="-0.13831749687431935"><ele>325.0</ele><time>2026-04-28T16:41:19.001Z</time></trkpt><trkpt lat="43.2248372525091" lon="-0.13840061796278155"><ele>325.0</ele><time>2026-04-28T16:41:20.001Z</time></trkpt><trkpt lat="43.224909644324086" lon="-0.1384751486814295"><ele>325.0</ele><time>2026-04-28T16:41:21.001Z</time></trkpt><trkpt lat="43.224970410202" lon="-0.1385553302785926"><ele>325.0</ele><time>2026-04-28T16:41:22.001Z</time></trkpt><trkpt lat="43.22502719823419" lon="-0.1386424336044822"><ele>324.8</ele><time>2026-04-28T16:41:23.001Z</time></trkpt><trkpt lat="43.225078668156584" lon="-0.13874324820199824"><ele>324.6</ele><time>2026-04-28T16:41:24.001Z</time></trkpt><trkpt lat="43.225120397180305" lon="-0.1388586743490664"><ele>324.4</ele><time>2026-04-28T16:41:25.001Z</time></trkpt><trkpt lat="43.22515442668802" lon="-0.13897872035140776"><ele>324.2</ele><time>2026-04-28T16:41:26.001Z</time></trkpt><trkpt lat="43.225190010069404" lon="-0.1391006467215335"><ele>324.0</ele><time>2026-04-28T16:41:27.001Z</time></trkpt><trkpt lat="43.22523393476083" lon="-0.13921609510350488"><ele>324.0</ele><time>2026-04-28T16:41:28.001Z</time></trkpt><trkpt lat="43.2252899407159" lon="-0.13932758312089782"><ele>324.0</ele><time>2026-04-28T16:41:29.001Z</time></trkpt><trkpt lat="43.225353042135204" lon="-0.13943020265494238"><ele>324.0</ele><time>2026-04-28T16:41:30.001Z</time></trkpt><trkpt lat="43.22541882723231" lon="-0.1395256860900576"><ele>324.0</ele><time>2026-04-28T16:41:31.001Z</time></trkpt><trkpt lat="43.22548422736973" lon="-0.1396264593388202"><ele>324.0</ele><time>2026-04-28T16:41:32.001Z</time></trkpt><trkpt lat="43.225558173754095" lon="-0.13971459557591653"><ele>324.0</ele><time>2026-04-28T16:41:33.001Z</time></trkpt><trkpt lat="43.225630942624306" lon="-0.1398107760604496"><ele>324.0</ele><time>2026-04-28T16:41:34.001Z</time></trkpt><trkpt lat="43.225694264578166" lon="-0.13990440823817007"><ele>324.0</ele><time>2026-04-28T16:41:35.001Z</time></trkpt><trkpt lat="43.22575881121966" lon="-0.13999103303585486"><ele>324.0</ele><time>2026-04-28T16:41:36.001Z</time></trkpt><trkpt lat="43.22580678623287" lon="-0.1400831039578626"><ele>324.0</ele><time>2026-04-28T16:41:37.001Z</time></trkpt><trkpt lat="43.22583671411788" lon="-0.1401830632995666"><ele>324.0</ele><time>2026-04-28T16:41:38.001Z</time></trkpt><trkpt lat="43.225866745800815" lon="-0.1402875740396367"><ele>324.0</ele><time>2026-04-28T16:41:39.001Z</time></trkpt><trkpt lat="43.22583420451677" lon="-0.14042122740833066"><ele>324.0</ele><time>2026-04-28T16:41:40.001Z</time></trkpt><trkpt lat="43.22580383606863" lon="-0.1405406925500368"><ele>324.0</ele><time>2026-04-28T16:41:41.001Z</time></trkpt><trkpt lat="43.2257704295813" lon="-0.1406714647858495"><ele>324.0</ele><time>2026-04-28T16:41:42.001Z</time></trkpt><trkpt lat="43.22573250097101" lon="-0.14077206511393922"><ele>324.0</ele><time>2026-04-28T16:41:43.001Z</time></trkpt><trkpt lat="43.22572171489239" lon="-0.14089336591720059"><ele>324.0</ele><time>2026-04-28T16:41:44.001Z</time></trkpt><trkpt lat="43.2257344833892" lon="-0.14102033568776778"><ele>324.0</ele><time>2026-04-28T16:41:45.001Z</time></trkpt><trkpt lat="43.22578855212349" lon="-0.1411243231703106"><ele>324.0</ele><time>2026-04-28T16:41:46.001Z</time></trkpt><trkpt lat="43.22582874610736" lon="-0.1412284503090621"><ele>324.0</ele><time>2026-04-28T16:41:47.001Z</time></trkpt><trkpt lat="43.225876165721914" lon="-0.14133167913043793"><ele>324.0</ele><time>2026-04-28T16:41:48.001Z</time></trkpt><trkpt lat="43.2259113766492" lon="-0.14144780940019588"><ele>324.0</ele><time>2026-04-28T16:41:49.001Z</time></trkpt><trkpt lat="43.225961703391626" lon="-0.14154304737879336"><ele>324.0</ele><time>2026-04-28T16:41:50.001Z</time></trkpt><trkpt lat="43.22602846510524" lon="-0.14160422392596272"><ele>324.0</ele><time>2026-04-28T16:41:51.001Z</time></trkpt><trkpt lat="43.22609482271422" lon="-0.14165069119458407"><ele>324.0</ele><time>2026-04-28T16:41:52.001Z</time></trkpt><trkpt lat="43.226162709741075" lon="-0.14169996312721667"><ele>324.0</ele><time>2026-04-28T16:41:53.001Z</time></trkpt><trkpt lat="43.226236984124405" lon="-0.14175161267759187"><ele>324.0</ele><time>2026-04-28T16:41:54.001Z</time></trkpt><trkpt lat="43.22631889744884" lon="-0.14180429665232594"><ele>324.0</ele><time>2026-04-28T16:41:55.001Z</time></trkpt><trkpt lat="43.226400607479206" lon="-0.14185557568922225"><ele>324.0</ele><time>2026-04-28T16:41:56.001Z</time></trkpt><trkpt lat="43.22648866281571" lon="-0.14190745181219172"><ele>324.0</ele><time>2026-04-28T16:41:57.001Z</time></trkpt><trkpt lat="43.2265733536586" lon="-0.14195293399296435"><ele>324.0</ele><time>2026-04-28T16:41:58.001Z</time></trkpt><trkpt lat="43.22665618606692" lon="-0.14200301618987327"><ele>324.0</ele><time>2026-04-28T16:41:59.001Z</time></trkpt><trkpt lat="43.22673843746726" lon="-0.14204888962561457"><ele>324.0</ele><time>2026-04-28T16:42:00.001Z</time></trkpt><trkpt lat="43.22682542297164" lon="-0.14209584595981303"><ele>324.0</ele><time>2026-04-28T16:42:01.001Z</time></trkpt><trkpt lat="43.22691286245429" lon="-0.14213404482056585"><ele>324.0</ele><time>2026-04-28T16:42:02.001Z</time></trkpt><trkpt lat="43.22699908023021" lon="-0.1421938290946942"><ele>324.0</ele><time>2026-04-28T16:42:03.001Z</time></trkpt><trkpt lat="43.22708765703827" lon="-0.1422630689363937"><ele>324.0</ele><time>2026-04-28T16:42:04.001Z</time></trkpt><trkpt lat="43.22717379066" lon="-0.142329369639741"><ele>323.79999999999995</ele><time>2026-04-28T16:42:05.001Z</time></trkpt><trkpt lat="43.22725861144475" lon="-0.14240127258777083"><ele>323.59999999999997</ele><time>2026-04-28T16:42:06.001Z</time></trkpt><trkpt lat="43.22734363476974" lon="-0.14249048187003455"><ele>323.4</ele><time>2026-04-28T16:42:07.001Z</time></trkpt><trkpt lat="43.22742791565322" lon="-0.14257516294059103"><ele>323.2</ele><time>2026-04-28T16:42:08.001Z</time></trkpt><trkpt lat="43.22751759932346" lon="-0.14264728644004548"><ele>323.0</ele><time>2026-04-28T16:42:09.001Z</time></trkpt><trkpt lat="43.22759218822951" lon="-0.14273727566551178"><ele>323.0</ele><time>2026-04-28T16:42:10.001Z</time></trkpt><trkpt lat="43.227643358140064" lon="-0.1428409196892448"><ele>323.0</ele><time>2026-04-28T16:42:11.001Z</time></trkpt><trkpt lat="43.22770827362427" lon="-0.1429205948195317"><ele>323.0</ele><time>2026-04-28T16:42:12.001Z</time></trkpt><trkpt lat="43.227768506538176" lon="-0.14302004112855074"><ele>323.0</ele><time>2026-04-28T16:42:13.001Z</time></trkpt><trkpt lat="43.22783003534646" lon="-0.14312332307619677"><ele>323.0</ele><time>2026-04-28T16:42:14.001Z</time></trkpt><trkpt lat="43.22789250919124" lon="-0.14322412603572654"><ele>322.79999999999995</ele><time>2026-04-28T16:42:15.001Z</time></trkpt><trkpt lat="43.227957323400574" lon="-0.1433258122612094"><ele>322.6</ele><time>2026-04-28T16:42:16.001Z</time></trkpt><trkpt lat="43.22801975755567" lon="-0.14342249342341873"><ele>322.4</ele><time>2026-04-28T16:42:17.001Z</time></trkpt><trkpt lat="43.22808145146874" lon="-0.1435232726357331"><ele>322.20000000000005</ele><time>2026-04-28T16:42:18.001Z</time></trkpt><trkpt lat="43.22813824473116" lon="-0.14362241754694613"><ele>322.0</ele><time>2026-04-28T16:42:19.001Z</time></trkpt><trkpt lat="43.22819601820268" lon="-0.1437175124428467"><ele>321.66666666666663</ele><time>2026-04-28T16:42:20.001Z</time></trkpt><trkpt lat="43.22825043926295" lon="-0.14380538991869063"><ele>321.3333333333333</ele><time>2026-04-28T16:42:21.001Z</time></trkpt><trkpt lat="43.22830570613006" lon="-0.14389017041962968"><ele>321.0</ele><time>2026-04-28T16:42:22.001Z</time></trkpt><trkpt lat="43.228358688770456" lon="-0.14398152564798805"><ele>320.6666666666667</ele><time>2026-04-28T16:42:23.001Z</time></trkpt><trkpt lat="43.22841696259352" lon="-0.14408130865399404"><ele>320.33333333333337</ele><time>2026-04-28T16:42:24Z</time></trkpt><trkpt lat="43.22847648555068" lon="-0.14418108247100786"><ele>320.0</ele><time>2026-04-28T16:42:25Z</time></trkpt><trkpt lat="43.22853961540082" lon="-0.14427937234064564"><ele>320.0</ele><time>2026-04-28T16:42:26Z</time></trkpt><trkpt lat="43.2286042444564" lon="-0.1443768050280333"><ele>320.0</ele><time>2026-04-28T16:42:27Z</time></trkpt><trkpt lat="43.228668821045304" lon="-0.14447905683652587"><ele>320.0</ele><time>2026-04-28T16:42:28Z</time></trkpt><trkpt lat="43.228731340568565" lon="-0.1445873367297516"><ele>320.0</ele><time>2026-04-28T16:42:29Z</time></trkpt><trkpt lat="43.228795026858876" lon="-0.14469320917061768"><ele>320.0</ele><time>2026-04-28T16:42:30Z</time></trkpt><trkpt lat="43.22885680054114" lon="-0.1448015544097513"><ele>320.2</ele><time>2026-04-28T16:42:31Z</time></trkpt><trkpt lat="43.22892180053639" lon="-0.14490766859514248"><ele>320.4</ele><time>2026-04-28T16:42:32Z</time></trkpt><trkpt lat="43.22898269611973" lon="-0.1450134492683193"><ele>320.6</ele><time>2026-04-28T16:42:33Z</time></trkpt><trkpt lat="43.229038213832325" lon="-0.14507665199778316"><ele>320.8</ele><time>2026-04-28T16:42:34Z</time></trkpt><trkpt lat="43.22908670373411" lon="-0.14515538985931145"><ele>321.0</ele><time>2026-04-28T16:42:35Z</time></trkpt><trkpt lat="43.22920392264922" lon="-0.14534435684318206"><ele>321.0</ele><time>2026-04-28T16:42:36Z</time></trkpt><trkpt lat="43.229266138075985" lon="-0.14548001499892727"><ele>321.0</ele><time>2026-04-28T16:42:37Z</time></trkpt><trkpt lat="43.229349021197166" lon="-0.14560474114811234"><ele>321.0</ele><time>2026-04-28T16:42:38Z</time></trkpt><trkpt lat="43.229477561955825" lon="-0.14577539348859303"><ele>321.0</ele><time>2026-04-28T16:42:39Z</time></trkpt><trkpt lat="43.229611285764975" lon="-0.14594546326850105"><ele>321.0</ele><time>2026-04-28T16:42:40Z</time></trkpt><trkpt lat="43.229637814783544" lon="-0.14605197494204572"><ele>321.0</ele><time>2026-04-28T16:42:42Z</time></trkpt><trkpt lat="43.22970675862064" lon="-0.14617002161545126"><ele>321.0</ele><time>2026-04-28T16:42:43Z</time></trkpt><trkpt lat="43.22977319292436" lon="-0.14629188824173123"><ele>321.0</ele><time>2026-04-28T16:42:44Z</time></trkpt><trkpt lat="43.22984207565987" lon="-0.14640665637906097"><ele>321.0</ele><time>2026-04-28T16:42:45Z</time></trkpt><trkpt lat="43.2299097059781" lon="-0.14651943009151977"><ele>321.6</ele><time>2026-04-28T16:42:46Z</time></trkpt><trkpt lat="43.229976550838835" lon="-0.14663482065765676"><ele>322.20000000000005</ele><time>2026-04-28T16:42:47Z</time></trkpt><trkpt lat="43.230040871861426" lon="-0.1467489625984879"><ele>322.79999999999995</ele><time>2026-04-28T16:42:48Z</time></trkpt><trkpt lat="43.23011014722499" lon="-0.1468567896790493"><ele>323.4</ele><time>2026-04-28T16:42:49Z</time></trkpt><trkpt lat="43.230179832527014" lon="-0.1469691092299545"><ele>324.0</ele><time>2026-04-28T16:42:50Z</time></trkpt><trkpt lat="43.23024653857873" lon="-0.14708145415252924"><ele>324.0</ele><time>2026-04-28T16:42:51Z</time></trkpt><trkpt lat="43.23031355167389" lon="-0.147195097750522"><ele>324.0</ele><time>2026-04-28T16:42:52Z</time></trkpt><trkpt lat="43.23038153719882" lon="-0.14730340367958822"><ele>324.0</ele><time>2026-04-28T16:42:53Z</time></trkpt><trkpt lat="43.23044826556402" lon="-0.14740338037541698"><ele>324.0</ele><time>2026-04-28T16:42:54Z</time></trkpt><trkpt lat="43.230518748941265" lon="-0.1475234681889808"><ele>324.0</ele><time>2026-04-28T16:42:55Z</time></trkpt><trkpt lat="43.23058402377943" lon="-0.1476354658954678"><ele>324.4</ele><time>2026-04-28T16:42:56Z</time></trkpt><trkpt lat="43.2306501130868" lon="-0.14774771437614526"><ele>324.79999999999995</ele><time>2026-04-28T16:42:57Z</time></trkpt><trkpt lat="43.230718285908516" lon="-0.14785949252280683"><ele>325.20000000000005</ele><time>2026-04-28T16:42:58Z</time></trkpt><trkpt lat="43.23079547150153" lon="-0.1479588668824578"><ele>325.6</ele><time>2026-04-28T16:42:59Z</time></trkpt><trkpt lat="43.23086161893937" lon="-0.14806870359527835"><ele>326.0</ele><time>2026-04-28T16:43:00Z</time></trkpt><trkpt lat="43.23092883693748" lon="-0.1481803180147918"><ele>326.75</ele><time>2026-04-28T16:43:01Z</time></trkpt><trkpt lat="43.230996017328565" lon="-0.14829186993477558"><ele>327.5</ele><time>2026-04-28T16:43:02Z</time></trkpt><trkpt lat="43.23106237389793" lon="-0.1484235729219256"><ele>328.25</ele><time>2026-04-28T16:43:03Z</time></trkpt><trkpt lat="43.23113285723203" lon="-0.1485447104817617"><ele>329.0</ele><time>2026-04-28T16:43:04Z</time></trkpt><trkpt lat="43.23121538653051" lon="-0.14865612894661062"><ele>329.0</ele><time>2026-04-28T16:43:05Z</time></trkpt><trkpt lat="43.231274181099934" lon="-0.14878619618936023"><ele>329.0</ele><time>2026-04-28T16:43:06Z</time></trkpt><trkpt lat="43.23133651972973" lon="-0.1489108903342321"><ele>329.0</ele><time>2026-04-28T16:43:07Z</time></trkpt><trkpt lat="43.23138476008263" lon="-0.1490282675663619"><ele>329.0</ele><time>2026-04-28T16:43:08Z</time></trkpt><trkpt lat="43.23142336460966" lon="-0.14913364019220982"><ele>329.0</ele><time>2026-04-28T16:43:09Z</time></trkpt><trkpt lat="43.23147320855772" lon="-0.149226866630882"><ele>328.1666666666667</ele><time>2026-04-28T16:43:11Z</time></trkpt><trkpt lat="43.231557561283395" lon="-0.14923964296621217"><ele>327.33333333333337</ele><time>2026-04-28T16:43:13Z</time></trkpt><trkpt lat="43.23162272342775" lon="-0.1493533780420695"><ele>326.5</ele><time>2026-04-28T16:43:15Z</time></trkpt><trkpt lat="43.23167574103897" lon="-0.14941417069382562"><ele>325.6666666666667</ele><time>2026-04-28T16:43:16Z</time></trkpt><trkpt lat="43.23172053243793" lon="-0.14949271380871063"><ele>324.8333333333333</ele><time>2026-04-28T16:43:17Z</time></trkpt><trkpt lat="43.231768557997775" lon="-0.1495741418333489"><ele>324.0</ele><time>2026-04-28T16:43:18Z</time></trkpt><trkpt lat="43.231820745873634" lon="-0.14966262634529523"><ele>324.0</ele><time>2026-04-28T16:43:19Z</time></trkpt><trkpt lat="43.231872835015025" lon="-0.149760434227202"><ele>324.0</ele><time>2026-04-28T16:43:20Z</time></trkpt><trkpt lat="43.231923703234145" lon="-0.14986355315918537"><ele>324.0</ele><time>2026-04-28T16:43:21Z</time></trkpt><trkpt lat="43.231988714271246" lon="-0.14995815670774418"><ele>324.0</ele><time>2026-04-28T16:43:22Z</time></trkpt><trkpt lat="43.23205383118318" lon="-0.1500636007383543"><ele>324.0</ele><time>2026-04-28T16:43:23Z</time></trkpt><trkpt lat="43.232115684919634" lon="-0.150168029350212"><ele>323.4</ele><time>2026-04-28T16:43:24Z</time></trkpt><trkpt lat="43.23218453864065" lon="-0.15027660174297794"><ele>322.79999999999995</ele><time>2026-04-28T16:43:25Z</time></trkpt><trkpt lat="43.232252357243155" lon="-0.15038286016157434"><ele>322.20000000000005</ele><time>2026-04-28T16:43:26.001Z</time></trkpt><trkpt lat="43.23231947848344" lon="-0.15049531808963956"><ele>321.6</ele><time>2026-04-28T16:43:27.001Z</time></trkpt><trkpt lat="43.232386654208476" lon="-0.150609738197578"><ele>321.0</ele><time>2026-04-28T16:43:28.001Z</time></trkpt><trkpt lat="43.23244949456754" lon="-0.1507233725252128"><ele>321.0</ele><time>2026-04-28T16:43:29.001Z</time></trkpt><trkpt lat="43.232519489358346" lon="-0.1508314831792004"><ele>321.0</ele><time>2026-04-28T16:43:30.001Z</time></trkpt><trkpt lat="43.232587088216874" lon="-0.15094880106089795"><ele>321.0</ele><time>2026-04-28T16:43:31.001Z</time></trkpt><trkpt lat="43.23265651873771" lon="-0.15106015585474752"><ele>321.0</ele><time>2026-04-28T16:43:32.001Z</time></trkpt><trkpt lat="43.23272153413055" lon="-0.15117384807066955"><ele>321.0</ele><time>2026-04-28T16:43:33.001Z</time></trkpt><trkpt lat="43.23279010908675" lon="-0.15128481494120138"><ele>321.0</ele><time>2026-04-28T16:43:34.001Z</time></trkpt><trkpt lat="43.23287158053962" lon="-0.1513838084343981"><ele>321.0</ele><time>2026-04-28T16:43:35.001Z</time></trkpt><trkpt lat="43.23293992691197" lon="-0.1514943258186478"><ele>321.0</ele><time>2026-04-28T16:43:36.001Z</time></trkpt><trkpt lat="43.233001921755154" lon="-0.15161156451923696"><ele>321.0</ele><time>2026-04-28T16:43:37.001Z</time></trkpt><trkpt lat="43.23306707806695" lon="-0.1517295593856991"><ele>321.0</ele><time>2026-04-28T16:43:38.001Z</time></trkpt><trkpt lat="43.2331359404866" lon="-0.15183984548611748"><ele>321.0</ele><time>2026-04-28T16:43:39.001Z</time></trkpt><trkpt lat="43.23320588065327" lon="-0.1519526553991303"><ele>321.0</ele><time>2026-04-28T16:43:40.001Z</time></trkpt><trkpt lat="43.23327367452728" lon="-0.15206207537486685"><ele>321.0</ele><time>2026-04-28T16:43:41.001Z</time></trkpt><trkpt lat="43.23334266011298" lon="-0.15217522081132165"><ele>321.0</ele><time>2026-04-28T16:43:42.001Z</time></trkpt><trkpt lat="43.233410309468894" lon="-0.1522896529855801"><ele>321.0</ele><time>2026-04-28T16:43:43.001Z</time></trkpt><trkpt lat="43.23348096347514" lon="-0.15240363210964597"><ele>321.0</ele><time>2026-04-28T16:43:44.001Z</time></trkpt><trkpt lat="43.233550879988734" lon="-0.15251321639327364"><ele>321.0</ele><time>2026-04-28T16:43:45.001Z</time></trkpt><trkpt lat="43.23362255251391" lon="-0.15263039946796206"><ele>321.0</ele><time>2026-04-28T16:43:46.001Z</time></trkpt><trkpt lat="43.233692059062406" lon="-0.1527462886948195"><ele>321.0</ele><time>2026-04-28T16:43:47.001Z</time></trkpt><trkpt lat="43.23376261194206" lon="-0.15286003657071623"><ele>321.0</ele><time>2026-04-28T16:43:48.001Z</time></trkpt><trkpt lat="43.2338331978945" lon="-0.15297765735786426"><ele>321.0</ele><time>2026-04-28T16:43:49.001Z</time></trkpt><trkpt lat="43.2339040977127" lon="-0.1530912793707822"><ele>321.0</ele><time>2026-04-28T16:43:50.001Z</time></trkpt><trkpt lat="43.23397433779556" lon="-0.15320475828834848"><ele>321.0</ele><time>2026-04-28T16:43:51.001Z</time></trkpt><trkpt lat="43.23404191371099" lon="-0.15332025287348608"><ele>321.0</ele><time>2026-04-28T16:43:52.001Z</time></trkpt><trkpt lat="43.234110313570774" lon="-0.15343425109271946"><ele>321.0</ele><time>2026-04-28T16:43:53.001Z</time></trkpt><trkpt lat="43.23418039229299" lon="-0.1535481671793153"><ele>320.40000000000003</ele><time>2026-04-28T16:43:54.001Z</time></trkpt><trkpt lat="43.23425105782853" lon="-0.15366405545007494"><ele>319.8</ele><time>2026-04-28T16:43:55.001Z</time></trkpt><trkpt lat="43.23432334251212" lon="-0.15376628035015724"><ele>319.20000000000005</ele><time>2026-04-28T16:43:56.001Z</time></trkpt><trkpt lat="43.234391736360706" lon="-0.15386176228004972"><ele>318.6</ele><time>2026-04-28T16:43:57.001Z</time></trkpt><trkpt lat="43.234457771792606" lon="-0.15394984402088216"><ele>318.0</ele><time>2026-04-28T16:43:58.001Z</time></trkpt><trkpt lat="43.23452462091172" lon="-0.15402761521153982"><ele>318.1666666666667</ele><time>2026-04-28T16:43:59.001Z</time></trkpt><trkpt lat="43.234599560595996" lon="-0.1541042770155545"><ele>318.3333333333333</ele><time>2026-04-28T16:44:00.001Z</time></trkpt><trkpt lat="43.234665393627594" lon="-0.15418646010976872"><ele>318.5</ele><time>2026-04-28T16:44:01.001Z</time></trkpt><trkpt lat="43.23472636077375" lon="-0.1542660578920453"><ele>318.66666666666663</ele><time>2026-04-28T16:44:02.001Z</time></trkpt><trkpt lat="43.23477990278534" lon="-0.15434065893765572"><ele>318.8333333333333</ele><time>2026-04-28T16:44:03.001Z</time></trkpt><trkpt lat="43.234832344815" lon="-0.1544134181690292"><ele>319.0</ele><time>2026-04-28T16:44:04.001Z</time></trkpt><trkpt lat="43.23488667942866" lon="-0.15448163640365264"><ele>319.0</ele><time>2026-04-28T16:44:05.001Z</time></trkpt><trkpt lat="43.234939383508774" lon="-0.15455897777602304"><ele>319.0</ele><time>2026-04-28T16:44:06.001Z</time></trkpt><trkpt lat="43.23498697497564" lon="-0.15463390274530153"><ele>319.0</ele><time>2026-04-28T16:44:07.001Z</time></trkpt><trkpt lat="43.23503452897255" lon="-0.15472307741562952"><ele>319.0</ele><time>2026-04-28T16:44:08.001Z</time></trkpt><trkpt lat="43.23508599574555" lon="-0.15480194716663714"><ele>319.0</ele><time>2026-04-28T16:44:09.001Z</time></trkpt><trkpt lat="43.235139978895475" lon="-0.15488199534602862"><ele>319.0</ele><time>2026-04-28T16:44:10.001Z</time></trkpt><trkpt lat="43.235196665759865" lon="-0.154972416911345"><ele>319.66666666666663</ele><time>2026-04-28T16:44:11.001Z</time></trkpt><trkpt lat="43.235247158025956" lon="-0.1550560870055907"><ele>320.3333333333333</ele><time>2026-04-28T16:44:12.001Z</time></trkpt><trkpt lat="43.23530558479725" lon="-0.15513777418787378"><ele>321.0</ele><time>2026-04-28T16:44:13.001Z</time></trkpt><trkpt lat="43.23536095971427" lon="-0.1552320475298965"><ele>321.6666666666667</ele><time>2026-04-28T16:44:14.001Z</time></trkpt><trkpt lat="43.23541659844548" lon="-0.1553140502139211"><ele>322.33333333333337</ele><time>2026-04-28T16:44:15.001Z</time></trkpt><trkpt lat="43.23547115934299" lon="-0.1554040577906514"><ele>323.0</ele><time>2026-04-28T16:44:16.001Z</time></trkpt><trkpt lat="43.23552626743447" lon="-0.15549010994804938"><ele>323.0</ele><time>2026-04-28T16:44:17.001Z</time></trkpt><trkpt lat="43.23558846101214" lon="-0.15558733223243998"><ele>323.0</ele><time>2026-04-28T16:44:18.001Z</time></trkpt><trkpt lat="43.23564773329352" lon="-0.1556794811750143"><ele>323.0</ele><time>2026-04-28T16:44:19.001Z</time></trkpt><trkpt lat="43.23570180870036" lon="-0.15577701747308859"><ele>323.0</ele><time>2026-04-28T16:44:20.001Z</time></trkpt><trkpt lat="43.2357613726316" lon="-0.15587486897691805"><ele>323.0</ele><time>2026-04-28T16:44:21.001Z</time></trkpt><trkpt lat="43.23581833875172" lon="-0.15596762113221677"><ele>322.0</ele><time>2026-04-28T16:44:22.001Z</time></trkpt><trkpt lat="43.23587617453767" lon="-0.15606822266623052"><ele>321.0</ele><time>2026-04-28T16:44:23.001Z</time></trkpt><trkpt lat="43.23593943118506" lon="-0.15616754230494742"><ele>320.0</ele><time>2026-04-28T16:44:24.001Z</time></trkpt><trkpt lat="43.23599865187964" lon="-0.1562557617917504"><ele>319.0</ele><time>2026-04-28T16:44:25.001Z</time></trkpt><trkpt lat="43.23605737716244" lon="-0.1563628607359206"><ele>318.0</ele><time>2026-04-28T16:44:26.001Z</time></trkpt><trkpt lat="43.23611843671177" lon="-0.1564463424362558"><ele>317.8</ele><time>2026-04-28T16:44:27.001Z</time></trkpt><trkpt lat="43.23617672840018" lon="-0.1565630211398243"><ele>317.6</ele><time>2026-04-28T16:44:28.001Z</time></trkpt><trkpt lat="43.23623896875764" lon="-0.15666527804245772"><ele>317.4</ele><time>2026-04-28T16:44:29.001Z</time></trkpt><trkpt lat="43.236300790771416" lon="-0.15676745941977777"><ele>317.2</ele><time>2026-04-28T16:44:30Z</time></trkpt><trkpt lat="43.236361930044836" lon="-0.15686896751333362"><ele>317.0</ele><time>2026-04-28T16:44:31Z</time></trkpt><trkpt lat="43.23642268142993" lon="-0.1569694387831824"><ele>316.6</ele><time>2026-04-28T16:44:32Z</time></trkpt><trkpt lat="43.236476216536" lon="-0.1570567576833543"><ele>316.2</ele><time>2026-04-28T16:44:33Z</time></trkpt><trkpt lat="43.2365436308365" lon="-0.15716318085298264"><ele>315.8</ele><time>2026-04-28T16:44:34Z</time></trkpt><trkpt lat="43.23660118118737" lon="-0.1572628048645328"><ele>315.4</ele><time>2026-04-28T16:44:35Z</time></trkpt><trkpt lat="43.23665975946013" lon="-0.15735096965241924"><ele>315.0</ele><time>2026-04-28T16:44:36Z</time></trkpt><trkpt lat="43.23671769681384" lon="-0.15744797370137195"><ele>315.0</ele><time>2026-04-28T16:44:37Z</time></trkpt><trkpt lat="43.23677538424651" lon="-0.15754540201138187"><ele>315.0</ele><time>2026-04-28T16:44:38Z</time></trkpt><trkpt lat="43.236834758196395" lon="-0.15763602272009442"><ele>315.0</ele><time>2026-04-28T16:44:39Z</time></trkpt><trkpt lat="43.23689202230764" lon="-0.15773002337696643"><ele>315.0</ele><time>2026-04-28T16:44:40Z</time></trkpt><trkpt lat="43.23694972206744" lon="-0.15781402302901562"><ele>315.0</ele><time>2026-04-28T16:44:41Z</time></trkpt><trkpt lat="43.23700043111098" lon="-0.15790608146189097"><ele>315.0</ele><time>2026-04-28T16:44:42Z</time></trkpt><trkpt lat="43.23705098007323" lon="-0.15798138671126108"><ele>315.0</ele><time>2026-04-28T16:44:43Z</time></trkpt><trkpt lat="43.23709628980522" lon="-0.158063029634338"><ele>315.0</ele><time>2026-04-28T16:44:44Z</time></trkpt><trkpt lat="43.23713975673306" lon="-0.15812734617956986"><ele>315.0</ele><time>2026-04-28T16:44:45Z</time></trkpt><trkpt lat="43.23718507993796" lon="-0.1581948637869116"><ele>315.0</ele><time>2026-04-28T16:44:46Z</time></trkpt><trkpt lat="43.23725878181549" lon="-0.15829511554730183"><ele>315.0</ele><time>2026-04-28T16:44:48Z</time></trkpt><trkpt lat="43.23729134426977" lon="-0.1583729087137954"><ele>315.0</ele><time>2026-04-28T16:44:50Z</time></trkpt><trkpt lat="43.237387582722064" lon="-0.1583255764258042"><ele>315.1666666666667</ele><time>2026-04-28T16:46:04.001Z</time></trkpt><trkpt lat="43.23747677759856" lon="-0.15825011223054858"><ele>315.3333333333333</ele><time>2026-04-28T16:46:06.001Z</time></trkpt><trkpt lat="43.237557214727495" lon="-0.15817385043990703"><ele>315.5</ele><time>2026-04-28T16:46:08.001Z</time></trkpt><trkpt lat="43.237619590424714" lon="-0.15810191558582304"><ele>315.66666666666663</ele><time>2026-04-28T16:46:10.001Z</time></trkpt><trkpt lat="43.237561460162325" lon="-0.15816098236567055"><ele>315.8333333333333</ele><time>2026-04-28T16:48:35.001Z</time></trkpt><trkpt lat="43.23751160168856" lon="-0.158216250913813"><ele>316.0</ele><time>2026-04-28T16:48:40.001Z</time></trkpt><trkpt lat="43.2374573673691" lon="-0.1582682907241607"><ele>316.00000000000006</ele><time>2026-04-28T16:48:45Z</time></trkpt><trkpt lat="43.23740160384602" lon="-0.15833303597256942"><ele>316.0</ele><time>2026-04-28T16:48:51Z</time></trkpt><trkpt lat="43.23736166840056" lon="-0.1584019796821727"><ele>316.0</ele><time>2026-04-28T16:48:56Z</time></trkpt><trkpt lat="43.23732547924889" lon="-0.15848124193039728"><ele>316.0</ele><time>2026-04-28T16:50:32.001Z</time></trkpt><trkpt lat="43.23735073865374" lon="-0.15856950300334252"><ele>316.0</ele><time>2026-04-28T16:50:37.001Z</time></trkpt><trkpt lat="43.23740243043483" lon="-0.15867078317788308"><ele>316.00000000000006</ele><time>2026-04-28T16:50:39.001Z</time></trkpt><trkpt lat="43.237451370849776" lon="-0.15874575489197854"><ele>316.0</ele><time>2026-04-28T16:50:40.001Z</time></trkpt><trkpt lat="43.23749439168613" lon="-0.158818441477409"><ele>316.0</ele><time>2026-04-28T16:50:41.001Z</time></trkpt><trkpt lat="43.23754311289227" lon="-0.1588997946526754"><ele>316.0</ele><time>2026-04-28T16:50:42.001Z</time></trkpt><trkpt lat="43.23759557813863" lon="-0.1589912354373587"><ele>316.0</ele><time>2026-04-28T16:50:43.001Z</time></trkpt><trkpt lat="43.23765170732531" lon="-0.1590852698276971"><ele>316.0</ele><time>2026-04-28T16:50:44.001Z</time></trkpt><trkpt lat="43.23770883367288" lon="-0.15918468646496245"><ele>316.0</ele><time>2026-04-28T16:50:45.001Z</time></trkpt><trkpt lat="43.237771366909286" lon="-0.15928875779345517"><ele>316.0</ele><time>2026-04-28T16:50:46.001Z</time></trkpt><trkpt lat="43.23783522288035" lon="-0.1593939113327885"><ele>315.8</ele><time>2026-04-28T16:50:47.001Z</time></trkpt><trkpt lat="43.2378987527765" lon="-0.1595038276783369"><ele>315.6</ele><time>2026-04-28T16:50:48Z</time></trkpt><trkpt lat="43.237966806274045" lon="-0.15961587541522163"><ele>315.4</ele><time>2026-04-28T16:50:49Z</time></trkpt><trkpt lat="43.23803599060471" lon="-0.1597260968467473"><ele>315.2</ele><time>2026-04-28T16:50:50Z</time></trkpt><trkpt lat="43.23810688726923" lon="-0.15983947596037168"><ele>315.0</ele><time>2026-04-28T16:50:51Z</time></trkpt><trkpt lat="43.238179635215225" lon="-0.15995444701475653"><ele>313.75</ele><time>2026-04-28T16:50:52Z</time></trkpt><trkpt lat="43.23825616905687" lon="-0.1600699750102424"><ele>312.5</ele><time>2026-04-28T16:50:53Z</time></trkpt><trkpt lat="43.238330246868074" lon="-0.16018936511412746"><ele>311.25</ele><time>2026-04-28T16:50:54Z</time></trkpt><trkpt lat="43.238402466164075" lon="-0.16031228300232622"><ele>310.0</ele><time>2026-04-28T16:50:55Z</time></trkpt><trkpt lat="43.23848144242444" lon="-0.16043325029789138"><ele>310.0</ele><time>2026-04-28T16:50:56Z</time></trkpt><trkpt lat="43.23855380914887" lon="-0.1605538456075902"><ele>310.0</ele><time>2026-04-28T16:50:57Z</time></trkpt><trkpt lat="43.2386303710405" lon="-0.16067525206890915"><ele>310.0</ele><time>2026-04-28T16:50:58Z</time></trkpt><trkpt lat="43.23870673819901" lon="-0.160796055669686"><ele>310.0</ele><time>2026-04-28T16:50:59Z</time></trkpt><trkpt lat="43.23878724948086" lon="-0.16091114645463547"><ele>310.2</ele><time>2026-04-28T16:51:00Z</time></trkpt><trkpt lat="43.23886469862548" lon="-0.16102607958960588"><ele>310.4</ele><time>2026-04-28T16:51:01Z</time></trkpt><trkpt lat="43.23894342816365" lon="-0.1611349057618724"><ele>310.6</ele><time>2026-04-28T16:51:02Z</time></trkpt><trkpt lat="43.23902557704379" lon="-0.16123377288263066"><ele>310.8</ele><time>2026-04-28T16:51:03Z</time></trkpt><trkpt lat="43.23909747651761" lon="-0.16133507200766536"><ele>311.0</ele><time>2026-04-28T16:51:04Z</time></trkpt><trkpt lat="43.23916572975701" lon="-0.16143502441885552"><ele>310.2</ele><time>2026-04-28T16:51:05Z</time></trkpt><trkpt lat="43.239244476730924" lon="-0.16152880676938217"><ele>309.40000000000003</ele><time>2026-04-28T16:51:06Z</time></trkpt><trkpt lat="43.239320314520555" lon="-0.16161521519248975"><ele>308.6</ele><time>2026-04-28T16:51:07Z</time></trkpt><trkpt lat="43.23939087299981" lon="-0.16170933106907243"><ele>307.8</ele><time>2026-04-28T16:51:08Z</time></trkpt><trkpt lat="43.239469145260685" lon="-0.16178743189344916"><ele>307.0</ele><time>2026-04-28T16:51:09Z</time></trkpt><trkpt lat="43.23954784062261" lon="-0.16186689326664383"><ele>307.0</ele><time>2026-04-28T16:51:10Z</time></trkpt><trkpt lat="43.239619440405285" lon="-0.16193193823362478"><ele>307.0</ele><time>2026-04-28T16:51:11Z</time></trkpt><trkpt lat="43.23967937929488" lon="-0.16199140185157715"><ele>307.0</ele><time>2026-04-28T16:51:12Z</time></trkpt><trkpt lat="43.23977650484736" lon="-0.16208605500855333"><ele>307.0</ele><time>2026-04-28T16:51:14Z</time></trkpt><trkpt lat="43.239866656564175" lon="-0.1621717234544811"><ele>307.0</ele><time>2026-04-28T16:51:16Z</time></trkpt><trkpt lat="43.2399214486577" lon="-0.1622176520825299"><ele>306.66666666666663</ele><time>2026-04-28T16:51:17Z</time></trkpt><trkpt lat="43.240014128765615" lon="-0.1623084974757485"><ele>306.3333333333333</ele><time>2026-04-28T16:51:19Z</time></trkpt><trkpt lat="43.24005668287758" lon="-0.1624164909493593"><ele>306.0</ele><time>2026-04-28T16:51:21Z</time></trkpt><trkpt lat="43.24003773093772" lon="-0.16253153061429834"><ele>305.6666666666667</ele><time>2026-04-28T16:51:23Z</time></trkpt><trkpt lat="43.24000517895115" lon="-0.16260925278288413"><ele>305.33333333333337</ele><time>2026-04-28T16:51:24Z</time></trkpt><trkpt lat="43.23998718589005" lon="-0.16270191657276672"><ele>305.0</ele><time>2026-04-28T16:51:25Z</time></trkpt><trkpt lat="43.23998464298915" lon="-0.16279503609078924"><ele>304.8571428571429</ele><time>2026-04-28T16:51:26Z</time></trkpt><trkpt lat="43.240003605963324" lon="-0.16289529439571998"><ele>304.71428571428567</ele><time>2026-04-28T16:51:27Z</time></trkpt><trkpt lat="43.240031668109324" lon="-0.1629891629727419"><ele>304.57142857142856</ele><time>2026-04-28T16:51:28Z</time></trkpt><trkpt lat="43.24007261871092" lon="-0.1630758391530219"><ele>304.42857142857144</ele><time>2026-04-28T16:51:29Z</time></trkpt><trkpt lat="43.240123895429235" lon="-0.16315300384300185"><ele>304.28571428571433</ele><time>2026-04-28T16:51:30Z</time></trkpt><trkpt lat="43.240173516722294" lon="-0.1632305092191708"><ele>304.1428571428571</ele><time>2026-04-28T16:51:31Z</time></trkpt><trkpt lat="43.24021968492973" lon="-0.16330786213101375"><ele>304.0</ele><time>2026-04-28T16:51:32Z</time></trkpt><trkpt lat="43.2402639547299" lon="-0.16337977574740756"><ele>304.0</ele><time>2026-04-28T16:51:33Z</time></trkpt><trkpt lat="43.240308205632424" lon="-0.16344876407983822"><ele>304.0</ele><time>2026-04-28T16:51:34Z</time></trkpt><trkpt lat="43.240352634532904" lon="-0.16351353616864764"><ele>304.0</ele><time>2026-04-28T16:51:35Z</time></trkpt><trkpt lat="43.240428257727444" lon="-0.1636306965420551"><ele>304.0</ele><time>2026-04-28T16:51:37Z</time></trkpt><trkpt lat="43.24047715930427" lon="-0.16371960963904866"><ele>304.0</ele><time>2026-04-28T16:51:39Z</time></trkpt><trkpt lat="43.240523996744066" lon="-0.16379444093192502"><ele>304.0</ele><time>2026-04-28T16:51:42Z</time></trkpt><trkpt lat="43.24056396517609" lon="-0.16386427442352494"><ele>304.0</ele><time>2026-04-28T16:51:49Z</time></trkpt><trkpt lat="43.240612609102605" lon="-0.16395321712856478"><ele>304.0</ele><time>2026-04-28T16:51:52Z</time></trkpt><trkpt lat="43.24067617558215" lon="-0.16405623936962072"><ele>304.0</ele><time>2026-04-28T16:51:54Z</time></trkpt><trkpt lat="43.2407551063699" lon="-0.16419314428276044"><ele>304.0</ele><time>2026-04-28T16:51:56Z</time></trkpt><trkpt lat="43.24080458557401" lon="-0.16426905426957714"><ele>304.0</ele><time>2026-04-28T16:51:57Z</time></trkpt><trkpt lat="43.24085759059601" lon="-0.16435097103993382"><ele>303.66666666666663</ele><time>2026-04-28T16:51:58Z</time></trkpt><trkpt lat="43.24091098663498" lon="-0.1644388887284288"><ele>303.3333333333333</ele><time>2026-04-28T16:51:59Z</time></trkpt><trkpt lat="43.240970563479024" lon="-0.1645291199235299"><ele>303.0</ele><time>2026-04-28T16:52:00Z</time></trkpt><trkpt lat="43.24103135973366" lon="-0.1646213608998132"><ele>302.6666666666667</ele><time>2026-04-28T16:52:01Z</time></trkpt><trkpt lat="43.24108951692666" lon="-0.16471756665154988"><ele>302.33333333333337</ele><time>2026-04-28T16:52:02Z</time></trkpt><trkpt lat="43.241148945814665" lon="-0.16481416466615545"><ele>302.0</ele><time>2026-04-28T16:52:03Z</time></trkpt><trkpt lat="43.24120402553867" lon="-0.16490667472392942"><ele>302.0</ele><time>2026-04-28T16:52:04Z</time></trkpt><trkpt lat="43.24125800165831" lon="-0.16499359590762763"><ele>302.0</ele><time>2026-04-28T16:52:05Z</time></trkpt><trkpt lat="43.24131469553629" lon="-0.16507751848833874"><ele>302.0</ele><time>2026-04-28T16:52:06Z</time></trkpt><trkpt lat="43.24136685957062" lon="-0.1651620711898885"><ele>302.0</ele><time>2026-04-28T16:52:07Z</time></trkpt><trkpt lat="43.24142491488661" lon="-0.16523894016932303"><ele>302.0</ele><time>2026-04-28T16:52:08Z</time></trkpt><trkpt lat="43.241485349745844" lon="-0.16531020289858164"><ele>302.0</ele><time>2026-04-28T16:52:09Z</time></trkpt><trkpt lat="43.24155335969075" lon="-0.16537149928132913"><ele>302.0</ele><time>2026-04-28T16:52:10Z</time></trkpt><trkpt lat="43.241624558684855" lon="-0.1654266229621401"><ele>302.0</ele><time>2026-04-28T16:52:11Z</time></trkpt><trkpt lat="43.241697880454346" lon="-0.16548332370227387"><ele>302.0</ele><time>2026-04-28T16:52:12Z</time></trkpt><trkpt lat="43.24177574117398" lon="-0.16553896433770307"><ele>302.0</ele><time>2026-04-28T16:52:13Z</time></trkpt><trkpt lat="43.24185616315576" lon="-0.16558893626469004"><ele>302.0</ele><time>2026-04-28T16:52:14Z</time></trkpt><trkpt lat="43.24193864820229" lon="-0.16563056112959612"><ele>302.0</ele><time>2026-04-28T16:52:15.001Z</time></trkpt><trkpt lat="43.242011624139124" lon="-0.16570424083783017"><ele>302.0</ele><time>2026-04-28T16:52:16.001Z</time></trkpt><trkpt lat="43.24208629000375" lon="-0.1657687948681118"><ele>302.0</ele><time>2026-04-28T16:52:17.001Z</time></trkpt><trkpt lat="43.242161580088506" lon="-0.16582765227684354"><ele>302.0</ele><time>2026-04-28T16:52:18.001Z</time></trkpt><trkpt lat="43.24223670150381" lon="-0.16588301870399294"><ele>302.0</ele><time>2026-04-28T16:52:19.001Z</time></trkpt><trkpt lat="43.24230364544002" lon="-0.16594351534595891"><ele>302.0</ele><time>2026-04-28T16:52:20.001Z</time></trkpt><trkpt lat="43.2423743295082" lon="-0.16598339623439937"><ele>302.0</ele><time>2026-04-28T16:52:21.001Z</time></trkpt><trkpt lat="43.242446612794126" lon="-0.1660192598700805"><ele>302.14285714285717</ele><time>2026-04-28T16:52:22.001Z</time></trkpt><trkpt lat="43.242516947078585" lon="-0.16605264680042728"><ele>302.2857142857143</ele><time>2026-04-28T16:52:23.001Z</time></trkpt><trkpt lat="43.2425863443919" lon="-0.1660653924333292"><ele>302.42857142857144</ele><time>2026-04-28T16:52:24.001Z</time></trkpt><trkpt lat="43.2426538263751" lon="-0.16605700168576054"><ele>302.57142857142856</ele><time>2026-04-28T16:52:25.001Z</time></trkpt><trkpt lat="43.242721106403664" lon="-0.16603664188495743"><ele>302.7142857142857</ele><time>2026-04-28T16:52:26.001Z</time></trkpt><trkpt lat="43.242785514232416" lon="-0.1660277214714857"><ele>302.8571428571429</ele><time>2026-04-28T16:52:27.001Z</time></trkpt><trkpt lat="43.24285067629198" lon="-0.16605071143131145"><ele>303.0</ele><time>2026-04-28T16:52:28.001Z</time></trkpt><trkpt lat="43.24291896892909" lon="-0.16606640209217724"><ele>303.0</ele><time>2026-04-28T16:52:29.001Z</time></trkpt><trkpt lat="43.242972403415266" lon="-0.16616009935081993"><ele>303.0</ele><time>2026-04-28T16:52:30.001Z</time></trkpt><trkpt lat="43.24302341513716" lon="-0.1662417853090031"><ele>303.0</ele><time>2026-04-28T16:52:31.001Z</time></trkpt><trkpt lat="43.243069472049115" lon="-0.16633497744169443"><ele>303.0</ele><time>2026-04-28T16:52:32.001Z</time></trkpt><trkpt lat="43.243104969386145" lon="-0.16644146989816394"><ele>303.0</ele><time>2026-04-28T16:52:33.001Z</time></trkpt><trkpt lat="43.243123367959846" lon="-0.16655154996548485"><ele>303.0</ele><time>2026-04-28T16:52:34.001Z</time></trkpt><trkpt lat="43.24313233364866" lon="-0.1666616805928009"><ele>302.5</ele><time>2026-04-28T16:52:35.001Z</time></trkpt><trkpt lat="43.24313406011431" lon="-0.1667663455074433"><ele>302.0</ele><time>2026-04-28T16:52:36.001Z</time></trkpt><trkpt lat="43.24313398813356" lon="-0.16686703349807397"><ele>301.5</ele><time>2026-04-28T16:52:37.001Z</time></trkpt><trkpt lat="43.24317420144786" lon="-0.16695825597383718"><ele>301.0</ele><time>2026-04-28T16:52:38.001Z</time></trkpt><trkpt lat="43.24320009461761" lon="-0.16705600774051432"><ele>300.5</ele><time>2026-04-28T16:52:39.001Z</time></trkpt><trkpt lat="43.2432318316315" lon="-0.16715010352202844"><ele>300.0</ele><time>2026-04-28T16:52:40.001Z</time></trkpt><trkpt lat="43.24331112262929" lon="-0.16720402559629668"><ele>300.0</ele><time>2026-04-28T16:52:41.001Z</time></trkpt><trkpt lat="43.24337378095476" lon="-0.16729098976070159"><ele>300.0</ele><time>2026-04-28T16:52:42.001Z</time></trkpt><trkpt lat="43.243435534810594" lon="-0.16737411768331661"><ele>300.0</ele><time>2026-04-28T16:52:43.001Z</time></trkpt><trkpt lat="43.243501269821174" lon="-0.1674577212560422"><ele>300.0</ele><time>2026-04-28T16:52:44.001Z</time></trkpt><trkpt lat="43.24356398492641" lon="-0.16754364900736296"><ele>300.0</ele><time>2026-04-28T16:52:45.001Z</time></trkpt><trkpt lat="43.24364717294211" lon="-0.16760106042296272"><ele>300.0</ele><time>2026-04-28T16:52:46.001Z</time></trkpt><trkpt lat="43.2437344331945" lon="-0.16765053875610517"><ele>300.0</ele><time>2026-04-28T16:52:47.001Z</time></trkpt><trkpt lat="43.24382091098127" lon="-0.1676989990202361"><ele>300.0</ele><time>2026-04-28T16:52:48.001Z</time></trkpt><trkpt lat="43.243908015073615" lon="-0.16774408917549122"><ele>300.0</ele><time>2026-04-28T16:52:49.001Z</time></trkpt><trkpt lat="43.24400025869226" lon="-0.1677935262491155"><ele>300.0</ele><time>2026-04-28T16:52:50.001Z</time></trkpt><trkpt lat="43.24408870867778" lon="-0.1678424839926437"><ele>300.0</ele><time>2026-04-28T16:52:51.001Z</time></trkpt><trkpt lat="43.244186383840535" lon="-0.16786717292768696"><ele>300.0</ele><time>2026-04-28T16:52:52.001Z</time></trkpt><trkpt lat="43.24427943125185" lon="-0.1679112899380816"><ele>300.0</ele><time>2026-04-28T16:52:53.001Z</time></trkpt><trkpt lat="43.24436838561742" lon="-0.1679749968736533"><ele>300.0</ele><time>2026-04-28T16:52:54Z</time></trkpt><trkpt lat="43.24446614596405" lon="-0.16800564550520417"><ele>300.0</ele><time>2026-04-28T16:52:55Z</time></trkpt><trkpt lat="43.24455314518181" lon="-0.16806683780722523"><ele>300.0</ele><time>2026-04-28T16:52:56Z</time></trkpt><trkpt lat="43.244640193109056" lon="-0.1681259587329673"><ele>300.0</ele><time>2026-04-28T16:52:57Z</time></trkpt><trkpt lat="43.24472384104865" lon="-0.16818950352032913"><ele>300.0</ele><time>2026-04-28T16:52:58Z</time></trkpt><trkpt lat="43.244806994872924" lon="-0.16825829941536305"><ele>300.0</ele><time>2026-04-28T16:52:59Z</time></trkpt><trkpt lat="43.24488913020673" lon="-0.16832702450250214"><ele>300.0</ele><time>2026-04-28T16:53:00Z</time></trkpt><trkpt lat="43.24497044140951" lon="-0.1683971039281941"><ele>300.0</ele><time>2026-04-28T16:53:01Z</time></trkpt><trkpt lat="43.245048447078034" lon="-0.16846061226579795"><ele>300.0</ele><time>2026-04-28T16:53:02Z</time></trkpt><trkpt lat="43.24512593410757" lon="-0.16851134371143223"><ele>300.0</ele><time>2026-04-28T16:53:03Z</time></trkpt><trkpt lat="43.24520053991497" lon="-0.16855453794739525"><ele>300.0</ele><time>2026-04-28T16:53:04Z</time></trkpt><trkpt lat="43.24527579579263" lon="-0.1685983202746693"><ele>300.0</ele><time>2026-04-28T16:53:05Z</time></trkpt><trkpt lat="43.24535232055541" lon="-0.16865120491137775"><ele>300.0</ele><time>2026-04-28T16:53:06Z</time></trkpt><trkpt lat="43.245422225781354" lon="-0.1687189007531835"><ele>300.0</ele><time>2026-04-28T16:53:07Z</time></trkpt><trkpt lat="43.24548760081485" lon="-0.1687920973202469"><ele>300.0</ele><time>2026-04-28T16:53:08Z</time></trkpt><trkpt lat="43.245549133264454" lon="-0.16887362575949671"><ele>300.0</ele><time>2026-04-28T16:53:09Z</time></trkpt><trkpt lat="43.245603591278275" lon="-0.16896841370887786"><ele>300.0</ele><time>2026-04-28T16:53:10Z</time></trkpt><trkpt lat="43.245653140467944" lon="-0.1690668573924869"><ele>300.0</ele><time>2026-04-28T16:53:11Z</time></trkpt><trkpt lat="43.24570038896629" lon="-0.16917086318295038"><ele>300.0</ele><time>2026-04-28T16:53:12Z</time></trkpt><trkpt lat="43.245757888851614" lon="-0.1692738909700805"><ele>300.0</ele><time>2026-04-28T16:53:13Z</time></trkpt><trkpt lat="43.24581937612997" lon="-0.16937240264214481"><ele>299.8</ele><time>2026-04-28T16:53:14Z</time></trkpt><trkpt lat="43.24587609949477" lon="-0.1694745301299864"><ele>299.6</ele><time>2026-04-28T16:53:15Z</time></trkpt><trkpt lat="43.245929979623526" lon="-0.16957934727544938"><ele>299.4</ele><time>2026-04-28T16:53:16Z</time></trkpt><trkpt lat="43.245979722576685" lon="-0.16968221263759134"><ele>299.2</ele><time>2026-04-28T16:53:17Z</time></trkpt><trkpt lat="43.24604306645645" lon="-0.16977325489122166"><ele>299.0</ele><time>2026-04-28T16:53:18Z</time></trkpt><trkpt lat="43.246106232783525" lon="-0.16987094744890266"><ele>299.0</ele><time>2026-04-28T16:53:19Z</time></trkpt><trkpt lat="43.2461629559082" lon="-0.16997258805849502"><ele>299.0</ele><time>2026-04-28T16:53:20Z</time></trkpt><trkpt lat="43.246215633179574" lon="-0.1700669473617648"><ele>299.0</ele><time>2026-04-28T16:53:21Z</time></trkpt><trkpt lat="43.24626805455258" lon="-0.17015330996675243"><ele>299.0</ele><time>2026-04-28T16:53:22Z</time></trkpt><trkpt lat="43.24631725209991" lon="-0.1702364270020661"><ele>299.0</ele><time>2026-04-28T16:53:23Z</time></trkpt><trkpt lat="43.24637468672508" lon="-0.17029821670333042"><ele>299.0</ele><time>2026-04-28T16:53:24Z</time></trkpt><trkpt lat="43.24641993648425" lon="-0.1703640017343726"><ele>299.0</ele><time>2026-04-28T16:53:25Z</time></trkpt><trkpt lat="43.24639012235404" lon="-0.1705282686798771"><ele>299.0</ele><time>2026-04-28T16:53:26Z</time></trkpt><trkpt lat="43.24639213031515" lon="-0.1706501155315874"><ele>299.0</ele><time>2026-04-28T16:53:27Z</time></trkpt><trkpt lat="43.24639473772539" lon="-0.17077691763829217"><ele>299.0</ele><time>2026-04-28T16:53:28Z</time></trkpt><trkpt lat="43.24642060855833" lon="-0.17090205083757834"><ele>299.0</ele><time>2026-04-28T16:53:29Z</time></trkpt><trkpt lat="43.246431501572225" lon="-0.1710275448725012"><ele>299.0</ele><time>2026-04-28T16:53:30Z</time></trkpt><trkpt lat="43.24644419364257" lon="-0.1711617429302103"><ele>299.0</ele><time>2026-04-28T16:53:31Z</time></trkpt><trkpt lat="43.24645663731183" lon="-0.17129331457477795"><ele>299.0</ele><time>2026-04-28T16:53:32Z</time></trkpt><trkpt lat="43.24647916444254" lon="-0.17141230685709294"><ele>299.0</ele><time>2026-04-28T16:53:33Z</time></trkpt><trkpt lat="43.2464965561429" lon="-0.1715268026474344"><ele>299.0</ele><time>2026-04-28T16:53:34Z</time></trkpt><trkpt lat="43.246537306427456" lon="-0.17162124300956996"><ele>298.83333333333337</ele><time>2026-04-28T16:53:35Z</time></trkpt><trkpt lat="43.24659460357287" lon="-0.1716849649270761"><ele>298.6666666666667</ele><time>2026-04-28T16:53:36Z</time></trkpt><trkpt lat="43.246652752467675" lon="-0.17179906791823493"><ele>298.5</ele><time>2026-04-28T16:53:38Z</time></trkpt><trkpt lat="43.2467283012776" lon="-0.17190911214930368"><ele>298.3333333333333</ele><time>2026-04-28T16:53:40Z</time></trkpt><trkpt lat="43.24677314703459" lon="-0.17197429671066658"><ele>298.16666666666663</ele><time>2026-04-28T16:53:41Z</time></trkpt><trkpt lat="43.24682442221235" lon="-0.17204052224730584"><ele>298.0</ele><time>2026-04-28T16:53:42Z</time></trkpt><trkpt lat="43.2468790256621" lon="-0.1721132579687998"><ele>298.0</ele><time>2026-04-28T16:53:43Z</time></trkpt><trkpt lat="43.246940855012774" lon="-0.17219227433365053"><ele>298.0</ele><time>2026-04-28T16:53:44Z</time></trkpt><trkpt lat="43.2470062849141" lon="-0.17227477148477352"><ele>298.0</ele><time>2026-04-28T16:53:45Z</time></trkpt><trkpt lat="43.24707155809249" lon="-0.1723611158875117"><ele>298.0</ele><time>2026-04-28T16:53:46Z</time></trkpt><trkpt lat="43.24713564673091" lon="-0.17244575300912285"><ele>298.0</ele><time>2026-04-28T16:53:47Z</time></trkpt><trkpt lat="43.2471937952596" lon="-0.17252860869151493"><ele>298.0</ele><time>2026-04-28T16:53:48Z</time></trkpt><trkpt lat="43.24725350250204" lon="-0.17260571840716693"><ele>298.0</ele><time>2026-04-28T16:53:49Z</time></trkpt><trkpt lat="43.24730335922416" lon="-0.17266949460201533"><ele>298.0</ele><time>2026-04-28T16:53:50Z</time></trkpt><trkpt lat="43.24738113350907" lon="-0.17276315622353058"><ele>298.0</ele><time>2026-04-28T16:53:52Z</time></trkpt><trkpt lat="43.247439964821176" lon="-0.17285600849622457"><ele>298.0</ele><time>2026-04-28T16:53:54Z</time></trkpt><trkpt lat="43.247520133568266" lon="-0.17297630879429746"><ele>298.0</ele><time>2026-04-28T16:53:56Z</time></trkpt><trkpt lat="43.24757094829166" lon="-0.17304105449811097"><ele>298.0</ele><time>2026-04-28T16:53:57Z</time></trkpt><trkpt lat="43.24761770417391" lon="-0.17312302642225344"><ele>298.16666666666663</ele><time>2026-04-28T16:53:58Z</time></trkpt><trkpt lat="43.24765979429434" lon="-0.17321975542282642"><ele>298.3333333333333</ele><time>2026-04-28T16:53:59Z</time></trkpt><trkpt lat="43.247702970486294" lon="-0.17332265253336024"><ele>298.5</ele><time>2026-04-28T16:54:00Z</time></trkpt><trkpt lat="43.24774526550722" lon="-0.17343363503715162"><ele>298.6666666666667</ele><time>2026-04-28T16:54:01Z</time></trkpt><trkpt lat="43.24779734545563" lon="-0.17354021741574358"><ele>298.83333333333337</ele><time>2026-04-28T16:54:02Z</time></trkpt><trkpt lat="43.24785501732284" lon="-0.17363846014898512"><ele>299.0</ele><time>2026-04-28T16:54:03Z</time></trkpt><trkpt lat="43.247911942521" lon="-0.17372189432432145"><ele>299.0</ele><time>2026-04-28T16:54:04Z</time></trkpt><trkpt lat="43.247959754840835" lon="-0.1737828780780851"><ele>299.0</ele><time>2026-04-28T16:54:05Z</time></trkpt><trkpt lat="43.24803202544495" lon="-0.17386373890328358"><ele>299.0</ele><time>2026-04-28T16:54:07Z</time></trkpt><trkpt lat="43.248106905646075" lon="-0.1739589124490451"><ele>299.0</ele><time>2026-04-28T16:54:09Z</time></trkpt><trkpt lat="43.24815468915711" lon="-0.1740168097359596"><ele>299.0</ele><time>2026-04-28T16:54:10Z</time></trkpt><trkpt lat="43.24820650302679" lon="-0.1740784487776431"><ele>299.0</ele><time>2026-04-28T16:54:11Z</time></trkpt><trkpt lat="43.248264029625716" lon="-0.17414061784679324"><ele>298.1666666666667</ele><time>2026-04-28T16:54:12Z</time></trkpt><trkpt lat="43.248329739693496" lon="-0.17419572861620486"><ele>297.33333333333337</ele><time>2026-04-28T16:54:13Z</time></trkpt><trkpt lat="43.24839822033169" lon="-0.17425467341098735"><ele>296.5</ele><time>2026-04-28T16:54:14Z</time></trkpt><trkpt lat="43.24847142585507" lon="-0.17431190991744697"><ele>295.6666666666667</ele><time>2026-04-28T16:54:15Z</time></trkpt><trkpt lat="43.24854046899619" lon="-0.1743658369602289"><ele>294.8333333333333</ele><time>2026-04-28T16:54:16Z</time></trkpt><trkpt lat="43.248604807075864" lon="-0.17442142432446833"><ele>294.0</ele><time>2026-04-28T16:54:17Z</time></trkpt><trkpt lat="43.248663786099634" lon="-0.1744742630039362"><ele>294.0</ele><time>2026-04-28T16:54:18Z</time></trkpt><trkpt lat="43.248719157334506" lon="-0.17452070593177021"><ele>294.0</ele><time>2026-04-28T16:54:19Z</time></trkpt><trkpt lat="43.24880628410217" lon="-0.17459074098979985"><ele>294.0</ele><time>2026-04-28T16:54:21Z</time></trkpt><trkpt lat="43.24887046529852" lon="-0.17464101652761874"><ele>294.0</ele><time>2026-04-28T16:54:24Z</time></trkpt><trkpt lat="43.248941147031104" lon="-0.17468262057634446"><ele>294.0</ele><time>2026-04-28T16:54:26Z</time></trkpt><trkpt lat="43.249034452280576" lon="-0.17478665254133463"><ele>294.0</ele><time>2026-04-28T16:54:28Z</time></trkpt><trkpt lat="43.24910025386186" lon="-0.17483557786045367"><ele>294.0</ele><time>2026-04-28T16:54:29Z</time></trkpt><trkpt lat="43.24916850929185" lon="-0.17489040826433205"><ele>294.0</ele><time>2026-04-28T16:54:30Z</time></trkpt><trkpt lat="43.2492445189548" lon="-0.17494252725348347"><ele>294.0</ele><time>2026-04-28T16:54:31Z</time></trkpt><trkpt lat="43.24932528529823" lon="-0.17498558034448997"><ele>294.0</ele><time>2026-04-28T16:54:32Z</time></trkpt><trkpt lat="43.24941200676894" lon="-0.1750176234311461"><ele>294.0</ele><time>2026-04-28T16:54:33Z</time></trkpt><trkpt lat="43.24950297922515" lon="-0.17504191242176642"><ele>294.0</ele><time>2026-04-28T16:54:34Z</time></trkpt><trkpt lat="43.249595413819634" lon="-0.17506942024654007"><ele>294.0</ele><time>2026-04-28T16:54:35Z</time></trkpt><trkpt lat="43.249690252235254" lon="-0.17509675545168568"><ele>294.0</ele><time>2026-04-28T16:54:36Z</time></trkpt><trkpt lat="43.2497805544171" lon="-0.17513786633856224"><ele>294.0</ele><time>2026-04-28T16:54:37Z</time></trkpt><trkpt lat="43.24987345790227" lon="-0.17520443529120386"><ele>294.0</ele><time>2026-04-28T16:54:38Z</time></trkpt><trkpt lat="43.24995726784102" lon="-0.1752762395261888"><ele>294.0</ele><time>2026-04-28T16:54:39Z</time></trkpt><trkpt lat="43.25003450573503" lon="-0.17536808223078992"><ele>294.0</ele><time>2026-04-28T16:54:40Z</time></trkpt><trkpt lat="43.250109180078624" lon="-0.17546141794376893"><ele>294.0</ele><time>2026-04-28T16:54:41Z</time></trkpt><trkpt lat="43.250176822067345" lon="-0.17556307065449023"><ele>294.0</ele><time>2026-04-28T16:54:42Z</time></trkpt><trkpt lat="43.250242138661214" lon="-0.17566882958790092"><ele>294.0</ele><time>2026-04-28T16:54:43.001Z</time></trkpt><trkpt lat="43.25030803073433" lon="-0.17577684114653394"><ele>294.0</ele><time>2026-04-28T16:54:44.001Z</time></trkpt><trkpt lat="43.25037812481348" lon="-0.1758865737593727"><ele>293.59999999999997</ele><time>2026-04-28T16:54:45.001Z</time></trkpt><trkpt lat="43.25044340969742" lon="-0.17599680072276574"><ele>293.2</ele><time>2026-04-28T16:54:46.001Z</time></trkpt><trkpt lat="43.25050514850992" lon="-0.17611592085868857"><ele>292.79999999999995</ele><time>2026-04-28T16:54:47.001Z</time></trkpt><trkpt lat="43.25056445278259" lon="-0.17623290221291482"><ele>292.4</ele><time>2026-04-28T16:54:48.001Z</time></trkpt><trkpt lat="43.250625125887574" lon="-0.17635010820380045"><ele>292.0</ele><time>2026-04-28T16:54:49.001Z</time></trkpt><trkpt lat="43.25068480300607" lon="-0.17646655344572743"><ele>291.6</ele><time>2026-04-28T16:54:50.001Z</time></trkpt><trkpt lat="43.2507444684371" lon="-0.17658970499378931"><ele>291.2</ele><time>2026-04-28T16:54:51.001Z</time></trkpt><trkpt lat="43.250802764056644" lon="-0.17671187093852903"><ele>290.8</ele><time>2026-04-28T16:54:52.001Z</time></trkpt><trkpt lat="43.25086127661307" lon="-0.17683267124776786"><ele>290.4</ele><time>2026-04-28T16:54:53.001Z</time></trkpt><trkpt lat="43.25092286857486" lon="-0.17695542835039302"><ele>290.0</ele><time>2026-04-28T16:54:54.001Z</time></trkpt><trkpt lat="43.25098355950066" lon="-0.1770764003222038"><ele>290.0</ele><time>2026-04-28T16:54:55.001Z</time></trkpt><trkpt lat="43.25104470651533" lon="-0.17719768447831336"><ele>290.0</ele><time>2026-04-28T16:54:56.001Z</time></trkpt><trkpt lat="43.251108798717695" lon="-0.17731833269271435"><ele>290.0</ele><time>2026-04-28T16:54:57.001Z</time></trkpt><trkpt lat="43.25117680362443" lon="-0.17743298566349913"><ele>290.0</ele><time>2026-04-28T16:54:58.001Z</time></trkpt><trkpt lat="43.25124401890824" lon="-0.17754839620332719"><ele>290.0</ele><time>2026-04-28T16:54:59.001Z</time></trkpt><trkpt lat="43.251317352738745" lon="-0.17765662242869615"><ele>290.2</ele><time>2026-04-28T16:55:00Z</time></trkpt><trkpt lat="43.25139581245868" lon="-0.17775913827146958"><ele>290.4</ele><time>2026-04-28T16:55:01Z</time></trkpt><trkpt lat="43.25147656226012" lon="-0.1778565173004849"><ele>290.6</ele><time>2026-04-28T16:55:02Z</time></trkpt><trkpt lat="43.25156186661745" lon="-0.17794470708503707"><ele>290.8</ele><time>2026-04-28T16:55:03Z</time></trkpt><trkpt lat="43.25165191217988" lon="-0.17802350708607348"><ele>291.0</ele><time>2026-04-28T16:55:04Z</time></trkpt><trkpt lat="43.251744124180334" lon="-0.17809634781611067"><ele>291.0</ele><time>2026-04-28T16:55:05Z</time></trkpt><trkpt lat="43.25184188012907" lon="-0.17816267411881195"><ele>291.0</ele><time>2026-04-28T16:55:06Z</time></trkpt><trkpt lat="43.25194005901653" lon="-0.17822503582587856"><ele>291.0</ele><time>2026-04-28T16:55:07Z</time></trkpt><trkpt lat="43.25204041028939" lon="-0.17827957777876433"><ele>291.0</ele><time>2026-04-28T16:55:08Z</time></trkpt><trkpt lat="43.25214272509634" lon="-0.1783292674271956"><ele>291.0</ele><time>2026-04-28T16:55:09Z</time></trkpt><trkpt lat="43.25224631919014" lon="-0.17837498733067814"><ele>290.8</ele><time>2026-04-28T16:55:10Z</time></trkpt><trkpt lat="43.25234958830991" lon="-0.1784174475183061"><ele>290.6</ele><time>2026-04-28T16:55:11Z</time></trkpt><trkpt lat="43.252451684382365" lon="-0.17845677134507754"><ele>290.4</ele><time>2026-04-28T16:55:12Z</time></trkpt><trkpt lat="43.25254893808775" lon="-0.17849414109713974"><ele>290.2</ele><time>2026-04-28T16:55:13Z</time></trkpt><trkpt lat="43.25264691157147" lon="-0.17853057528403699"><ele>290.0</ele><time>2026-04-28T16:55:14Z</time></trkpt><trkpt lat="43.25275271358716" lon="-0.17855163925146528"><ele>290.0</ele><time>2026-04-28T16:55:15Z</time></trkpt><trkpt lat="43.25285533086314" lon="-0.17860460756138177"><ele>290.0</ele><time>2026-04-28T16:55:16Z</time></trkpt><trkpt lat="43.25294957220374" lon="-0.17868476933159838"><ele>290.0</ele><time>2026-04-28T16:55:17Z</time></trkpt><trkpt lat="43.25302576495887" lon="-0.1787880417990109"><ele>290.0</ele><time>2026-04-28T16:55:18Z</time></trkpt><trkpt lat="43.25311183437319" lon="-0.17886535601143527"><ele>290.0</ele><time>2026-04-28T16:55:19Z</time></trkpt><trkpt lat="43.25319734329928" lon="-0.17894938640306426"><ele>289.5</ele><time>2026-04-28T16:55:20Z</time></trkpt><trkpt lat="43.25328764530587" lon="-0.17903408870655194"><ele>289.0</ele><time>2026-04-28T16:55:21Z</time></trkpt><trkpt lat="43.25337644929365" lon="-0.17912491421452956"><ele>288.5</ele><time>2026-04-28T16:55:22Z</time></trkpt><trkpt lat="43.253474070414086" lon="-0.17921509844906955"><ele>288.0</ele><time>2026-04-28T16:55:23Z</time></trkpt><trkpt lat="43.253561548067026" lon="-0.1793143373250551"><ele>288.0</ele><time>2026-04-28T16:55:24Z</time></trkpt><trkpt lat="43.25365470976348" lon="-0.17940148241615475"><ele>288.0</ele><time>2026-04-28T16:55:25Z</time></trkpt><trkpt lat="43.253743122037626" lon="-0.1794928237396243"><ele>288.0</ele><time>2026-04-28T16:55:26Z</time></trkpt><trkpt lat="43.25383609236643" lon="-0.1795787701717629"><ele>288.0</ele><time>2026-04-28T16:55:27Z</time></trkpt><trkpt lat="43.253926481974936" lon="-0.17967282868668116"><ele>288.0</ele><time>2026-04-28T16:55:28Z</time></trkpt><trkpt lat="43.254105867742176" lon="-0.17985176474793196"><ele>288.2</ele><time>2026-04-28T16:55:30Z</time></trkpt><trkpt lat="43.25419848558639" lon="-0.17993562519697143"><ele>288.4</ele><time>2026-04-28T16:55:31Z</time></trkpt><trkpt lat="43.25428902325061" lon="-0.1800206273487304"><ele>288.59999999999997</ele><time>2026-04-28T16:55:32Z</time></trkpt><trkpt lat="43.254379778977466" lon="-0.18010597095260877"><ele>288.8</ele><time>2026-04-28T16:55:33Z</time></trkpt><trkpt lat="43.25447446099149" lon="-0.180188839882592"><ele>289.0</ele><time>2026-04-28T16:55:34Z</time></trkpt><trkpt lat="43.25456795374594" lon="-0.18027115399037444"><ele>289.0</ele><time>2026-04-28T16:55:35Z</time></trkpt><trkpt lat="43.25466268331169" lon="-0.1803530137906471"><ele>289.0</ele><time>2026-04-28T16:55:36Z</time></trkpt><trkpt lat="43.25475596226268" lon="-0.1804390902165661"><ele>289.0</ele><time>2026-04-28T16:55:37Z</time></trkpt><trkpt lat="43.254850952379144" lon="-0.18052464918174194"><ele>289.0</ele><time>2026-04-28T16:55:38Z</time></trkpt><trkpt lat="43.25494478786653" lon="-0.18061583258955013"><ele>288.8</ele><time>2026-04-28T16:55:39Z</time></trkpt><trkpt lat="43.255034077707066" lon="-0.1807089978714869"><ele>288.59999999999997</ele><time>2026-04-28T16:55:40Z</time></trkpt><trkpt lat="43.255117529088245" lon="-0.18080579272350528"><ele>288.4</ele><time>2026-04-28T16:55:41Z</time></trkpt><trkpt lat="43.25520345597466" lon="-0.18090380914096613"><ele>288.2</ele><time>2026-04-28T16:55:42Z</time></trkpt><trkpt lat="43.25528541155316" lon="-0.18100438065546365"><ele>288.0</ele><time>2026-04-28T16:55:43Z</time></trkpt><trkpt lat="43.25536537280098" lon="-0.18110335693181384"><ele>288.0</ele><time>2026-04-28T16:55:44Z</time></trkpt><trkpt lat="43.25544406087244" lon="-0.18119830210673854"><ele>288.0</ele><time>2026-04-28T16:55:45Z</time></trkpt><trkpt lat="43.25551617066558" lon="-0.18129236770667362"><ele>288.0</ele><time>2026-04-28T16:55:46Z</time></trkpt><trkpt lat="43.25557687917449" lon="-0.1813889315852798"><ele>288.0</ele><time>2026-04-28T16:55:47Z</time></trkpt><trkpt lat="43.25563570567871" lon="-0.1814890939450997"><ele>288.0</ele><time>2026-04-28T16:55:48Z</time></trkpt><trkpt lat="43.25567185089529" lon="-0.18162476648677403"><ele>288.2</ele><time>2026-04-28T16:55:49Z</time></trkpt><trkpt lat="43.25569022191341" lon="-0.18176860239954584"><ele>288.4</ele><time>2026-04-28T16:55:50Z</time></trkpt><trkpt lat="43.25569010660541" lon="-0.1819132876672254"><ele>288.59999999999997</ele><time>2026-04-28T16:55:51Z</time></trkpt><trkpt lat="43.2557031592727" lon="-0.1820552810565222"><ele>288.8</ele><time>2026-04-28T16:55:52Z</time></trkpt><trkpt lat="43.25571591644848" lon="-0.18219846189080577"><ele>289.0</ele><time>2026-04-28T16:55:53Z</time></trkpt><trkpt lat="43.255731042779296" lon="-0.1823425597221058"><ele>288.8</ele><time>2026-04-28T16:55:54Z</time></trkpt><trkpt lat="43.25574206301093" lon="-0.18249014614639997"><ele>288.59999999999997</ele><time>2026-04-28T16:55:55Z</time></trkpt><trkpt lat="43.25575434323768" lon="-0.18262539021160498"><ele>288.4</ele><time>2026-04-28T16:55:56Z</time></trkpt><trkpt lat="43.255765052015164" lon="-0.18276054078151432"><ele>288.2</ele><time>2026-04-28T16:55:57Z</time></trkpt><trkpt lat="43.25578139881374" lon="-0.182889723434903"><ele>288.0</ele><time>2026-04-28T16:55:58Z</time></trkpt><trkpt lat="43.25578940860406" lon="-0.18301366355370716"><ele>288.0</ele><time>2026-04-28T16:55:59Z</time></trkpt><trkpt lat="43.25579639115146" lon="-0.18312930727916268"><ele>288.0</ele><time>2026-04-28T16:56:00Z</time></trkpt><trkpt lat="43.25581440230298" lon="-0.18323521055067457"><ele>288.0</ele><time>2026-04-28T16:56:01Z</time></trkpt><trkpt lat="43.25582165228071" lon="-0.18332612722134678"><ele>288.0</ele><time>2026-04-28T16:56:02Z</time></trkpt><trkpt lat="43.25591928067916" lon="-0.18338360912707238"><ele>288.0</ele><time>2026-04-28T16:56:03Z</time></trkpt><trkpt lat="43.255980453813784" lon="-0.18347840926029815"><ele>288.0</ele><time>2026-04-28T16:56:04Z</time></trkpt><trkpt lat="43.25604344839591" lon="-0.18357603211068607"><ele>287.8</ele><time>2026-04-28T16:56:05Z</time></trkpt><trkpt lat="43.25610366160442" lon="-0.18366934471390295"><ele>287.6</ele><time>2026-04-28T16:56:06Z</time></trkpt><trkpt lat="43.256167183745504" lon="-0.1837698288770609"><ele>287.4</ele><time>2026-04-28T16:56:07Z</time></trkpt><trkpt lat="43.25623173302625" lon="-0.18387270267206113"><ele>287.2</ele><time>2026-04-28T16:56:08Z</time></trkpt><trkpt lat="43.256296299389525" lon="-0.18397560377539277"><ele>287.0</ele><time>2026-04-28T16:56:09Z</time></trkpt><trkpt lat="43.25636357577489" lon="-0.18408282382898286"><ele>287.0</ele><time>2026-04-28T16:56:10Z</time></trkpt><trkpt lat="43.25642870325568" lon="-0.18418913181470284"><ele>287.0</ele><time>2026-04-28T16:56:11Z</time></trkpt><trkpt lat="43.256483704657114" lon="-0.18430670373779712"><ele>287.0</ele><time>2026-04-28T16:56:12Z</time></trkpt><trkpt lat="43.25654912297238" lon="-0.18441228204394763"><ele>287.0</ele><time>2026-04-28T16:56:13Z</time></trkpt><trkpt lat="43.25661076290439" lon="-0.18452591229458207"><ele>287.0</ele><time>2026-04-28T16:56:14Z</time></trkpt><trkpt lat="43.256683263167886" lon="-0.18462776140436887"><ele>287.0</ele><time>2026-04-28T16:56:15Z</time></trkpt><trkpt lat="43.25674938627506" lon="-0.18474317401267412"><ele>287.0</ele><time>2026-04-28T16:56:16Z</time></trkpt><trkpt lat="43.256812667763924" lon="-0.184853765066897"><ele>287.0</ele><time>2026-04-28T16:56:17Z</time></trkpt><trkpt lat="43.25687611746572" lon="-0.18496632966622326"><ele>287.0</ele><time>2026-04-28T16:56:18Z</time></trkpt><trkpt lat="43.25693322084256" lon="-0.1850705581482106"><ele>287.0</ele><time>2026-04-28T16:56:19Z</time></trkpt><trkpt lat="43.2569782551707" lon="-0.1851842968902761"><ele>286.8</ele><time>2026-04-28T16:56:20Z</time></trkpt><trkpt lat="43.257040534267425" lon="-0.18528029862362086"><ele>286.6</ele><time>2026-04-28T16:56:21Z</time></trkpt><trkpt lat="43.2570960284609" lon="-0.1853774276877945"><ele>286.40000000000003</ele><time>2026-04-28T16:56:22Z</time></trkpt><trkpt lat="43.257151656292564" lon="-0.18547868951721885"><ele>286.2</ele><time>2026-04-28T16:56:23Z</time></trkpt><trkpt lat="43.25720900512577" lon="-0.18557682274685924"><ele>286.0</ele><time>2026-04-28T16:56:24Z</time></trkpt><trkpt lat="43.257271786564445" lon="-0.1856561970537218"><ele>286.16666666666663</ele><time>2026-04-28T16:56:25Z</time></trkpt><trkpt lat="43.25732788033398" lon="-0.18573445288943613"><ele>286.3333333333333</ele><time>2026-04-28T16:56:26Z</time></trkpt><trkpt lat="43.25737649125413" lon="-0.18581962341035288"><ele>286.5</ele><time>2026-04-28T16:56:27Z</time></trkpt><trkpt lat="43.25744771369638" lon="-0.18585315622020107"><ele>286.6666666666667</ele><time>2026-04-28T16:56:28Z</time></trkpt><trkpt lat="43.25751465362653" lon="-0.1859019312041748"><ele>286.83333333333337</ele><time>2026-04-28T16:56:29Z</time></trkpt><trkpt lat="43.25758556310919" lon="-0.18595032124694577"><ele>287.0</ele><time>2026-04-28T16:56:30.001Z</time></trkpt><trkpt lat="43.257657987392875" lon="-0.18600006794191268"><ele>287.0</ele><time>2026-04-28T16:56:31.001Z</time></trkpt><trkpt lat="43.257734652675495" lon="-0.1860539783643533"><ele>287.0</ele><time>2026-04-28T16:56:32.001Z</time></trkpt><trkpt lat="43.25781134915949" lon="-0.18611323141996322"><ele>287.0</ele><time>2026-04-28T16:56:33.001Z</time></trkpt><trkpt lat="43.25789337777133" lon="-0.18619138507056945"><ele>287.0</ele><time>2026-04-28T16:56:34.001Z</time></trkpt><trkpt lat="43.257967860189574" lon="-0.18627220227589847"><ele>287.0</ele><time>2026-04-28T16:56:35.001Z</time></trkpt><trkpt lat="43.25804164200351" lon="-0.18635589658024707"><ele>287.0</ele><time>2026-04-28T16:56:36.001Z</time></trkpt><trkpt lat="43.25810686501601" lon="-0.18645590182572302"><ele>287.0</ele><time>2026-04-28T16:56:37.001Z</time></trkpt><trkpt lat="43.25818791780234" lon="-0.18653114948443297"><ele>287.0</ele><time>2026-04-28T16:56:38.001Z</time></trkpt><trkpt lat="43.25826621775797" lon="-0.18661248352884738"><ele>287.0</ele><time>2026-04-28T16:56:39.001Z</time></trkpt><trkpt lat="43.258349560246664" lon="-0.18669697136178054"><ele>287.0</ele><time>2026-04-28T16:56:40.001Z</time></trkpt><trkpt lat="43.258431292457296" lon="-0.18678001467135458"><ele>286.4</ele><time>2026-04-28T16:56:41.001Z</time></trkpt><trkpt lat="43.25851355219966" lon="-0.18686419880297048"><ele>285.79999999999995</ele><time>2026-04-28T16:56:42.001Z</time></trkpt><trkpt lat="43.258598099570975" lon="-0.18694838499475724"><ele>285.2</ele><time>2026-04-28T16:56:43.001Z</time></trkpt><trkpt lat="43.258674825014296" lon="-0.18703987518155854"><ele>284.59999999999997</ele><time>2026-04-28T16:56:44.001Z</time></trkpt><trkpt lat="43.258755941790476" lon="-0.18713203125110073"><ele>284.0</ele><time>2026-04-28T16:56:45.001Z</time></trkpt><trkpt lat="43.2588339448124" lon="-0.18722384435267264"><ele>284.0</ele><time>2026-04-28T16:56:46.001Z</time></trkpt><trkpt lat="43.258912455573736" lon="-0.1873189214996742"><ele>284.0</ele><time>2026-04-28T16:56:47.001Z</time></trkpt><trkpt lat="43.25899224952782" lon="-0.1874158617451164"><ele>284.0</ele><time>2026-04-28T16:56:48.001Z</time></trkpt><trkpt lat="43.259069484839614" lon="-0.1875155322841261"><ele>284.0</ele><time>2026-04-28T16:56:49.001Z</time></trkpt><trkpt lat="43.25914676993092" lon="-0.18761486328307161"><ele>284.0</ele><time>2026-04-28T16:56:50.001Z</time></trkpt><trkpt lat="43.25922255916176" lon="-0.18771725798235653"><ele>283.8</ele><time>2026-04-28T16:56:51.001Z</time></trkpt><trkpt lat="43.259298503354394" lon="-0.18781230013122102"><ele>283.59999999999997</ele><time>2026-04-28T16:56:52.001Z</time></trkpt><trkpt lat="43.25937925385429" lon="-0.18790930596595656"><ele>283.4</ele><time>2026-04-28T16:56:53.001Z</time></trkpt><trkpt lat="43.25945257922983" lon="-0.188009579934885"><ele>283.2</ele><time>2026-04-28T16:56:54.001Z</time></trkpt><trkpt lat="43.25952872415947" lon="-0.18810916323210472"><ele>283.0</ele><time>2026-04-28T16:56:55.001Z</time></trkpt><trkpt lat="43.259598062177425" lon="-0.18821380333057164"><ele>283.0</ele><time>2026-04-28T16:56:56.001Z</time></trkpt><trkpt lat="43.259655104631975" lon="-0.1883381086555237"><ele>283.0</ele><time>2026-04-28T16:56:57.001Z</time></trkpt><trkpt lat="43.25971014800391" lon="-0.18845821825421497"><ele>283.0</ele><time>2026-04-28T16:56:58.001Z</time></trkpt><trkpt lat="43.25976443634277" lon="-0.1885790804801014"><ele>283.0</ele><time>2026-04-28T16:56:59.001Z</time></trkpt><trkpt lat="43.25983410662891" lon="-0.18868483236704184"><ele>283.0</ele><time>2026-04-28T16:57:00.001Z</time></trkpt><trkpt lat="43.25988740716865" lon="-0.1887995620898039"><ele>283.2</ele><time>2026-04-28T16:57:01.001Z</time></trkpt><trkpt lat="43.25994314286384" lon="-0.18891953345141246"><ele>283.4</ele><time>2026-04-28T16:57:02.001Z</time></trkpt><trkpt lat="43.260000510829805" lon="-0.1890410014047385"><ele>283.59999999999997</ele><time>2026-04-28T16:57:03.001Z</time></trkpt><trkpt lat="43.26004727207112" lon="-0.1891671148938243"><ele>283.8</ele><time>2026-04-28T16:57:04.001Z</time></trkpt><trkpt lat="43.26011415992112" lon="-0.18927955616678172"><ele>284.0</ele><time>2026-04-28T16:57:05.001Z</time></trkpt><trkpt lat="43.26016692277621" lon="-0.18940459177405475"><ele>284.0</ele><time>2026-04-28T16:57:06Z</time></trkpt><trkpt lat="43.26022159345485" lon="-0.18953255301712635"><ele>284.0</ele><time>2026-04-28T16:57:07Z</time></trkpt><trkpt lat="43.26028474537769" lon="-0.18965411455400252"><ele>284.0</ele><time>2026-04-28T16:57:08Z</time></trkpt><trkpt lat="43.26035541246751" lon="-0.18976956111307622"><ele>284.0</ele><time>2026-04-28T16:57:09Z</time></trkpt><trkpt lat="43.26043235823199" lon="-0.189876276407742"><ele>284.0</ele><time>2026-04-28T16:57:10Z</time></trkpt><trkpt lat="43.26051111736591" lon="-0.18998025354709835"><ele>283.8</ele><time>2026-04-28T16:57:11Z</time></trkpt><trkpt lat="43.26058445674746" lon="-0.19008781534463692"><ele>283.59999999999997</ele><time>2026-04-28T16:57:12Z</time></trkpt><trkpt lat="43.260654340873586" lon="-0.19018752001949166"><ele>283.4</ele><time>2026-04-28T16:57:13Z</time></trkpt><trkpt lat="43.260727113679124" lon="-0.19027581719917253"><ele>283.2</ele><time>2026-04-28T16:57:14Z</time></trkpt><trkpt lat="43.260799025838395" lon="-0.190351071714456"><ele>283.0</ele><time>2026-04-28T16:57:15Z</time></trkpt><trkpt lat="43.26087107960126" lon="-0.19041277824608643"><ele>283.0</ele><time>2026-04-28T16:57:16Z</time></trkpt><trkpt lat="43.260944487964494" lon="-0.1904546944991215"><ele>283.0</ele><time>2026-04-28T16:57:17Z</time></trkpt><trkpt lat="43.261002806711446" lon="-0.19050166708565877"><ele>283.0</ele><time>2026-04-28T16:57:18Z</time></trkpt><trkpt lat="43.26108359906522" lon="-0.19066765784962939"><ele>283.0</ele><time>2026-04-28T16:57:20Z</time></trkpt><trkpt lat="43.261121437907555" lon="-0.1907758418831697"><ele>283.0</ele><time>2026-04-28T16:57:21Z</time></trkpt><trkpt lat="43.26117144810759" lon="-0.19087872950498885"><ele>283.0</ele><time>2026-04-28T16:57:22Z</time></trkpt><trkpt lat="43.261231955697085" lon="-0.19097143677413103"><ele>283.0</ele><time>2026-04-28T16:57:23Z</time></trkpt><trkpt lat="43.261294100467055" lon="-0.19106262217617875"><ele>283.0</ele><time>2026-04-28T16:57:24Z</time></trkpt><trkpt lat="43.26134998871513" lon="-0.19114779630089637"><ele>283.0</ele><time>2026-04-28T16:57:25Z</time></trkpt><trkpt lat="43.26140307339006" lon="-0.19122476952378767"><ele>283.0</ele><time>2026-04-28T16:57:26Z</time></trkpt><trkpt lat="43.261448278218516" lon="-0.19130048425020915"><ele>283.0</ele><time>2026-04-28T16:57:27Z</time></trkpt><trkpt lat="43.261495860137906" lon="-0.1913715594069307"><ele>282.8571428571429</ele><time>2026-04-28T16:57:28Z</time></trkpt><trkpt lat="43.26154396578889" lon="-0.19144121124179453"><ele>282.7142857142857</ele><time>2026-04-28T16:57:29Z</time></trkpt><trkpt lat="43.261595777006896" lon="-0.19151016010430985"><ele>282.57142857142856</ele><time>2026-04-28T16:57:30Z</time></trkpt><trkpt lat="43.2616453429289" lon="-0.19157591630048948"><ele>282.42857142857144</ele><time>2026-04-28T16:57:31Z</time></trkpt><trkpt lat="43.26169392964017" lon="-0.19163724008596378"><ele>282.2857142857143</ele><time>2026-04-28T16:57:32Z</time></trkpt><trkpt lat="43.26173710741517" lon="-0.1917098888538077"><ele>282.14285714285717</ele><time>2026-04-28T16:57:33Z</time></trkpt><trkpt lat="43.26178334016052" lon="-0.19178374877997076"><ele>282.0</ele><time>2026-04-28T16:57:34Z</time></trkpt><trkpt lat="43.26182059884073" lon="-0.19185707182493744"><ele>281.8333333333333</ele><time>2026-04-28T16:57:35Z</time></trkpt><trkpt lat="43.26184200049067" lon="-0.19194707209001652"><ele>281.6666666666667</ele><time>2026-04-28T16:57:36Z</time></trkpt><trkpt lat="43.261839684416785" lon="-0.19204054592364014"><ele>281.5</ele><time>2026-04-28T16:57:37Z</time></trkpt><trkpt lat="43.261836952020225" lon="-0.19222600315855484"><ele>281.33333333333337</ele><time>2026-04-28T16:57:39Z</time></trkpt><trkpt lat="43.261828597075166" lon="-0.19233077604377088"><ele>281.1666666666667</ele><time>2026-04-28T16:57:40Z</time></trkpt><trkpt lat="43.26182174344833" lon="-0.19244441453836955"><ele>281.0</ele><time>2026-04-28T16:57:41Z</time></trkpt><trkpt lat="43.261815746345974" lon="-0.19255863537208523"><ele>280.83333333333337</ele><time>2026-04-28T16:57:42Z</time></trkpt><trkpt lat="43.26181099247552" lon="-0.19267669701499318"><ele>280.6666666666667</ele><time>2026-04-28T16:57:43Z</time></trkpt><trkpt lat="43.261807115937806" lon="-0.1927986055166388"><ele>280.5</ele><time>2026-04-28T16:57:44Z</time></trkpt><trkpt lat="43.261803471786706" lon="-0.1929128033877858"><ele>280.3333333333333</ele><time>2026-04-28T16:57:45Z</time></trkpt><trkpt lat="43.261796067172604" lon="-0.19301943307256392"><ele>280.16666666666663</ele><time>2026-04-28T16:57:46Z</time></trkpt><trkpt lat="43.26179060528033" lon="-0.1931238818550539"><ele>280.0</ele><time>2026-04-28T16:57:47Z</time></trkpt><trkpt lat="43.26179187574221" lon="-0.193222068940882"><ele>280.0</ele><time>2026-04-28T16:57:48Z</time></trkpt><trkpt lat="43.26180315868162" lon="-0.19331469939815474"><ele>280.0</ele><time>2026-04-28T16:57:49Z</time></trkpt><trkpt lat="43.261851057868554" lon="-0.1933934191984298"><ele>280.0</ele><time>2026-04-28T16:57:50Z</time></trkpt><trkpt lat="43.26191683724217" lon="-0.193447384330917"><ele>280.0</ele><time>2026-04-28T16:57:51Z</time></trkpt><trkpt lat="43.261993947012094" lon="-0.19347968207505448"><ele>280.0</ele><time>2026-04-28T16:57:52Z</time></trkpt><trkpt lat="43.262069937315964" lon="-0.1935107702230751"><ele>280.0</ele><time>2026-04-28T16:57:53Z</time></trkpt><trkpt lat="43.262153391592925" lon="-0.19354641178271012"><ele>280.0</ele><time>2026-04-28T16:57:54Z</time></trkpt><trkpt lat="43.262230060460276" lon="-0.19360232909601105"><ele>280.0</ele><time>2026-04-28T16:57:55Z</time></trkpt><trkpt lat="43.262298854951496" lon="-0.19367929139191467"><ele>280.0</ele><time>2026-04-28T16:57:56Z</time></trkpt><trkpt lat="43.262362834803696" lon="-0.19377111834522973"><ele>280.0</ele><time>2026-04-28T16:57:57Z</time></trkpt><trkpt lat="43.26242512773725" lon="-0.19386966453728255"><ele>280.0</ele><time>2026-04-28T16:57:58Z</time></trkpt><trkpt lat="43.262490215022346" lon="-0.19396804494810355"><ele>279.8</ele><time>2026-04-28T16:57:59Z</time></trkpt><trkpt lat="43.262552124288696" lon="-0.19407012215006275"><ele>279.6</ele><time>2026-04-28T16:58:00Z</time></trkpt><trkpt lat="43.26261736236197" lon="-0.19417327248321298"><ele>279.4</ele><time>2026-04-28T16:58:01Z</time></trkpt><trkpt lat="43.262680329832286" lon="-0.19427981693279467"><ele>279.2</ele><time>2026-04-28T16:58:02Z</time></trkpt><trkpt lat="43.2627441033792" lon="-0.19438624948494074"><ele>279.0</ele><time>2026-04-28T16:58:03Z</time></trkpt><trkpt lat="43.262807230473165" lon="-0.1944964549266606"><ele>279.0</ele><time>2026-04-28T16:58:04Z</time></trkpt><trkpt lat="43.26287189069717" lon="-0.19460456068854315"><ele>279.0</ele><time>2026-04-28T16:58:05Z</time></trkpt><trkpt lat="43.26293814919497" lon="-0.19471393586846764"><ele>279.0</ele><time>2026-04-28T16:58:06Z</time></trkpt><trkpt lat="43.26300081522542" lon="-0.19481999859917704"><ele>279.0</ele><time>2026-04-28T16:58:07Z</time></trkpt><trkpt lat="43.2630643120597" lon="-0.19493470234657181"><ele>279.0</ele><time>2026-04-28T16:58:08Z</time></trkpt><trkpt lat="43.26313162272707" lon="-0.19503846313198245"><ele>279.0</ele><time>2026-04-28T16:58:09Z</time></trkpt><trkpt lat="43.26319782094233" lon="-0.1951505666552242"><ele>279.0</ele><time>2026-04-28T16:58:10Z</time></trkpt><trkpt lat="43.26325994988701" lon="-0.1952641917875461"><ele>279.0</ele><time>2026-04-28T16:58:11Z</time></trkpt><trkpt lat="43.263325666742304" lon="-0.19537765785808164"><ele>279.0</ele><time>2026-04-28T16:58:12Z</time></trkpt><trkpt lat="43.263389881779226" lon="-0.19548659907950788"><ele>279.0</ele><time>2026-04-28T16:58:13Z</time></trkpt><trkpt lat="43.26345268901054" lon="-0.19559642091885018"><ele>278.8</ele><time>2026-04-28T16:58:14Z</time></trkpt><trkpt lat="43.26351004610628" lon="-0.19571092170268992"><ele>278.59999999999997</ele><time>2026-04-28T16:58:15Z</time></trkpt><trkpt lat="43.263553300965924" lon="-0.19583149283220497"><ele>278.4</ele><time>2026-04-28T16:58:16Z</time></trkpt><trkpt lat="43.2635964310969" lon="-0.19596063181770226"><ele>278.2</ele><time>2026-04-28T16:58:17Z</time></trkpt><trkpt lat="43.26363017944723" lon="-0.19608950146984758"><ele>278.0</ele><time>2026-04-28T16:58:18Z</time></trkpt><trkpt lat="43.263660116297565" lon="-0.1962269475728199"><ele>278.0</ele><time>2026-04-28T16:58:19Z</time></trkpt><trkpt lat="43.26369451048173" lon="-0.19636057158135659"><ele>278.0</ele><time>2026-04-28T16:58:20Z</time></trkpt><trkpt lat="43.26372694115915" lon="-0.19649441316704944"><ele>278.0</ele><time>2026-04-28T16:58:21Z</time></trkpt><trkpt lat="43.26376455547533" lon="-0.19662001693310371"><ele>278.0</ele><time>2026-04-28T16:58:22Z</time></trkpt><trkpt lat="43.26380128152825" lon="-0.1967640193262199"><ele>278.0</ele><time>2026-04-28T16:58:23.001Z</time></trkpt><trkpt lat="43.263817425108805" lon="-0.1968967224343994"><ele>277.8</ele><time>2026-04-28T16:58:24.001Z</time></trkpt><trkpt lat="43.26383181152877" lon="-0.19703800866615567"><ele>277.6</ele><time>2026-04-28T16:58:25.001Z</time></trkpt><trkpt lat="43.26383308159087" lon="-0.19718448988955542"><ele>277.4</ele><time>2026-04-28T16:58:26.001Z</time></trkpt><trkpt lat="43.26383878120937" lon="-0.19732815097681713"><ele>277.2</ele><time>2026-04-28T16:58:27.001Z</time></trkpt><trkpt lat="43.26383847145601" lon="-0.19747037903962725"><ele>277.0</ele><time>2026-04-28T16:58:28.001Z</time></trkpt><trkpt lat="43.26384539406827" lon="-0.19760552552842853"><ele>277.0</ele><time>2026-04-28T16:58:29.001Z</time></trkpt><trkpt lat="43.26384693139269" lon="-0.1977359737124442"><ele>277.0</ele><time>2026-04-28T16:58:30.001Z</time></trkpt><trkpt lat="43.26385266803485" lon="-0.19786100097573334"><ele>277.0</ele><time>2026-04-28T16:58:31.001Z</time></trkpt><trkpt lat="43.26385908153785" lon="-0.1979738339983337"><ele>277.0</ele><time>2026-04-28T16:58:32.001Z</time></trkpt><trkpt lat="43.26385855920625" lon="-0.19808484965802306"><ele>277.0</ele><time>2026-04-28T16:58:33.001Z</time></trkpt><trkpt lat="43.26386161857637" lon="-0.19819078987212968"><ele>277.0</ele><time>2026-04-28T16:58:34.001Z</time></trkpt><trkpt lat="43.263865071103304" lon="-0.19829711984599208"><ele>277.0</ele><time>2026-04-28T16:58:35.001Z</time></trkpt><trkpt lat="43.263871787597395" lon="-0.1983966264692577"><ele>277.0</ele><time>2026-04-28T16:58:36.001Z</time></trkpt><trkpt lat="43.26387428074755" lon="-0.19849375404698702"><ele>277.0</ele><time>2026-04-28T16:58:37.001Z</time></trkpt><trkpt lat="43.263926276196365" lon="-0.1986505870420433"><ele>277.0</ele><time>2026-04-28T16:58:39.001Z</time></trkpt><trkpt lat="43.264043875622356" lon="-0.19869004404001542"><ele>277.0</ele><time>2026-04-28T16:58:41.001Z</time></trkpt><trkpt lat="43.26410804410965" lon="-0.1987299891037436"><ele>277.16666666666663</ele><time>2026-04-28T16:58:42.001Z</time></trkpt><trkpt lat="43.26418625322122" lon="-0.19873549460297132"><ele>277.3333333333333</ele><time>2026-04-28T16:58:43.001Z</time></trkpt><trkpt lat="43.26426263480471" lon="-0.19875574356156545"><ele>277.5</ele><time>2026-04-28T16:58:44.001Z</time></trkpt><trkpt lat="43.26433928460123" lon="-0.19877933775699366"><ele>277.6666666666667</ele><time>2026-04-28T16:58:45.001Z</time></trkpt><trkpt lat="43.264410652802994" lon="-0.1988011067984764"><ele>277.83333333333337</ele><time>2026-04-28T16:58:46.001Z</time></trkpt><trkpt lat="43.264478043064415" lon="-0.1988506411799534"><ele>278.0</ele><time>2026-04-28T16:58:47.001Z</time></trkpt><trkpt lat="43.2645509847386" lon="-0.1988842920966523"><ele>277.85714285714283</ele><time>2026-04-28T16:58:48.001Z</time></trkpt><trkpt lat="43.26458292587256" lon="-0.1990065361409067"><ele>277.7142857142857</ele><time>2026-04-28T16:58:49.001Z</time></trkpt><trkpt lat="43.26462327526523" lon="-0.199086169638184"><ele>277.57142857142856</ele><time>2026-04-28T16:58:50.001Z</time></trkpt><trkpt lat="43.264670362967884" lon="-0.19915621356993332"><ele>277.42857142857144</ele><time>2026-04-28T16:58:51.001Z</time></trkpt><trkpt lat="43.264724299431" lon="-0.19920608937271916"><ele>277.2857142857143</ele><time>2026-04-28T16:58:52.001Z</time></trkpt><trkpt lat="43.26477943117204" lon="-0.199248846847841"><ele>277.1428571428571</ele><time>2026-04-28T16:58:53.001Z</time></trkpt><trkpt lat="43.264824719034536" lon="-0.1993199725243128"><ele>277.0</ele><time>2026-04-28T16:58:54.001Z</time></trkpt><trkpt lat="43.264859557374606" lon="-0.1994146770430857"><ele>277.0</ele><time>2026-04-28T16:58:55.001Z</time></trkpt><trkpt lat="43.264884375090716" lon="-0.19951652558588953"><ele>277.0</ele><time>2026-04-28T16:58:56.001Z</time></trkpt><trkpt lat="43.26491518897936" lon="-0.19962584974953823"><ele>277.0</ele><time>2026-04-28T16:58:57.001Z</time></trkpt><trkpt lat="43.264942709884664" lon="-0.19974006724291923"><ele>277.0</ele><time>2026-04-28T16:58:58.001Z</time></trkpt><trkpt lat="43.26496904897759" lon="-0.19985873329555176"><ele>277.0</ele><time>2026-04-28T16:58:59.001Z</time></trkpt><trkpt lat="43.26498591392148" lon="-0.1999873331752076"><ele>277.0</ele><time>2026-04-28T16:59:00.001Z</time></trkpt><trkpt lat="43.265002042803616" lon="-0.2001133870305597"><ele>276.8</ele><time>2026-04-28T16:59:01.001Z</time></trkpt><trkpt lat="43.26501580400534" lon="-0.20024890460273584"><ele>276.6</ele><time>2026-04-28T16:59:02.001Z</time></trkpt><trkpt lat="43.265038818154736" lon="-0.20038003096213675"><ele>276.40000000000003</ele><time>2026-04-28T16:59:03.001Z</time></trkpt><trkpt lat="43.26506792169888" lon="-0.20051220402638478"><ele>276.2</ele><time>2026-04-28T16:59:04.001Z</time></trkpt><trkpt lat="43.265091253600936" lon="-0.2006440835189139"><ele>276.0</ele><time>2026-04-28T16:59:05.001Z</time></trkpt><trkpt lat="43.265121200789444" lon="-0.20078421027592738"><ele>276.0</ele><time>2026-04-28T16:59:06.001Z</time></trkpt><trkpt lat="43.26514679026997" lon="-0.20092454805532084"><ele>276.0</ele><time>2026-04-28T16:59:07.001Z</time></trkpt><trkpt lat="43.26516880850505" lon="-0.2010676261056784"><ele>276.0</ele><time>2026-04-28T16:59:08.001Z</time></trkpt><trkpt lat="43.26518386926059" lon="-0.201206469275609"><ele>276.0</ele><time>2026-04-28T16:59:09.001Z</time></trkpt><trkpt lat="43.26518958754903" lon="-0.2013566503201413"><ele>276.0</ele><time>2026-04-28T16:59:10.001Z</time></trkpt><trkpt lat="43.26519091606869" lon="-0.20149503570068938"><ele>275.8</ele><time>2026-04-28T16:59:11.001Z</time></trkpt><trkpt lat="43.2651880565804" lon="-0.20164209621383064"><ele>275.6</ele><time>2026-04-28T16:59:12Z</time></trkpt><trkpt lat="43.26518287899383" lon="-0.20178530803595884"><ele>275.4</ele><time>2026-04-28T16:59:13Z</time></trkpt><trkpt lat="43.26519556376199" lon="-0.20193311964686864"><ele>275.2</ele><time>2026-04-28T16:59:14Z</time></trkpt><trkpt lat="43.265177249974606" lon="-0.2020827545857823"><ele>275.0</ele><time>2026-04-28T16:59:15Z</time></trkpt><trkpt lat="43.26517936169705" lon="-0.20222856142842843"><ele>274.6</ele><time>2026-04-28T16:59:16Z</time></trkpt><trkpt lat="43.26519452449381" lon="-0.2023740919082751"><ele>274.2</ele><time>2026-04-28T16:59:17Z</time></trkpt><trkpt lat="43.26518734518387" lon="-0.2025245191312902"><ele>273.8</ele><time>2026-04-28T16:59:18Z</time></trkpt><trkpt lat="43.265207475939704" lon="-0.2026679852783438"><ele>273.4</ele><time>2026-04-28T16:59:19Z</time></trkpt><trkpt lat="43.26523114544065" lon="-0.20281140678658732"><ele>273.0</ele><time>2026-04-28T16:59:20Z</time></trkpt><trkpt lat="43.265262797341556" lon="-0.20294965247619035"><ele>273.0</ele><time>2026-04-28T16:59:21Z</time></trkpt><trkpt lat="43.265294235856665" lon="-0.20308880982758584"><ele>273.0</ele><time>2026-04-28T16:59:22Z</time></trkpt><trkpt lat="43.26532899543156" lon="-0.20322728786125915"><ele>273.0</ele><time>2026-04-28T16:59:23Z</time></trkpt><trkpt lat="43.265359570703076" lon="-0.20337162736333567"><ele>273.0</ele><time>2026-04-28T16:59:24Z</time></trkpt><trkpt lat="43.26539449094698" lon="-0.2035105600956732"><ele>273.0</ele><time>2026-04-28T16:59:25Z</time></trkpt><trkpt lat="43.265424164238524" lon="-0.2036545181326478"><ele>272.8</ele><time>2026-04-28T16:59:26Z</time></trkpt><trkpt lat="43.26547313961372" lon="-0.20379034691163128"><ele>272.6</ele><time>2026-04-28T16:59:27Z</time></trkpt><trkpt lat="43.26549375327322" lon="-0.20394036828531417"><ele>272.4</ele><time>2026-04-28T16:59:28Z</time></trkpt><trkpt lat="43.2655273254438" lon="-0.2040887374490033"><ele>272.2</ele><time>2026-04-28T16:59:29Z</time></trkpt><trkpt lat="43.265562559175606" lon="-0.20423667928751077"><ele>272.0</ele><time>2026-04-28T16:59:30Z</time></trkpt><trkpt lat="43.265596918882096" lon="-0.20438160533511154"><ele>271.8</ele><time>2026-04-28T16:59:31Z</time></trkpt><trkpt lat="43.26563242418536" lon="-0.20452602302833567"><ele>271.6</ele><time>2026-04-28T16:59:32Z</time></trkpt><trkpt lat="43.26566480901512" lon="-0.20466675119595096"><ele>271.40000000000003</ele><time>2026-04-28T16:59:33Z</time></trkpt><trkpt lat="43.26571263512155" lon="-0.20480205439594965"><ele>271.2</ele><time>2026-04-28T16:59:34Z</time></trkpt><trkpt lat="43.26573133351421" lon="-0.20495092160802378"><ele>271.0</ele><time>2026-04-28T16:59:35Z</time></trkpt><trkpt lat="43.265766230739146" lon="-0.20509237377317285"><ele>271.0</ele><time>2026-04-28T16:59:36Z</time></trkpt><trkpt lat="43.26581418043065" lon="-0.20523101499198204"><ele>271.0</ele><time>2026-04-28T16:59:37Z</time></trkpt><trkpt lat="43.26584870604096" lon="-0.20537686247252776"><ele>271.0</ele><time>2026-04-28T16:59:38Z</time></trkpt><trkpt lat="43.26588335842772" lon="-0.20552324547088263"><ele>271.0</ele><time>2026-04-28T16:59:39Z</time></trkpt><trkpt lat="43.265917780408174" lon="-0.20566865554924574"><ele>271.0</ele><time>2026-04-28T16:59:40Z</time></trkpt><trkpt lat="43.26595270632587" lon="-0.20581630778712973"><ele>271.2</ele><time>2026-04-28T16:59:41Z</time></trkpt><trkpt lat="43.26598784335559" lon="-0.2059616508353253"><ele>271.40000000000003</ele><time>2026-04-28T16:59:42Z</time></trkpt><trkpt lat="43.26601136123032" lon="-0.20610957356112186"><ele>271.6</ele><time>2026-04-28T16:59:43Z</time></trkpt><trkpt lat="43.266056751898795" lon="-0.20624508376854683"><ele>271.8</ele><time>2026-04-28T16:59:44Z</time></trkpt><trkpt lat="43.26607965420522" lon="-0.20638916064764729"><ele>272.0</ele><time>2026-04-28T16:59:45Z</time></trkpt><trkpt lat="43.26612212606491" lon="-0.20652639973758138"><ele>272.0</ele><time>2026-04-28T16:59:46Z</time></trkpt><trkpt lat="43.26617721034497" lon="-0.20665472474008578"><ele>272.0</ele><time>2026-04-28T16:59:47Z</time></trkpt><trkpt lat="43.266241560248694" lon="-0.20677636533675126"><ele>272.0</ele><time>2026-04-28T16:59:48Z</time></trkpt><trkpt lat="43.26631730016271" lon="-0.20688885210161187"><ele>272.0</ele><time>2026-04-28T16:59:49Z</time></trkpt><trkpt lat="43.26639903507659" lon="-0.20699122458698335"><ele>272.0</ele><time>2026-04-28T16:59:50Z</time></trkpt><trkpt lat="43.26648343933563" lon="-0.2070919153179578"><ele>272.0</ele><time>2026-04-28T16:59:51Z</time></trkpt><trkpt lat="43.2665649094921" lon="-0.20719948407499555"><ele>272.0</ele><time>2026-04-28T16:59:52Z</time></trkpt><trkpt lat="43.26664372588646" lon="-0.20730686755597608"><ele>272.0</ele><time>2026-04-28T16:59:53Z</time></trkpt><trkpt lat="43.266729019420296" lon="-0.2074097665211992"><ele>272.0</ele><time>2026-04-28T16:59:54Z</time></trkpt><trkpt lat="43.26681361044466" lon="-0.20750684800604643"><ele>272.0</ele><time>2026-04-28T16:59:55Z</time></trkpt><trkpt lat="43.266903383997835" lon="-0.2076000419404552"><ele>272.0</ele><time>2026-04-28T16:59:56Z</time></trkpt><trkpt lat="43.26699244715493" lon="-0.20768022340298467"><ele>272.0</ele><time>2026-04-28T16:59:57Z</time></trkpt><trkpt lat="43.26708334714499" lon="-0.20775056135994915"><ele>272.0</ele><time>2026-04-28T16:59:58Z</time></trkpt><trkpt lat="43.267169037360965" lon="-0.20781544385044395"><ele>272.0</ele><time>2026-04-28T16:59:59Z</time></trkpt><trkpt lat="43.26725069810266" lon="-0.20787889037772783"><ele>272.0</ele><time>2026-04-28T17:00:00Z</time></trkpt><trkpt lat="43.26733728796025" lon="-0.20791833609327257"><ele>272.0</ele><time>2026-04-28T17:00:01Z</time></trkpt><trkpt lat="43.26741315658091" lon="-0.20797533750862582"><ele>272.0</ele><time>2026-04-28T17:00:02Z</time></trkpt><trkpt lat="43.26747645614241" lon="-0.20804929403057007"><ele>272.0</ele><time>2026-04-28T17:00:03Z</time></trkpt><trkpt lat="43.26754943021437" lon="-0.2081048686819375"><ele>272.0</ele><time>2026-04-28T17:00:04Z</time></trkpt><trkpt lat="43.26761863911735" lon="-0.2081709914429241"><ele>272.0</ele><time>2026-04-28T17:00:05Z</time></trkpt><trkpt lat="43.267683377006314" lon="-0.20824450542353093"><ele>272.0</ele><time>2026-04-28T17:00:06Z</time></trkpt><trkpt lat="43.26774583957293" lon="-0.20832403796251003"><ele>271.8</ele><time>2026-04-28T17:00:07Z</time></trkpt><trkpt lat="43.267811968243976" lon="-0.20841452991268772"><ele>271.6</ele><time>2026-04-28T17:00:08Z</time></trkpt><trkpt lat="43.26788768827949" lon="-0.20851149175050412"><ele>271.40000000000003</ele><time>2026-04-28T17:00:09Z</time></trkpt><trkpt lat="43.267943987658846" lon="-0.20860071100423883"><ele>271.2</ele><time>2026-04-28T17:00:10Z</time></trkpt><trkpt lat="43.268003502598" lon="-0.208706841006484"><ele>271.0</ele><time>2026-04-28T17:00:11Z</time></trkpt><trkpt lat="43.26806542581674" lon="-0.2088097460812817"><ele>270.8</ele><time>2026-04-28T17:00:12Z</time></trkpt><trkpt lat="43.26812526862375" lon="-0.20891758125091728"><ele>270.6</ele><time>2026-04-28T17:00:13Z</time></trkpt><trkpt lat="43.26819211443673" lon="-0.20902890127944235"><ele>270.4</ele><time>2026-04-28T17:00:14Z</time></trkpt><trkpt lat="43.2682633999329" lon="-0.20911911579379047"><ele>270.2</ele><time>2026-04-28T17:00:15Z</time></trkpt><trkpt lat="43.2683268527933" lon="-0.20922243017619824"><ele>270.0</ele><time>2026-04-28T17:00:16Z</time></trkpt><trkpt lat="43.268389600141354" lon="-0.20931977126976212"><ele>269.8</ele><time>2026-04-28T17:00:17Z</time></trkpt><trkpt lat="43.268440832595125" lon="-0.20942090764457647"><ele>269.6</ele><time>2026-04-28T17:00:18Z</time></trkpt><trkpt lat="43.2684778735927" lon="-0.20953576975738672"><ele>269.4</ele><time>2026-04-28T17:00:19Z</time></trkpt><trkpt lat="43.2684989599046" lon="-0.20966792808634563"><ele>269.2</ele><time>2026-04-28T17:00:20Z</time></trkpt><trkpt lat="43.26851186079776" lon="-0.20980028115814037"><ele>269.0</ele><time>2026-04-28T17:00:21Z</time></trkpt><trkpt lat="43.26850568217552" lon="-0.20992773607450194"><ele>268.83333333333337</ele><time>2026-04-28T17:00:22Z</time></trkpt><trkpt lat="43.26848435486321" lon="-0.21004078389888076"><ele>268.6666666666667</ele><time>2026-04-28T17:00:23Z</time></trkpt><trkpt lat="43.268430107152916" lon="-0.21013140801865726"><ele>268.5</ele><time>2026-04-28T17:00:24Z</time></trkpt><trkpt lat="43.268373927515654" lon="-0.21019153347667768"><ele>268.3333333333333</ele><time>2026-04-28T17:00:25Z</time></trkpt><trkpt lat="43.268308842064684" lon="-0.21024162298747084"><ele>268.16666666666663</ele><time>2026-04-28T17:00:26Z</time></trkpt><trkpt lat="43.268250291790324" lon="-0.2102979253264224"><ele>268.0</ele><time>2026-04-28T17:00:27Z</time></trkpt><trkpt lat="43.2681953272775" lon="-0.21050006975195668"><ele>268.0</ele><time>2026-04-28T17:00:30.001Z</time></trkpt><trkpt lat="43.268259519591076" lon="-0.21054722687432256"><ele>268.0</ele><time>2026-04-28T17:00:31.001Z</time></trkpt><trkpt lat="43.268300999020205" lon="-0.2106317834595777"><ele>268.0</ele><time>2026-04-28T17:00:32.001Z</time></trkpt><trkpt lat="43.26836051386284" lon="-0.21069955064319354"><ele>268.0</ele><time>2026-04-28T17:00:33.001Z</time></trkpt><trkpt lat="43.26840796095766" lon="-0.2107976729104716"><ele>268.0</ele><time>2026-04-28T17:00:34.001Z</time></trkpt><trkpt lat="43.268458291969125" lon="-0.2108914283035902"><ele>268.0</ele><time>2026-04-28T17:00:35.001Z</time></trkpt><trkpt lat="43.268509313511146" lon="-0.21099466636553163"><ele>268.2</ele><time>2026-04-28T17:00:36.001Z</time></trkpt><trkpt lat="43.268595001380504" lon="-0.21105944518306236"><ele>268.4</ele><time>2026-04-28T17:00:37.001Z</time></trkpt><trkpt lat="43.26866434945352" lon="-0.21114953855045684"><ele>268.59999999999997</ele><time>2026-04-28T17:00:38.001Z</time></trkpt><trkpt lat="43.26875017398085" lon="-0.21122247458007024"><ele>268.8</ele><time>2026-04-28T17:00:39.001Z</time></trkpt><trkpt lat="43.26883514140368" lon="-0.21130305802969224"><ele>269.0</ele><time>2026-04-28T17:00:40.001Z</time></trkpt><trkpt lat="43.268922990025914" lon="-0.21138856293144725"><ele>268.59999999999997</ele><time>2026-04-28T17:00:41.001Z</time></trkpt><trkpt lat="43.26901203427091" lon="-0.21146677828318622"><ele>268.2</ele><time>2026-04-28T17:00:42.001Z</time></trkpt><trkpt lat="43.26910071561282" lon="-0.21154023249798987"><ele>267.79999999999995</ele><time>2026-04-28T17:00:43.001Z</time></trkpt><trkpt lat="43.26918268129624" lon="-0.21161698593150796"><ele>267.4</ele><time>2026-04-28T17:00:44.001Z</time></trkpt><trkpt lat="43.26925886259281" lon="-0.21168469256836547"><ele>267.0</ele><time>2026-04-28T17:00:45.001Z</time></trkpt><trkpt lat="43.269338827833" lon="-0.2117385608737002"><ele>267.0</ele><time>2026-04-28T17:00:46.001Z</time></trkpt><trkpt lat="43.26941836791133" lon="-0.211784474292714"><ele>267.0</ele><time>2026-04-28T17:00:47.001Z</time></trkpt><trkpt lat="43.269503015679106" lon="-0.21177951670402145"><ele>267.0</ele><time>2026-04-28T17:00:48.001Z</time></trkpt><trkpt lat="43.26958828252167" lon="-0.21178169076224326"><ele>267.0</ele><time>2026-04-28T17:00:49.001Z</time></trkpt><trkpt lat="43.269678615096836" lon="-0.21177709802509168"><ele>267.0</ele><time>2026-04-28T17:00:50.001Z</time></trkpt><trkpt lat="43.26977215737464" lon="-0.21177627619865969"><ele>267.0</ele><time>2026-04-28T17:00:51.001Z</time></trkpt><trkpt lat="43.26986615500245" lon="-0.21177493733679598"><ele>267.2</ele><time>2026-04-28T17:00:52.001Z</time></trkpt><trkpt lat="43.26995802327018" lon="-0.21176336704694315"><ele>267.4</ele><time>2026-04-28T17:00:53.001Z</time></trkpt><trkpt lat="43.27005549401171" lon="-0.21174138971056264"><ele>267.6</ele><time>2026-04-28T17:00:54.001Z</time></trkpt><trkpt lat="43.270154664617536" lon="-0.2117273536074904"><ele>267.8</ele><time>2026-04-28T17:00:55.001Z</time></trkpt><trkpt lat="43.270251067346045" lon="-0.2117001801248372"><ele>268.0</ele><time>2026-04-28T17:00:56.001Z</time></trkpt><trkpt lat="43.27034862002563" lon="-0.2116806495736873"><ele>268.0</ele><time>2026-04-28T17:00:57.001Z</time></trkpt><trkpt lat="43.27043382036221" lon="-0.21169704019237007"><ele>268.0</ele><time>2026-04-28T17:00:58.001Z</time></trkpt><trkpt lat="43.270528501258866" lon="-0.2117398314114955"><ele>268.0</ele><time>2026-04-28T17:00:59.001Z</time></trkpt><trkpt lat="43.27061745815983" lon="-0.21181704148746325"><ele>268.0</ele><time>2026-04-28T17:01:00.001Z</time></trkpt><trkpt lat="43.270703547086526" lon="-0.21189110046295367"><ele>268.0</ele><time>2026-04-28T17:01:01.001Z</time></trkpt><trkpt lat="43.270797312537354" lon="-0.2119632005390088"><ele>268.2</ele><time>2026-04-28T17:01:02.001Z</time></trkpt><trkpt lat="43.27089220205759" lon="-0.21202023496679454"><ele>268.4</ele><time>2026-04-28T17:01:03.001Z</time></trkpt><trkpt lat="43.27098620785103" lon="-0.21208042099508806"><ele>268.59999999999997</ele><time>2026-04-28T17:01:04.001Z</time></trkpt><trkpt lat="43.27107959743074" lon="-0.21213343922700784"><ele>268.8</ele><time>2026-04-28T17:01:05.001Z</time></trkpt><trkpt lat="43.271172683040206" lon="-0.2121932537630475"><ele>269.0</ele><time>2026-04-28T17:01:06.001Z</time></trkpt><trkpt lat="43.27126190355775" lon="-0.21225153110118947"><ele>269.0</ele><time>2026-04-28T17:01:07.001Z</time></trkpt><trkpt lat="43.271351578513894" lon="-0.2123041153852531"><ele>269.0</ele><time>2026-04-28T17:01:08.001Z</time></trkpt><trkpt lat="43.271445147050464" lon="-0.21235673195390248"><ele>269.0</ele><time>2026-04-28T17:01:09.001Z</time></trkpt><trkpt lat="43.271533699417716" lon="-0.212408903190174"><ele>269.0</ele><time>2026-04-28T17:01:10.001Z</time></trkpt><trkpt lat="43.271621637185945" lon="-0.21246338193806039"><ele>269.0</ele><time>2026-04-28T17:01:11.001Z</time></trkpt><trkpt lat="43.27170854174016" lon="-0.21251490682976454"><ele>270.0</ele><time>2026-04-28T17:01:12.001Z</time></trkpt><trkpt lat="43.27179216819991" lon="-0.21257591305613413"><ele>271.0</ele><time>2026-04-28T17:01:13.001Z</time></trkpt><trkpt lat="43.27188048309734" lon="-0.21262562365144538"><ele>272.0</ele><time>2026-04-28T17:01:14.001Z</time></trkpt><trkpt lat="43.27196546234915" lon="-0.21268365394026145"><ele>273.0</ele><time>2026-04-28T17:01:15.001Z</time></trkpt><trkpt lat="43.272055075585115" lon="-0.21273426843207047"><ele>274.0</ele><time>2026-04-28T17:01:16.001Z</time></trkpt><trkpt lat="43.27213672955661" lon="-0.21278457768306913"><ele>274.0</ele><time>2026-04-28T17:01:17.001Z</time></trkpt><trkpt lat="43.27222313901906" lon="-0.21282934254853303"><ele>274.0</ele><time>2026-04-28T17:01:18Z</time></trkpt><trkpt lat="43.27230937513158" lon="-0.2128832928209186"><ele>274.0</ele><time>2026-04-28T17:01:19Z</time></trkpt><trkpt lat="43.27239398264563" lon="-0.21294126868627367"><ele>274.0</ele><time>2026-04-28T17:01:20Z</time></trkpt><trkpt lat="43.27247763632195" lon="-0.2129937418063321"><ele>274.0</ele><time>2026-04-28T17:01:21Z</time></trkpt><trkpt lat="43.27256203922921" lon="-0.2130470423762722"><ele>275.59999999999997</ele><time>2026-04-28T17:01:22Z</time></trkpt><trkpt lat="43.272645149028385" lon="-0.2131023076431195"><ele>277.2</ele><time>2026-04-28T17:01:23Z</time></trkpt><trkpt lat="43.27273079751666" lon="-0.21315802576516762"><ele>278.79999999999995</ele><time>2026-04-28T17:01:24Z</time></trkpt><trkpt lat="43.27281476191117" lon="-0.2132093503470253"><ele>280.4</ele><time>2026-04-28T17:01:25Z</time></trkpt><trkpt lat="43.27289833301781" lon="-0.21326322623173247"><ele>282.0</ele><time>2026-04-28T17:01:26Z</time></trkpt><trkpt lat="43.27298816021712" lon="-0.2133070213163541"><ele>282.0</ele><time>2026-04-28T17:01:27Z</time></trkpt><trkpt lat="43.27307346292779" lon="-0.21335915227105173"><ele>282.0</ele><time>2026-04-28T17:01:28Z</time></trkpt><trkpt lat="43.27316108580654" lon="-0.2134052617795404"><ele>282.0</ele><time>2026-04-28T17:01:29Z</time></trkpt><trkpt lat="43.273245917338095" lon="-0.21345630280739405"><ele>282.0</ele><time>2026-04-28T17:01:30Z</time></trkpt><trkpt lat="43.27332860691705" lon="-0.21350661198726917"><ele>282.0</ele><time>2026-04-28T17:01:31Z</time></trkpt><trkpt lat="43.27340503917272" lon="-0.21358194254762283"><ele>282.8</ele><time>2026-04-28T17:01:32Z</time></trkpt><trkpt lat="43.273465718808524" lon="-0.21367240886289637"><ele>283.6</ele><time>2026-04-28T17:01:33Z</time></trkpt><trkpt lat="43.27349512948972" lon="-0.21378984531826783"><ele>284.40000000000003</ele><time>2026-04-28T17:01:34Z</time></trkpt><trkpt lat="43.27350505395431" lon="-0.21392026961013125"><ele>285.2</ele><time>2026-04-28T17:01:35Z</time></trkpt><trkpt lat="43.27350070716258" lon="-0.21405138557543257"><ele>286.0</ele><time>2026-04-28T17:01:36Z</time></trkpt><trkpt lat="43.27350897892854" lon="-0.2141617775418387"><ele>286.0</ele><time>2026-04-28T17:01:37Z</time></trkpt><trkpt lat="43.273527713596536" lon="-0.21425706993335092"><ele>286.0</ele><time>2026-04-28T17:01:38Z</time></trkpt><trkpt lat="43.273590112306785" lon="-0.21437841660800244"><ele>286.0</ele><time>2026-04-28T17:01:40Z</time></trkpt><trkpt lat="43.27371145636169" lon="-0.21435952094008873"><ele>286.0</ele><time>2026-04-28T17:01:42Z</time></trkpt><trkpt lat="43.273770337975904" lon="-0.21429807226445788"><ele>286.0</ele><time>2026-04-28T17:01:43Z</time></trkpt><trkpt lat="43.27388773698205" lon="-0.21427332521045003"><ele>286.0</ele><time>2026-04-28T17:01:45Z</time></trkpt><trkpt lat="43.27393558386988" lon="-0.21433598769251075"><ele>286.0</ele><time>2026-04-28T17:01:46Z</time></trkpt><trkpt lat="43.27396221509879" lon="-0.2144347797120788"><ele>286.0</ele><time>2026-04-28T17:01:47Z</time></trkpt><trkpt lat="43.273957479055426" lon="-0.2145474168404826"><ele>286.0</ele><time>2026-04-28T17:01:48Z</time></trkpt><trkpt lat="43.27393434149436" lon="-0.214662355636243"><ele>286.0</ele><time>2026-04-28T17:01:49Z</time></trkpt><trkpt lat="43.27392907129835" lon="-0.21478006687154347"><ele>286.0</ele><time>2026-04-28T17:01:50Z</time></trkpt><trkpt lat="43.27396116547496" lon="-0.21490039068861752"><ele>285.40000000000003</ele><time>2026-04-28T17:01:51Z</time></trkpt><trkpt lat="43.273997973367806" lon="-0.21502310970124058"><ele>284.8</ele><time>2026-04-28T17:01:52Z</time></trkpt><trkpt lat="43.2740330398072" lon="-0.21514868466594997"><ele>284.20000000000005</ele><time>2026-04-28T17:01:53Z</time></trkpt><trkpt lat="43.274065037884405" lon="-0.21527353055043866"><ele>283.6</ele><time>2026-04-28T17:01:54Z</time></trkpt><trkpt lat="43.27409654762173" lon="-0.2153973897356015"><ele>283.0</ele><time>2026-04-28T17:01:55Z</time></trkpt><trkpt lat="43.274138741223545" lon="-0.21554954282886984"><ele>282.8</ele><time>2026-04-28T17:01:56Z</time></trkpt><trkpt lat="43.27417949702309" lon="-0.21568949930046968"><ele>282.6</ele><time>2026-04-28T17:01:57Z</time></trkpt><trkpt lat="43.27421877645642" lon="-0.21582744797250053"><ele>282.4</ele><time>2026-04-28T17:01:58Z</time></trkpt><trkpt lat="43.27425419472404" lon="-0.21597435343538685"><ele>282.2</ele><time>2026-04-28T17:01:59Z</time></trkpt><trkpt lat="43.27428966021018" lon="-0.21610821913012168"><ele>282.0</ele><time>2026-04-28T17:02:00Z</time></trkpt><trkpt lat="43.27433519726083" lon="-0.21626130147060507"><ele>282.0</ele><time>2026-04-28T17:02:01Z</time></trkpt><trkpt lat="43.274375079070204" lon="-0.2163969803030268"><ele>282.0</ele><time>2026-04-28T17:02:02Z</time></trkpt><trkpt lat="43.27441401882406" lon="-0.2165474374162393"><ele>282.0</ele><time>2026-04-28T17:02:03Z</time></trkpt><trkpt lat="43.27445471672188" lon="-0.21669675794261684"><ele>282.0</ele><time>2026-04-28T17:02:04Z</time></trkpt><trkpt lat="43.27449611263008" lon="-0.21684832494232423"><ele>282.0</ele><time>2026-04-28T17:02:05Z</time></trkpt><trkpt lat="43.27453763226976" lon="-0.21700025300754827"><ele>282.0</ele><time>2026-04-28T17:02:06Z</time></trkpt><trkpt lat="43.274582028708494" lon="-0.21715085587580715"><ele>282.0</ele><time>2026-04-28T17:02:07Z</time></trkpt><trkpt lat="43.274622915204354" lon="-0.21730324572059262"><ele>282.0</ele><time>2026-04-28T17:02:08Z</time></trkpt><trkpt lat="43.27466346979326" lon="-0.21745741772977567"><ele>282.0</ele><time>2026-04-28T17:02:09Z</time></trkpt><trkpt lat="43.274710340055314" lon="-0.21760715456482788"><ele>282.0</ele><time>2026-04-28T17:02:10Z</time></trkpt><trkpt lat="43.274755555013115" lon="-0.21775672190329748"><ele>282.0</ele><time>2026-04-28T17:02:11Z</time></trkpt><trkpt lat="43.274794729172235" lon="-0.2179096467465102"><ele>282.0</ele><time>2026-04-28T17:02:12Z</time></trkpt><trkpt lat="43.27483340335677" lon="-0.21806336302261584"><ele>282.0</ele><time>2026-04-28T17:02:13Z</time></trkpt><trkpt lat="43.274878975924935" lon="-0.21821322339266086"><ele>282.0</ele><time>2026-04-28T17:02:14Z</time></trkpt><trkpt lat="43.27492055203443" lon="-0.21836498506627397"><ele>282.0</ele><time>2026-04-28T17:02:15Z</time></trkpt><trkpt lat="43.27495957129507" lon="-0.2185150084999108"><ele>282.0</ele><time>2026-04-28T17:02:16Z</time></trkpt><trkpt lat="43.2750018786234" lon="-0.2186690318764807"><ele>282.0</ele><time>2026-04-28T17:02:17Z</time></trkpt><trkpt lat="43.27504551540209" lon="-0.21881647276004895"><ele>282.0</ele><time>2026-04-28T17:02:18Z</time></trkpt><trkpt lat="43.275086024046125" lon="-0.21897529734891968"><ele>282.0</ele><time>2026-04-28T17:02:19Z</time></trkpt><trkpt lat="43.27512956843805" lon="-0.21913180782372965"><ele>282.0</ele><time>2026-04-28T17:02:20Z</time></trkpt><trkpt lat="43.27517259243013" lon="-0.21928553641662332"><ele>281.5</ele><time>2026-04-28T17:02:21Z</time></trkpt><trkpt lat="43.27521515591986" lon="-0.21943483430365093"><ele>281.0</ele><time>2026-04-28T17:02:22Z</time></trkpt><trkpt lat="43.27525642631161" lon="-0.2195907589506694"><ele>280.5</ele><time>2026-04-28T17:02:23Z</time></trkpt><trkpt lat="43.2752979725603" lon="-0.21974564267025284"><ele>280.0</ele><time>2026-04-28T17:02:24Z</time></trkpt><trkpt lat="43.2753434292349" lon="-0.2198974286628413"><ele>280.0</ele><time>2026-04-28T17:02:25Z</time></trkpt><trkpt lat="43.27538423334644" lon="-0.2200542135508256"><ele>280.0</ele><time>2026-04-28T17:02:26Z</time></trkpt><trkpt lat="43.27542505877445" lon="-0.22020930377359807"><ele>280.0</ele><time>2026-04-28T17:02:27Z</time></trkpt><trkpt lat="43.275467474377315" lon="-0.2203631619044057"><ele>280.0</ele><time>2026-04-28T17:02:28.001Z</time></trkpt><trkpt lat="43.2755121366052" lon="-0.22051637775101687"><ele>280.0</ele><time>2026-04-28T17:02:29.001Z</time></trkpt><trkpt lat="43.27555470815551" lon="-0.22067166638809732"><ele>280.0</ele><time>2026-04-28T17:02:30.001Z</time></trkpt><trkpt lat="43.27559698227029" lon="-0.2208243473393533"><ele>280.0</ele><time>2026-04-28T17:02:31.001Z</time></trkpt><trkpt lat="43.27563639479478" lon="-0.22097964399695427"><ele>280.0</ele><time>2026-04-28T17:02:32.001Z</time></trkpt><trkpt lat="43.27568061275252" lon="-0.2211311340388358"><ele>280.0</ele><time>2026-04-28T17:02:33.001Z</time></trkpt><trkpt lat="43.27572366445841" lon="-0.2212828287661952"><ele>280.0</ele><time>2026-04-28T17:02:34.001Z</time></trkpt><trkpt lat="43.2757647939913" lon="-0.22143676225963146"><ele>280.0</ele><time>2026-04-28T17:02:35.001Z</time></trkpt><trkpt lat="43.27580709661933" lon="-0.22159039512946763"><ele>280.0</ele><time>2026-04-28T17:02:36.001Z</time></trkpt><trkpt lat="43.27584895891405" lon="-0.22174220240241568"><ele>280.25</ele><time>2026-04-28T17:02:37.001Z</time></trkpt><trkpt lat="43.27588853546616" lon="-0.2218970659535269"><ele>280.5</ele><time>2026-04-28T17:02:38.001Z</time></trkpt><trkpt lat="43.275932052744636" lon="-0.22204794723739052"><ele>280.75</ele><time>2026-04-28T17:02:39.001Z</time></trkpt><trkpt lat="43.275978432964756" lon="-0.22220112890536545"><ele>281.0</ele><time>2026-04-28T17:02:40.001Z</time></trkpt><trkpt lat="43.276020497054255" lon="-0.22235334655186806"><ele>280.5</ele><time>2026-04-28T17:02:41.001Z</time></trkpt><trkpt lat="43.27606114272803" lon="-0.2225068204048359"><ele>280.0</ele><time>2026-04-28T17:02:42.001Z</time></trkpt><trkpt lat="43.276101447371005" lon="-0.2226590123551459"><ele>279.5</ele><time>2026-04-28T17:02:43.001Z</time></trkpt><trkpt lat="43.27614062793985" lon="-0.22280983193240902"><ele>279.0</ele><time>2026-04-28T17:02:44.001Z</time></trkpt><trkpt lat="43.276181871827056" lon="-0.22295756233638644"><ele>279.0</ele><time>2026-04-28T17:02:45.001Z</time></trkpt><trkpt lat="43.2762179117171" lon="-0.22312358142636435"><ele>279.0</ele><time>2026-04-28T17:02:46.001Z</time></trkpt><trkpt lat="43.276251910549476" lon="-0.22331309274806624"><ele>279.0</ele><time>2026-04-28T17:02:47.001Z</time></trkpt><trkpt lat="43.27630387001887" lon="-0.22340452161744417"><ele>279.0</ele><time>2026-04-28T17:02:48.001Z</time></trkpt><trkpt lat="43.276345437181256" lon="-0.22355032573114395"><ele>279.0</ele><time>2026-04-28T17:02:49.001Z</time></trkpt><trkpt lat="43.27638971744183" lon="-0.22369630598138218"><ele>279.0</ele><time>2026-04-28T17:02:50.001Z</time></trkpt><trkpt lat="43.276430769216084" lon="-0.2238452848510782"><ele>279.0</ele><time>2026-04-28T17:02:51.001Z</time></trkpt><trkpt lat="43.27647075782974" lon="-0.22399505454086552"><ele>279.0</ele><time>2026-04-28T17:02:52.001Z</time></trkpt><trkpt lat="43.276510615117175" lon="-0.22414570093797542"><ele>278.75</ele><time>2026-04-28T17:02:53.001Z</time></trkpt><trkpt lat="43.276548989822125" lon="-0.22429500110056172"><ele>278.5</ele><time>2026-04-28T17:02:54.001Z</time></trkpt><trkpt lat="43.276590147791374" lon="-0.22444148944266082"><ele>278.25</ele><time>2026-04-28T17:02:55.001Z</time></trkpt><trkpt lat="43.27663075471805" lon="-0.2245896286401899"><ele>278.0</ele><time>2026-04-28T17:02:56.001Z</time></trkpt><trkpt lat="43.276671273886926" lon="-0.2247413335083512"><ele>278.0</ele><time>2026-04-28T17:02:57.001Z</time></trkpt><trkpt lat="43.276714532131905" lon="-0.22488947568573864"><ele>278.0</ele><time>2026-04-28T17:02:58.001Z</time></trkpt><trkpt lat="43.27675437551363" lon="-0.22503512553341048"><ele>278.0</ele><time>2026-04-28T17:02:59.001Z</time></trkpt><trkpt lat="43.276795604420904" lon="-0.22518693248180083"><ele>278.0</ele><time>2026-04-28T17:03:00.001Z</time></trkpt><trkpt lat="43.276836123448426" lon="-0.22533125971223097"><ele>278.0</ele><time>2026-04-28T17:03:01.001Z</time></trkpt><trkpt lat="43.27687798075358" lon="-0.2254810838329737"><ele>278.0</ele><time>2026-04-28T17:03:02.001Z</time></trkpt><trkpt lat="43.27691843306665" lon="-0.22562731735354574"><ele>278.0</ele><time>2026-04-28T17:03:03.001Z</time></trkpt><trkpt lat="43.276961180757894" lon="-0.22577368190926556"><ele>278.0</ele><time>2026-04-28T17:03:04.001Z</time></trkpt><trkpt lat="43.277000779045" lon="-0.2259215218464051"><ele>278.0</ele><time>2026-04-28T17:03:05.001Z</time></trkpt><trkpt lat="43.27704006793987" lon="-0.2260717996756759"><ele>278.0</ele><time>2026-04-28T17:03:06.001Z</time></trkpt><trkpt lat="43.27707723926305" lon="-0.22621883736202766"><ele>278.0</ele><time>2026-04-28T17:03:07.001Z</time></trkpt><trkpt lat="43.27711677903977" lon="-0.22636832969764814"><ele>278.0</ele><time>2026-04-28T17:03:08.001Z</time></trkpt><trkpt lat="43.27716052350774" lon="-0.22651512676270366"><ele>278.0</ele><time>2026-04-28T17:03:09.001Z</time></trkpt><trkpt lat="43.277202859380736" lon="-0.22666586646685075"><ele>278.0</ele><time>2026-04-28T17:03:10.001Z</time></trkpt><trkpt lat="43.277242717083055" lon="-0.22681136456245996"><ele>278.0</ele><time>2026-04-28T17:03:11.001Z</time></trkpt><trkpt lat="43.27728183783169" lon="-0.22695954797003584"><ele>278.0</ele><time>2026-04-28T17:03:12.001Z</time></trkpt><trkpt lat="43.277322898035585" lon="-0.22710955353723167"><ele>277.5</ele><time>2026-04-28T17:03:13.001Z</time></trkpt><trkpt lat="43.27736649614691" lon="-0.22725766939606654"><ele>277.0</ele><time>2026-04-28T17:03:14.001Z</time></trkpt><trkpt lat="43.27740856242828" lon="-0.22740957499047146"><ele>276.5</ele><time>2026-04-28T17:03:15.001Z</time></trkpt><trkpt lat="43.277448266616204" lon="-0.22755664623922436"><ele>276.0</ele><time>2026-04-28T17:03:16.001Z</time></trkpt><trkpt lat="43.277490109717284" lon="-0.22770613126124417"><ele>276.0</ele><time>2026-04-28T17:03:17.001Z</time></trkpt><trkpt lat="43.2775325013217" lon="-0.22785563264260525"><ele>276.0</ele><time>2026-04-28T17:03:18.001Z</time></trkpt><trkpt lat="43.277574775766844" lon="-0.2280055822990128"><ele>276.0</ele><time>2026-04-28T17:03:19.001Z</time></trkpt><trkpt lat="43.277615572503116" lon="-0.22815425837060288"><ele>276.0</ele><time>2026-04-28T17:03:20.001Z</time></trkpt><trkpt lat="43.27765761003557" lon="-0.2283089589413929"><ele>276.25</ele><time>2026-04-28T17:03:21.001Z</time></trkpt><trkpt lat="43.27769639311864" lon="-0.22846761527194162"><ele>276.5</ele><time>2026-04-28T17:03:22.001Z</time></trkpt><trkpt lat="43.27774020625853" lon="-0.22861643729081754"><ele>276.75</ele><time>2026-04-28T17:03:23.001Z</time></trkpt><trkpt lat="43.277781368052146" lon="-0.22877078724646482"><ele>277.0</ele><time>2026-04-28T17:03:24Z</time></trkpt><trkpt lat="43.27782316116174" lon="-0.2289244134669269"><ele>276.75</ele><time>2026-04-28T17:03:25Z</time></trkpt><trkpt lat="43.277865247063964" lon="-0.22907656178353714"><ele>276.5</ele><time>2026-04-28T17:03:26Z</time></trkpt><trkpt lat="43.2779050779768" lon="-0.22923173997718346"><ele>276.25</ele><time>2026-04-28T17:03:27Z</time></trkpt><trkpt lat="43.27794898942365" lon="-0.2293863768790398"><ele>276.0</ele><time>2026-04-28T17:03:28Z</time></trkpt><trkpt lat="43.277992189235924" lon="-0.22954070156283335"><ele>276.0</ele><time>2026-04-28T17:03:29Z</time></trkpt><trkpt lat="43.27803450211176" lon="-0.22969591978102655"><ele>276.0</ele><time>2026-04-28T17:03:30Z</time></trkpt><trkpt lat="43.27807742599807" lon="-0.229849326319017"><ele>276.0</ele><time>2026-04-28T17:03:31Z</time></trkpt><trkpt lat="43.27811697765147" lon="-0.2300043394789871"><ele>276.0</ele><time>2026-04-28T17:03:32Z</time></trkpt><trkpt lat="43.27816024980983" lon="-0.23015850034429758"><ele>276.0</ele><time>2026-04-28T17:03:33Z</time></trkpt><trkpt lat="43.278205998521265" lon="-0.23031169299358456"><ele>276.0</ele><time>2026-04-28T17:03:34Z</time></trkpt><trkpt lat="43.278252074460134" lon="-0.23046247689355684"><ele>276.0</ele><time>2026-04-28T17:03:35Z</time></trkpt><trkpt lat="43.278292458958866" lon="-0.23061818368985473"><ele>276.0</ele><time>2026-04-28T17:03:36Z</time></trkpt><trkpt lat="43.278332874274575" lon="-0.23077477253237505"><ele>276.0</ele><time>2026-04-28T17:03:37Z</time></trkpt><trkpt lat="43.278374383306826" lon="-0.23092921161563607"><ele>276.0</ele><time>2026-04-28T17:03:38Z</time></trkpt><trkpt lat="43.27841841772955" lon="-0.2310803162405828"><ele>276.0</ele><time>2026-04-28T17:03:39Z</time></trkpt><trkpt lat="43.2784615227489" lon="-0.23123199503256803"><ele>276.0</ele><time>2026-04-28T17:03:40Z</time></trkpt><trkpt lat="43.27850322642991" lon="-0.2313862005717613"><ele>275.75</ele><time>2026-04-28T17:03:41Z</time></trkpt><trkpt lat="43.278544342584055" lon="-0.2315412270344778"><ele>275.5</ele><time>2026-04-28T17:03:42Z</time></trkpt><trkpt lat="43.2785865203296" lon="-0.23169566266430883"><ele>275.25</ele><time>2026-04-28T17:03:43Z</time></trkpt><trkpt lat="43.278626310786265" lon="-0.23184400045160145"><ele>275.0</ele><time>2026-04-28T17:03:44Z</time></trkpt><trkpt lat="43.27867154857636" lon="-0.2320013062731197"><ele>275.0</ele><time>2026-04-28T17:03:45Z</time></trkpt><trkpt lat="43.278711832705156" lon="-0.2321576219123193"><ele>275.0</ele><time>2026-04-28T17:03:46Z</time></trkpt><trkpt lat="43.278759640640985" lon="-0.23230859585332309"><ele>275.0</ele><time>2026-04-28T17:03:47Z</time></trkpt><trkpt lat="43.27879968775633" lon="-0.232465993822805"><ele>275.0</ele><time>2026-04-28T17:03:48Z</time></trkpt><trkpt lat="43.27883785796598" lon="-0.23262057056785873"><ele>274.75</ele><time>2026-04-28T17:03:49Z</time></trkpt><trkpt lat="43.278878320629204" lon="-0.23277569326143638"><ele>274.5</ele><time>2026-04-28T17:03:50Z</time></trkpt><trkpt lat="43.27892022682946" lon="-0.23292743489255857"><ele>274.25</ele><time>2026-04-28T17:03:51Z</time></trkpt><trkpt lat="43.27896232925761" lon="-0.2330829274598337"><ele>274.0</ele><time>2026-04-28T17:03:52Z</time></trkpt><trkpt lat="43.279006889593674" lon="-0.23323504952888105"><ele>274.0</ele><time>2026-04-28T17:03:53Z</time></trkpt><trkpt lat="43.27905058330881" lon="-0.23339295021260312"><ele>274.0</ele><time>2026-04-28T17:03:54Z</time></trkpt><trkpt lat="43.27909039231279" lon="-0.2335490809979307"><ele>274.0</ele><time>2026-04-28T17:03:55Z</time></trkpt><trkpt lat="43.27913393192089" lon="-0.23370477336807813"><ele>274.0</ele><time>2026-04-28T17:03:56Z</time></trkpt><trkpt lat="43.27917614672747" lon="-0.23386176844932066"><ele>273.5</ele><time>2026-04-28T17:03:57Z</time></trkpt><trkpt lat="43.27921897093755" lon="-0.2340143508460555"><ele>273.0</ele><time>2026-04-28T17:03:58Z</time></trkpt><trkpt lat="43.27926305924604" lon="-0.23416958260420018"><ele>272.5</ele><time>2026-04-28T17:03:59Z</time></trkpt><trkpt lat="43.27930703992432" lon="-0.2343294920356704"><ele>272.0</ele><time>2026-04-28T17:04:00Z</time></trkpt><trkpt lat="43.27934697777038" lon="-0.23448827288109925"><ele>272.0</ele><time>2026-04-28T17:04:01Z</time></trkpt><trkpt lat="43.27939418739394" lon="-0.234642278971734"><ele>272.0</ele><time>2026-04-28T17:04:02Z</time></trkpt><trkpt lat="43.279433377220144" lon="-0.23480188624501708"><ele>272.0</ele><time>2026-04-28T17:04:03Z</time></trkpt><trkpt lat="43.27947847879376" lon="-0.23495733811322728"><ele>272.0</ele><time>2026-04-28T17:04:04Z</time></trkpt><trkpt lat="43.27952295154772" lon="-0.23511598771530162"><ele>272.0</ele><time>2026-04-28T17:04:05Z</time></trkpt><trkpt lat="43.27956461197322" lon="-0.2352713857488334"><ele>272.0</ele><time>2026-04-28T17:04:06Z</time></trkpt><trkpt lat="43.27960640551484" lon="-0.23542760908472543"><ele>272.0</ele><time>2026-04-28T17:04:07Z</time></trkpt><trkpt lat="43.27969022123103" lon="-0.2357420750695816"><ele>272.0</ele><time>2026-04-28T17:04:09Z</time></trkpt><trkpt lat="43.27973411084306" lon="-0.23589918611812385"><ele>272.0</ele><time>2026-04-28T17:04:10Z</time></trkpt><trkpt lat="43.27977688552622" lon="-0.2360554193778296"><ele>272.0</ele><time>2026-04-28T17:04:11Z</time></trkpt><trkpt lat="43.27982129554044" lon="-0.23620989606747"><ele>272.0</ele><time>2026-04-28T17:04:12Z</time></trkpt><trkpt lat="43.279867066024885" lon="-0.23636507015992167"><ele>272.0</ele><time>2026-04-28T17:04:13Z</time></trkpt><trkpt lat="43.279911248967835" lon="-0.2365203959062929"><ele>272.0</ele><time>2026-04-28T17:04:14Z</time></trkpt><trkpt lat="43.279952466396395" lon="-0.2366765072876789"><ele>272.0</ele><time>2026-04-28T17:04:15Z</time></trkpt><trkpt lat="43.27999666817191" lon="-0.23683286977363244"><ele>272.0</ele><time>2026-04-28T17:04:16Z</time></trkpt><trkpt lat="43.28003547475444" lon="-0.23699049872216504"><ele>272.0</ele><time>2026-04-28T17:04:17Z</time></trkpt><trkpt lat="43.28008113753142" lon="-0.23714085801753904"><ele>272.0</ele><time>2026-04-28T17:04:18Z</time></trkpt><trkpt lat="43.280125497379196" lon="-0.2372972876141255"><ele>272.0</ele><time>2026-04-28T17:04:19Z</time></trkpt><trkpt lat="43.28016680239159" lon="-0.23745746871689863"><ele>272.0</ele><time>2026-04-28T17:04:20Z</time></trkpt><trkpt lat="43.280209652338705" lon="-0.23761419186680585"><ele>272.0</ele><time>2026-04-28T17:04:21Z</time></trkpt><trkpt lat="43.28025414649531" lon="-0.23776908179626907"><ele>272.0</ele><time>2026-04-28T17:04:22.001Z</time></trkpt><trkpt lat="43.280290860197866" lon="-0.23792829722945058"><ele>272.0</ele><time>2026-04-28T17:04:23.001Z</time></trkpt><trkpt lat="43.280336454293554" lon="-0.23808194440420968"><ele>272.0</ele><time>2026-04-28T17:04:24.001Z</time></trkpt><trkpt lat="43.280378788148944" lon="-0.23823528305530858"><ele>272.0</ele><time>2026-04-28T17:04:25.001Z</time></trkpt><trkpt lat="43.28041165394591" lon="-0.23838140833993446"><ele>272.0</ele><time>2026-04-28T17:04:26.001Z</time></trkpt><trkpt lat="43.28043951409888" lon="-0.23852176587863472"><ele>272.0</ele><time>2026-04-28T17:04:27.001Z</time></trkpt><trkpt lat="43.28046279206081" lon="-0.238658075803133"><ele>272.0</ele><time>2026-04-28T17:04:28.001Z</time></trkpt><trkpt lat="43.28048592105986" lon="-0.2387833313396905"><ele>272.0</ele><time>2026-04-28T17:04:29.001Z</time></trkpt><trkpt lat="43.280509469772824" lon="-0.23890428961361582"><ele>272.0</ele><time>2026-04-28T17:04:30.001Z</time></trkpt><trkpt lat="43.28053175457448" lon="-0.23902230430194518"><ele>272.0</ele><time>2026-04-28T17:04:31.001Z</time></trkpt><trkpt lat="43.28055697222147" lon="-0.2391347722209441"><ele>272.0</ele><time>2026-04-28T17:04:32.001Z</time></trkpt><trkpt lat="43.28059731569069" lon="-0.23923784550122273"><ele>272.0</ele><time>2026-04-28T17:04:33.001Z</time></trkpt><trkpt lat="43.28065957466551" lon="-0.23932802845671342"><ele>272.0</ele><time>2026-04-28T17:04:34.001Z</time></trkpt><trkpt lat="43.2807226767558" lon="-0.23943483691237624"><ele>272.0</ele><time>2026-04-28T17:04:35.001Z</time></trkpt><trkpt lat="43.28075308291638" lon="-0.2395630923438359"><ele>272.0</ele><time>2026-04-28T17:04:36.001Z</time></trkpt><trkpt lat="43.28075074582607" lon="-0.23971306576786303"><ele>272.0</ele><time>2026-04-28T17:04:37.001Z</time></trkpt><trkpt lat="43.28076391633206" lon="-0.23986199038600392"><ele>272.0</ele><time>2026-04-28T17:04:38.001Z</time></trkpt><trkpt lat="43.28081254841294" lon="-0.24000675345496705"><ele>272.0</ele><time>2026-04-28T17:04:39.001Z</time></trkpt><trkpt lat="43.280869934224164" lon="-0.24014338116739722"><ele>271.5</ele><time>2026-04-28T17:04:40.001Z</time></trkpt><trkpt lat="43.28092622458136" lon="-0.24027800015721926"><ele>271.0</ele><time>2026-04-28T17:04:41.001Z</time></trkpt><trkpt lat="43.28097934234556" lon="-0.2404190495554437"><ele>270.5</ele><time>2026-04-28T17:04:42.001Z</time></trkpt><trkpt lat="43.28102847513109" lon="-0.24056458003248526"><ele>270.0</ele><time>2026-04-28T17:04:43.001Z</time></trkpt><trkpt lat="43.28107343361001" lon="-0.24071463973437138"><ele>270.0</ele><time>2026-04-28T17:04:44.001Z</time></trkpt><trkpt lat="43.28111734763875" lon="-0.2408672647350445"><ele>270.0</ele><time>2026-04-28T17:04:45.001Z</time></trkpt><trkpt lat="43.281159365805166" lon="-0.24102227698996537"><ele>270.0</ele><time>2026-04-28T17:04:46.001Z</time></trkpt><trkpt lat="43.281201936554126" lon="-0.2411804564685563"><ele>270.0</ele><time>2026-04-28T17:04:47.001Z</time></trkpt><trkpt lat="43.281245306080166" lon="-0.2413360371912648"><ele>270.25</ele><time>2026-04-28T17:04:48.001Z</time></trkpt><trkpt lat="43.28128929879628" lon="-0.2414916817000856"><ele>270.5</ele><time>2026-04-28T17:04:49.001Z</time></trkpt><trkpt lat="43.28133131050309" lon="-0.24164512025426657"><ele>270.75</ele><time>2026-04-28T17:04:50.001Z</time></trkpt><trkpt lat="43.28137304731284" lon="-0.24179933958168057"><ele>271.0</ele><time>2026-04-28T17:04:51.001Z</time></trkpt><trkpt lat="43.28141627499905" lon="-0.24195096596834023"><ele>270.75</ele><time>2026-04-28T17:04:52.001Z</time></trkpt><trkpt lat="43.28145843008433" lon="-0.24210602112774562"><ele>270.5</ele><time>2026-04-28T17:04:53.001Z</time></trkpt><trkpt lat="43.2815018834895" lon="-0.24225536571544257"><ele>270.25</ele><time>2026-04-28T17:04:54.001Z</time></trkpt><trkpt lat="43.2815452189994" lon="-0.24240367880243854"><ele>270.0</ele><time>2026-04-28T17:04:55.001Z</time></trkpt><trkpt lat="43.2815855999124" lon="-0.24255522006475597"><ele>270.0</ele><time>2026-04-28T17:04:56.001Z</time></trkpt><trkpt lat="43.281626409053516" lon="-0.2427078973655442"><ele>270.0</ele><time>2026-04-28T17:04:57.001Z</time></trkpt><trkpt lat="43.28166844900825" lon="-0.24285730394940439"><ele>270.0</ele><time>2026-04-28T17:04:58.001Z</time></trkpt><trkpt lat="43.28171421445425" lon="-0.24301061213529704"><ele>270.0</ele><time>2026-04-28T17:04:59.001Z</time></trkpt><trkpt lat="43.28175523483923" lon="-0.24315411135194526"><ele>269.6666666666667</ele><time>2026-04-28T17:05:00.001Z</time></trkpt><trkpt lat="43.28180187155233" lon="-0.24331640910924066"><ele>269.33333333333337</ele><time>2026-04-28T17:05:01.001Z</time></trkpt><trkpt lat="43.28189232847708" lon="-0.2435095909932441"><ele>269.0</ele><time>2026-04-28T17:05:02.001Z</time></trkpt><trkpt lat="43.28194647564904" lon="-0.24371644664850795"><ele>269.0</ele><time>2026-04-28T17:05:03.001Z</time></trkpt><trkpt lat="43.28196925210641" lon="-0.2439164784829509"><ele>269.0</ele><time>2026-04-28T17:05:05.001Z</time></trkpt><trkpt lat="43.282005079783424" lon="-0.24404789952400252"><ele>269.0</ele><time>2026-04-28T17:05:06.001Z</time></trkpt><trkpt lat="43.28203954251117" lon="-0.24419715049588206"><ele>269.0</ele><time>2026-04-28T17:05:07.001Z</time></trkpt><trkpt lat="43.28208556930153" lon="-0.24435238154793365"><ele>268.75</ele><time>2026-04-28T17:05:08.001Z</time></trkpt><trkpt lat="43.282122248062905" lon="-0.24450143389870374"><ele>268.5</ele><time>2026-04-28T17:05:09.001Z</time></trkpt><trkpt lat="43.28216787880952" lon="-0.244649874400531"><ele>268.25</ele><time>2026-04-28T17:05:10.001Z</time></trkpt><trkpt lat="43.282212240820705" lon="-0.244798369518074"><ele>268.0</ele><time>2026-04-28T17:05:11.001Z</time></trkpt><trkpt lat="43.282252254792034" lon="-0.24495494839527687"><ele>267.75</ele><time>2026-04-28T17:05:12.001Z</time></trkpt><trkpt lat="43.28229564342619" lon="-0.2451280311019041"><ele>267.5</ele><time>2026-04-28T17:05:13.001Z</time></trkpt><trkpt lat="43.282334858126546" lon="-0.2452593876512223"><ele>267.25</ele><time>2026-04-28T17:05:14.001Z</time></trkpt><trkpt lat="43.28238062434773" lon="-0.24541575789703637"><ele>267.0</ele><time>2026-04-28T17:05:15.001Z</time></trkpt><trkpt lat="43.282421516656036" lon="-0.24557032189932645"><ele>267.0</ele><time>2026-04-28T17:05:16.001Z</time></trkpt><trkpt lat="43.282464254883536" lon="-0.2457233666455172"><ele>267.0</ele><time>2026-04-28T17:05:17.001Z</time></trkpt><trkpt lat="43.282506882463956" lon="-0.24588205252343762"><ele>267.0</ele><time>2026-04-28T17:05:18.001Z</time></trkpt><trkpt lat="43.28254595751172" lon="-0.24603765447846573"><ele>267.0</ele><time>2026-04-28T17:05:19.001Z</time></trkpt><trkpt lat="43.28259093155174" lon="-0.24619087430653436"><ele>267.0</ele><time>2026-04-28T17:05:20.001Z</time></trkpt><trkpt lat="43.28263129787434" lon="-0.24634443395461683"><ele>267.0</ele><time>2026-04-28T17:05:21.001Z</time></trkpt><trkpt lat="43.2826751968626" lon="-0.24649710054550864"><ele>267.0</ele><time>2026-04-28T17:05:22.001Z</time></trkpt><trkpt lat="43.282718870571436" lon="-0.24665267051933581"><ele>267.0</ele><time>2026-04-28T17:05:23.001Z</time></trkpt><trkpt lat="43.282759164499446" lon="-0.24680442783790468"><ele>267.0</ele><time>2026-04-28T17:05:24.001Z</time></trkpt><trkpt lat="43.282798742746884" lon="-0.24695778005322044"><ele>267.0</ele><time>2026-04-28T17:05:25.001Z</time></trkpt><trkpt lat="43.28284174489845" lon="-0.2471103046139705"><ele>267.0</ele><time>2026-04-28T17:05:26.001Z</time></trkpt><trkpt lat="43.28288282641832" lon="-0.24726275969877493"><ele>267.0</ele><time>2026-04-28T17:05:27.001Z</time></trkpt><trkpt lat="43.282928174564745" lon="-0.24741324337119935"><ele>266.75</ele><time>2026-04-28T17:05:28.001Z</time></trkpt><trkpt lat="43.282968810110916" lon="-0.24756259019313226"><ele>266.5</ele><time>2026-04-28T17:05:29.001Z</time></trkpt><trkpt lat="43.283008631401984" lon="-0.24771386656459837"><ele>266.25</ele><time>2026-04-28T17:05:30Z</time></trkpt><trkpt lat="43.28304769646856" lon="-0.24786557528028305"><ele>266.0</ele><time>2026-04-28T17:05:31Z</time></trkpt><trkpt lat="43.2830910958425" lon="-0.24801610422143383"><ele>266.0</ele><time>2026-04-28T17:05:32Z</time></trkpt><trkpt lat="43.28313420749849" lon="-0.24816738520043574"><ele>266.0</ele><time>2026-04-28T17:05:33Z</time></trkpt><trkpt lat="43.283175409532596" lon="-0.24831557766243179"><ele>266.0</ele><time>2026-04-28T17:05:34Z</time></trkpt><trkpt lat="43.28322340178407" lon="-0.24846826734636485"><ele>266.0</ele><time>2026-04-28T17:05:35Z</time></trkpt><trkpt lat="43.28325662403887" lon="-0.2486218291618719"><ele>266.0</ele><time>2026-04-28T17:05:36Z</time></trkpt><trkpt lat="43.2832969158724" lon="-0.24877368023948604"><ele>266.0</ele><time>2026-04-28T17:05:37Z</time></trkpt><trkpt lat="43.283339777614934" lon="-0.24892226082836175"><ele>266.0</ele><time>2026-04-28T17:05:38Z</time></trkpt><trkpt lat="43.283386578812554" lon="-0.24907266031864414"><ele>266.0</ele><time>2026-04-28T17:05:39Z</time></trkpt><trkpt lat="43.28342828958568" lon="-0.24922474933524352"><ele>266.0</ele><time>2026-04-28T17:05:40Z</time></trkpt><trkpt lat="43.283465974136654" lon="-0.24937572344686113"><ele>266.0</ele><time>2026-04-28T17:05:41Z</time></trkpt><trkpt lat="43.283508476875696" lon="-0.2495266362386073"><ele>266.0</ele><time>2026-04-28T17:05:42Z</time></trkpt><trkpt lat="43.28354985932439" lon="-0.24967953723032305"><ele>266.0</ele><time>2026-04-28T17:05:43Z</time></trkpt><trkpt lat="43.283593112155" lon="-0.2498311447071253"><ele>266.0</ele><time>2026-04-28T17:05:44Z</time></trkpt><trkpt lat="43.28363761410758" lon="-0.24998478849393593"><ele>266.0</ele><time>2026-04-28T17:05:45Z</time></trkpt><trkpt lat="43.283682023684754" lon="-0.25013929854245115"><ele>266.0</ele><time>2026-04-28T17:05:46Z</time></trkpt><trkpt lat="43.28372736024258" lon="-0.2502913202975483"><ele>266.0</ele><time>2026-04-28T17:05:47Z</time></trkpt><trkpt lat="43.28377269467786" lon="-0.25044476564844437"><ele>266.0</ele><time>2026-04-28T17:05:48Z</time></trkpt><trkpt lat="43.28381428534327" lon="-0.25060249632653153"><ele>266.0</ele><time>2026-04-28T17:05:49Z</time></trkpt><trkpt lat="43.28385872472075" lon="-0.2507497991404968"><ele>266.0</ele><time>2026-04-28T17:05:50Z</time></trkpt><trkpt lat="43.28390585423142" lon="-0.25090017776325396"><ele>266.0</ele><time>2026-04-28T17:05:51Z</time></trkpt><trkpt lat="43.28394319397395" lon="-0.25104861947579105"><ele>265.75</ele><time>2026-04-28T17:05:52Z</time></trkpt><trkpt lat="43.28398650243258" lon="-0.2511805711961078"><ele>265.5</ele><time>2026-04-28T17:05:53Z</time></trkpt><trkpt lat="43.284026598733945" lon="-0.25133317470302363"><ele>265.25</ele><time>2026-04-28T17:05:54Z</time></trkpt><trkpt lat="43.284063809926984" lon="-0.25150344815156084"><ele>265.0</ele><time>2026-04-28T17:05:55Z</time></trkpt><trkpt lat="43.28410595194888" lon="-0.2516677476980176"><ele>264.75</ele><time>2026-04-28T17:05:56Z</time></trkpt><trkpt lat="43.284124749815646" lon="-0.251821895379879"><ele>264.5</ele><time>2026-04-28T17:05:57Z</time></trkpt><trkpt lat="43.28414924710164" lon="-0.25194948216201973"><ele>264.25</ele><time>2026-04-28T17:05:58Z</time></trkpt><trkpt lat="43.28415377696766" lon="-0.25203854128339853"><ele>264.0</ele><time>2026-04-28T17:05:59Z</time></trkpt><trkpt lat="43.28386674102375" lon="-0.2524993609344075"><ele>263.5</ele><time>2026-04-28T17:06:00Z</time></trkpt><trkpt lat="43.2836628408187" lon="-0.2525522788237699"><ele>263.0</ele><time>2026-04-28T17:06:01Z</time></trkpt><trkpt lat="43.28434483560224" lon="-0.25257151049706633"><ele>263.0</ele><time>2026-04-28T17:06:02Z</time></trkpt><trkpt lat="43.284381888397974" lon="-0.25271383262412667"><ele>263.0</ele><time>2026-04-28T17:06:03Z</time></trkpt><trkpt lat="43.284420771632114" lon="-0.25286171418511716"><ele>263.0</ele><time>2026-04-28T17:06:04Z</time></trkpt><trkpt lat="43.28450051505423" lon="-0.2531510229042064"><ele>262.75</ele><time>2026-04-28T17:06:06Z</time></trkpt><trkpt lat="43.284541245072546" lon="-0.2532977111784297"><ele>262.5</ele><time>2026-04-28T17:06:07Z</time></trkpt><trkpt lat="43.28458304149055" lon="-0.2534465259792183"><ele>262.25</ele><time>2026-04-28T17:06:08Z</time></trkpt><trkpt lat="43.28462320435343" lon="-0.2535938792535766"><ele>262.0</ele><time>2026-04-28T17:06:09Z</time></trkpt><trkpt lat="43.284666437457616" lon="-0.2537454240421424"><ele>262.0</ele><time>2026-04-28T17:06:10Z</time></trkpt><trkpt lat="43.284708743785494" lon="-0.25389647597197046"><ele>262.0</ele><time>2026-04-28T17:06:11Z</time></trkpt><trkpt lat="43.28475074203833" lon="-0.25404655111541313"><ele>262.0</ele><time>2026-04-28T17:06:12Z</time></trkpt><trkpt lat="43.284793870317195" lon="-0.25419568860399167"><ele>262.0</ele><time>2026-04-28T17:06:13Z</time></trkpt><trkpt lat="43.284834717466914" lon="-0.25434760590256655"><ele>262.25</ele><time>2026-04-28T17:06:14Z</time></trkpt><trkpt lat="43.28487524581139" lon="-0.2544951608253865"><ele>262.5</ele><time>2026-04-28T17:06:15Z</time></trkpt><trkpt lat="43.28491530369851" lon="-0.25464383212001906"><ele>262.75</ele><time>2026-04-28T17:06:16Z</time></trkpt><trkpt lat="43.28495768271847" lon="-0.2547976685740515"><ele>263.0</ele><time>2026-04-28T17:06:17Z</time></trkpt><trkpt lat="43.28499773357448" lon="-0.2549465081213357"><ele>263.0</ele><time>2026-04-28T17:06:18Z</time></trkpt><trkpt lat="43.2850408486148" lon="-0.25509987476918433"><ele>263.0</ele><time>2026-04-28T17:06:19Z</time></trkpt><trkpt lat="43.28508310033134" lon="-0.2552500947958282"><ele>263.0</ele><time>2026-04-28T17:06:20Z</time></trkpt><trkpt lat="43.28512412004877" lon="-0.2554041393466809"><ele>263.0</ele><time>2026-04-28T17:06:21Z</time></trkpt><trkpt lat="43.28516645552391" lon="-0.2555574766709441"><ele>262.75</ele><time>2026-04-28T17:06:22Z</time></trkpt><trkpt lat="43.28520664668253" lon="-0.2557112232398436"><ele>262.5</ele><time>2026-04-28T17:06:23Z</time></trkpt><trkpt lat="43.285255615380315" lon="-0.2558559987013069"><ele>262.25</ele><time>2026-04-28T17:06:24Z</time></trkpt><trkpt lat="43.2852967418519" lon="-0.25600625096013335"><ele>262.0</ele><time>2026-04-28T17:06:25Z</time></trkpt><trkpt lat="43.28533723138398" lon="-0.2561592266679884"><ele>262.0</ele><time>2026-04-28T17:06:26Z</time></trkpt><trkpt lat="43.28537830971734" lon="-0.2563121226338353"><ele>262.0</ele><time>2026-04-28T17:06:27.001Z</time></trkpt><trkpt lat="43.28542109523108" lon="-0.25646512887657424"><ele>262.0</ele><time>2026-04-28T17:06:28.001Z</time></trkpt><trkpt lat="43.285463906382674" lon="-0.2566166998634984"><ele>262.0</ele><time>2026-04-28T17:06:29.001Z</time></trkpt><trkpt lat="43.285508876376475" lon="-0.2567651935288994"><ele>261.75</ele><time>2026-04-28T17:06:30.001Z</time></trkpt><trkpt lat="43.285548967092986" lon="-0.2569174851016206"><ele>261.5</ele><time>2026-04-28T17:06:31.001Z</time></trkpt><trkpt lat="43.28558803987286" lon="-0.25707168864505914"><ele>261.25</ele><time>2026-04-28T17:06:32.001Z</time></trkpt><trkpt lat="43.28562648692833" lon="-0.25722298615104794"><ele>261.0</ele><time>2026-04-28T17:06:33.001Z</time></trkpt><trkpt lat="43.28567792072485" lon="-0.25737361023341737"><ele>261.0</ele><time>2026-04-28T17:06:34.001Z</time></trkpt><trkpt lat="43.28572981067332" lon="-0.2575292975419893"><ele>261.0</ele><time>2026-04-28T17:06:35.001Z</time></trkpt><trkpt lat="43.285841764850254" lon="-0.2577490192793682"><ele>261.0</ele><time>2026-04-28T17:06:36.001Z</time></trkpt><trkpt lat="43.28579826302312" lon="-0.2578210723179286"><ele>261.0</ele><time>2026-04-28T17:06:37.001Z</time></trkpt><trkpt lat="43.285839956070035" lon="-0.2579674906644891"><ele>261.0</ele><time>2026-04-28T17:06:38.001Z</time></trkpt><trkpt lat="43.2858792465343" lon="-0.2581136659568967"><ele>261.0</ele><time>2026-04-28T17:06:39.001Z</time></trkpt><trkpt lat="43.28592050077848" lon="-0.2582612503813327"><ele>261.0</ele><time>2026-04-28T17:06:40.001Z</time></trkpt><trkpt lat="43.28595928615113" lon="-0.258408015043936"><ele>261.0</ele><time>2026-04-28T17:06:41.001Z</time></trkpt><trkpt lat="43.2860038388957" lon="-0.25855473581973176"><ele>261.0</ele><time>2026-04-28T17:06:42.001Z</time></trkpt><trkpt lat="43.28604423279124" lon="-0.2587000892004947"><ele>261.0</ele><time>2026-04-28T17:06:43.001Z</time></trkpt><trkpt lat="43.28608397960694" lon="-0.2588488352346191"><ele>261.0</ele><time>2026-04-28T17:06:44.001Z</time></trkpt><trkpt lat="43.286122962590056" lon="-0.25899864016666596"><ele>261.0</ele><time>2026-04-28T17:06:45.001Z</time></trkpt><trkpt lat="43.286159603638424" lon="-0.2591451726704716"><ele>261.0</ele><time>2026-04-28T17:06:46.001Z</time></trkpt><trkpt lat="43.28619804554112" lon="-0.2592889165433145"><ele>261.0</ele><time>2026-04-28T17:06:47.001Z</time></trkpt><trkpt lat="43.286235943879525" lon="-0.25943684096327724"><ele>261.0</ele><time>2026-04-28T17:06:48.001Z</time></trkpt><trkpt lat="43.28627554427993" lon="-0.25958466482315645"><ele>261.0</ele><time>2026-04-28T17:06:49.001Z</time></trkpt><trkpt lat="43.28631592555927" lon="-0.25972895302697885"><ele>261.0</ele><time>2026-04-28T17:06:50.001Z</time></trkpt><trkpt lat="43.28635939975174" lon="-0.25987810951330914"><ele>261.0</ele><time>2026-04-28T17:06:51.001Z</time></trkpt><trkpt lat="43.2864020440146" lon="-0.26002315984398855"><ele>261.0</ele><time>2026-04-28T17:06:52.001Z</time></trkpt><trkpt lat="43.2864436549896" lon="-0.26017341531863103"><ele>261.0</ele><time>2026-04-28T17:06:53.001Z</time></trkpt><trkpt lat="43.286481661215525" lon="-0.2603217587020659"><ele>261.0</ele><time>2026-04-28T17:06:54.001Z</time></trkpt><trkpt lat="43.28652220396563" lon="-0.2604714103194013"><ele>261.0</ele><time>2026-04-28T17:06:55.001Z</time></trkpt><trkpt lat="43.28656334770255" lon="-0.26061735124717994"><ele>261.0</ele><time>2026-04-28T17:06:56.001Z</time></trkpt><trkpt lat="43.286603681703255" lon="-0.2607658137265351"><ele>261.0</ele><time>2026-04-28T17:06:57.001Z</time></trkpt><trkpt lat="43.28664390308113" lon="-0.2609134640648552"><ele>261.0</ele><time>2026-04-28T17:06:58.001Z</time></trkpt><trkpt lat="43.286684506314614" lon="-0.2610629056363676"><ele>261.0</ele><time>2026-04-28T17:06:59.001Z</time></trkpt><trkpt lat="43.28671918549278" lon="-0.2612168538144074"><ele>261.0</ele><time>2026-04-28T17:07:00.001Z</time></trkpt><trkpt lat="43.28676969950921" lon="-0.2613557822737058"><ele>261.0</ele><time>2026-04-28T17:07:01.001Z</time></trkpt><trkpt lat="43.28680703722459" lon="-0.2615061860434494"><ele>260.5</ele><time>2026-04-28T17:07:02.001Z</time></trkpt><trkpt lat="43.28684454462793" lon="-0.26165973827475286"><ele>260.0</ele><time>2026-04-28T17:07:03.001Z</time></trkpt><trkpt lat="43.2868945551781" lon="-0.26180536032676077"><ele>259.5</ele><time>2026-04-28T17:07:04.001Z</time></trkpt><trkpt lat="43.28692646257382" lon="-0.26195289493346335"><ele>259.0</ele><time>2026-04-28T17:07:05.001Z</time></trkpt><trkpt lat="43.2869700418179" lon="-0.2621017470135585"><ele>259.0</ele><time>2026-04-28T17:07:06.001Z</time></trkpt><trkpt lat="43.287007744313556" lon="-0.262252129503294"><ele>259.0</ele><time>2026-04-28T17:07:07.001Z</time></trkpt><trkpt lat="43.287054301420184" lon="-0.26239916880885805"><ele>259.0</ele><time>2026-04-28T17:07:08.001Z</time></trkpt><trkpt lat="43.287086003950364" lon="-0.26254777583743594"><ele>259.0</ele><time>2026-04-28T17:07:09.001Z</time></trkpt><trkpt lat="43.287099003007825" lon="-0.26270008196407396"><ele>259.0</ele><time>2026-04-28T17:07:10.001Z</time></trkpt><trkpt lat="43.28717711659089" lon="-0.26284393186331556"><ele>259.0</ele><time>2026-04-28T17:07:11.001Z</time></trkpt><trkpt lat="43.28721600880517" lon="-0.26300300156378814"><ele>259.0</ele><time>2026-04-28T17:07:12.001Z</time></trkpt><trkpt lat="43.28725192228997" lon="-0.26319483392190274"><ele>259.0</ele><time>2026-04-28T17:07:13.001Z</time></trkpt><trkpt lat="43.287289483426584" lon="-0.26342539947654314"><ele>258.75</ele><time>2026-04-28T17:07:14.001Z</time></trkpt><trkpt lat="43.287366342089534" lon="-0.26363761435813443"><ele>258.5</ele><time>2026-04-28T17:07:15.001Z</time></trkpt><trkpt lat="43.28743866252016" lon="-0.2637455680807218"><ele>258.25</ele><time>2026-04-28T17:07:17.001Z</time></trkpt><trkpt lat="43.28747530247021" lon="-0.2638928908930977"><ele>258.0</ele><time>2026-04-28T17:07:18.001Z</time></trkpt><trkpt lat="43.287517476370915" lon="-0.26404514415740143"><ele>257.75</ele><time>2026-04-28T17:07:19.001Z</time></trkpt><trkpt lat="43.28755941411699" lon="-0.2641955270096872"><ele>257.5</ele><time>2026-04-28T17:07:20.001Z</time></trkpt><trkpt lat="43.28760080683362" lon="-0.2643407751784538"><ele>257.25</ele><time>2026-04-28T17:07:21.001Z</time></trkpt><trkpt lat="43.2876395195806" lon="-0.26449146337468354"><ele>257.0</ele><time>2026-04-28T17:07:22.001Z</time></trkpt><trkpt lat="43.28768014950675" lon="-0.2646417873201451"><ele>257.0</ele><time>2026-04-28T17:07:23.001Z</time></trkpt><trkpt lat="43.28771935316605" lon="-0.26479152829103336"><ele>257.0</ele><time>2026-04-28T17:07:24.001Z</time></trkpt><trkpt lat="43.287750238193105" lon="-0.2649427575284745"><ele>257.0</ele><time>2026-04-28T17:07:25.001Z</time></trkpt><trkpt lat="43.287792518888004" lon="-0.2650860738037178"><ele>257.0</ele><time>2026-04-28T17:07:26.001Z</time></trkpt><trkpt lat="43.28783532035885" lon="-0.26523134632153916"><ele>257.0</ele><time>2026-04-28T17:07:27.001Z</time></trkpt><trkpt lat="43.2879004832994" lon="-0.2653758043671687"><ele>257.0</ele><time>2026-04-28T17:07:28.001Z</time></trkpt><trkpt lat="43.28793101362195" lon="-0.26552520648747197"><ele>257.0</ele><time>2026-04-28T17:07:29.001Z</time></trkpt><trkpt lat="43.28796597519554" lon="-0.2656789681925147"><ele>257.0</ele><time>2026-04-28T17:07:30.001Z</time></trkpt><trkpt lat="43.28800547967415" lon="-0.2658297943386723"><ele>257.25</ele><time>2026-04-28T17:07:31.001Z</time></trkpt><trkpt lat="43.28804818799017" lon="-0.265984007855702"><ele>257.5</ele><time>2026-04-28T17:07:32.001Z</time></trkpt><trkpt lat="43.288090135945225" lon="-0.2661355740169313"><ele>257.75</ele><time>2026-04-28T17:07:33.001Z</time></trkpt><trkpt lat="43.28813377160769" lon="-0.26628831902297134"><ele>258.0</ele><time>2026-04-28T17:07:34.001Z</time></trkpt><trkpt lat="43.28817279595241" lon="-0.2664413091138308"><ele>257.5</ele><time>2026-04-28T17:07:35.001Z</time></trkpt><trkpt lat="43.28821303441516" lon="-0.26658807504170906"><ele>257.0</ele><time>2026-04-28T17:07:36Z</time></trkpt><trkpt lat="43.28825338077986" lon="-0.2667414714251562"><ele>256.5</ele><time>2026-04-28T17:07:37Z</time></trkpt><trkpt lat="43.28829585156928" lon="-0.26689718411277413"><ele>256.0</ele><time>2026-04-28T17:07:38Z</time></trkpt><trkpt lat="43.288338760339116" lon="-0.26705065345432005"><ele>256.0</ele><time>2026-04-28T17:07:39Z</time></trkpt><trkpt lat="43.28838050343362" lon="-0.26720348642128117"><ele>256.0</ele><time>2026-04-28T17:07:40Z</time></trkpt><trkpt lat="43.28841930144341" lon="-0.2673618133547896"><ele>256.0</ele><time>2026-04-28T17:07:41Z</time></trkpt><trkpt lat="43.288459103946764" lon="-0.26751264414261816"><ele>256.0</ele><time>2026-04-28T17:07:42Z</time></trkpt><trkpt lat="43.2884992744708" lon="-0.26766390958181335"><ele>256.0</ele><time>2026-04-28T17:07:43Z</time></trkpt><trkpt lat="43.28854154219121" lon="-0.26782036571920703"><ele>256.0</ele><time>2026-04-28T17:07:44Z</time></trkpt><trkpt lat="43.28858519191974" lon="-0.2679705311734542"><ele>256.0</ele><time>2026-04-28T17:07:45Z</time></trkpt><trkpt lat="43.28862286210423" lon="-0.2681166847582786"><ele>256.0</ele><time>2026-04-28T17:07:46Z</time></trkpt><trkpt lat="43.28866223616828" lon="-0.2682629353530043"><ele>256.0</ele><time>2026-04-28T17:07:47Z</time></trkpt><trkpt lat="43.28870072848229" lon="-0.26840420377353724"><ele>256.0</ele><time>2026-04-28T17:07:48Z</time></trkpt><trkpt lat="43.28874079909038" lon="-0.26854330367998075"><ele>256.0</ele><time>2026-04-28T17:07:49Z</time></trkpt><trkpt lat="43.288778048219385" lon="-0.268671994887068"><ele>256.0</ele><time>2026-04-28T17:07:50Z</time></trkpt><trkpt lat="43.288812743736656" lon="-0.2688010054934463"><ele>256.0</ele><time>2026-04-28T17:07:51Z</time></trkpt><trkpt lat="43.28884748428366" lon="-0.26892482428745623"><ele>256.2</ele><time>2026-04-28T17:07:52Z</time></trkpt><trkpt lat="43.28888349377352" lon="-0.2690448601853011"><ele>256.40000000000003</ele><time>2026-04-28T17:07:53Z</time></trkpt><trkpt lat="43.28891270315994" lon="-0.26916327054336997"><ele>256.6</ele><time>2026-04-28T17:07:54Z</time></trkpt><trkpt lat="43.28894199901824" lon="-0.26928445985922556"><ele>256.8</ele><time>2026-04-28T17:07:55Z</time></trkpt><trkpt lat="43.28897733168191" lon="-0.26940672140727423"><ele>257.0</ele><time>2026-04-28T17:07:56Z</time></trkpt><trkpt lat="43.289010747289936" lon="-0.26952698622291543"><ele>256.83333333333337</ele><time>2026-04-28T17:07:57Z</time></trkpt><trkpt lat="43.28904259671167" lon="-0.2696459902372851"><ele>256.6666666666667</ele><time>2026-04-28T17:07:58Z</time></trkpt><trkpt lat="43.28907124340168" lon="-0.26975604906691836"><ele>256.5</ele><time>2026-04-28T17:07:59Z</time></trkpt><trkpt lat="43.28909946528809" lon="-0.26985737864360165"><ele>256.3333333333333</ele><time>2026-04-28T17:08:00Z</time></trkpt><trkpt lat="43.28912215070443" lon="-0.269957229746536"><ele>256.16666666666663</ele><time>2026-04-28T17:08:01Z</time></trkpt><trkpt lat="43.28915031416871" lon="-0.2700491410147551"><ele>256.0</ele><time>2026-04-28T17:08:02Z</time></trkpt><trkpt lat="43.28917297818693" lon="-0.27014128495802164"><ele>256.0</ele><time>2026-04-28T17:08:03Z</time></trkpt><trkpt lat="43.28919940625562" lon="-0.2702337067096905"><ele>255.99999999999997</ele><time>2026-04-28T17:08:04Z</time></trkpt><trkpt lat="43.289230078372974" lon="-0.2703266845170927"><ele>256.0</ele><time>2026-04-28T17:08:05Z</time></trkpt><trkpt lat="43.28925288234465" lon="-0.27042301388442774"><ele>256.0</ele><time>2026-04-28T17:08:06Z</time></trkpt><trkpt lat="43.28927958070775" lon="-0.27051383513674515"><ele>255.99999999999997</ele><time>2026-04-28T17:08:07Z</time></trkpt><trkpt lat="43.289299151914015" lon="-0.27061373304736847"><ele>256.0</ele><time>2026-04-28T17:08:08Z</time></trkpt><trkpt lat="43.28932470326169" lon="-0.27071207594754176"><ele>256.0</ele><time>2026-04-28T17:08:09Z</time></trkpt><trkpt lat="43.289347462734256" lon="-0.27083477296723596"><ele>255.83333333333331</ele><time>2026-04-28T17:08:10Z</time></trkpt><trkpt lat="43.28938280442331" lon="-0.2709293047320944"><ele>255.66666666666666</ele><time>2026-04-28T17:08:11Z</time></trkpt><trkpt lat="43.289411427243145" lon="-0.2710406207124944"><ele>255.5</ele><time>2026-04-28T17:08:12Z</time></trkpt><trkpt lat="43.289441325685004" lon="-0.2711473182093229"><ele>255.33333333333331</ele><time>2026-04-28T17:08:13Z</time></trkpt><trkpt lat="43.28946791384448" lon="-0.2712531421969445"><ele>255.16666666666666</ele><time>2026-04-28T17:08:14Z</time></trkpt><trkpt lat="43.289501482523974" lon="-0.2713557590299661"><ele>255.0</ele><time>2026-04-28T17:08:15Z</time></trkpt><trkpt lat="43.28953141748584" lon="-0.2714640324177882"><ele>255.0</ele><time>2026-04-28T17:08:16Z</time></trkpt><trkpt lat="43.28956382226248" lon="-0.27158057270123936"><ele>255.0</ele><time>2026-04-28T17:08:17Z</time></trkpt><trkpt lat="43.28959308019548" lon="-0.2716978151527682"><ele>255.0</ele><time>2026-04-28T17:08:18Z</time></trkpt><trkpt lat="43.28963045575457" lon="-0.2718184298055687"><ele>255.0</ele><time>2026-04-28T17:08:19Z</time></trkpt><trkpt lat="43.28966416033415" lon="-0.27194447695386803"><ele>255.0</ele><time>2026-04-28T17:08:20Z</time></trkpt><trkpt lat="43.28969973115431" lon="-0.2720665219133429"><ele>255.0</ele><time>2026-04-28T17:08:21Z</time></trkpt><trkpt lat="43.28974065260785" lon="-0.27219016935670043"><ele>255.0</ele><time>2026-04-28T17:08:22Z</time></trkpt><trkpt lat="43.289780117563765" lon="-0.2723139977868687"><ele>255.0</ele><time>2026-04-28T17:08:23Z</time></trkpt><trkpt lat="43.28981381520499" lon="-0.27243828160404615"><ele>255.0</ele><time>2026-04-28T17:08:24Z</time></trkpt><trkpt lat="43.28984814277766" lon="-0.2725582870856517"><ele>255.0</ele><time>2026-04-28T17:08:25Z</time></trkpt><trkpt lat="43.2898824836963" lon="-0.272673009050561"><ele>254.83333333333334</ele><time>2026-04-28T17:08:26Z</time></trkpt><trkpt lat="43.289917576230074" lon="-0.2727884055205643"><ele>254.66666666666669</ele><time>2026-04-28T17:08:27Z</time></trkpt><trkpt lat="43.28994894160523" lon="-0.2728944619103628"><ele>254.5</ele><time>2026-04-28T17:08:28Z</time></trkpt><trkpt lat="43.28997717363958" lon="-0.2729967514540016"><ele>254.33333333333334</ele><time>2026-04-28T17:08:29Z</time></trkpt><trkpt lat="43.29000393965405" lon="-0.27309451251134226"><ele>254.16666666666669</ele><time>2026-04-28T17:08:30.001Z</time></trkpt><trkpt lat="43.290029909444165" lon="-0.27318397555128837"><ele>254.0</ele><time>2026-04-28T17:08:31.001Z</time></trkpt><trkpt lat="43.29005167480413" lon="-0.27326926486443365"><ele>253.83333333333334</ele><time>2026-04-28T17:08:32.001Z</time></trkpt><trkpt lat="43.29009087296218" lon="-0.27340902199691514"><ele>253.66666666666669</ele><time>2026-04-28T17:08:34.001Z</time></trkpt><trkpt lat="43.29011672031704" lon="-0.2735065674338004"><ele>253.5</ele><time>2026-04-28T17:08:36.001Z</time></trkpt><trkpt lat="43.290126764215024" lon="-0.27361727754704745"><ele>253.33333333333331</ele><time>2026-04-28T17:13:27.001Z</time></trkpt><trkpt lat="43.2901627822794" lon="-0.27372505565761396"><ele>253.16666666666666</ele><time>2026-04-28T17:13:30.001Z</time></trkpt><trkpt lat="43.29019301402941" lon="-0.273852072364343"><ele>253.0</ele><time>2026-04-28T17:13:32.001Z</time></trkpt><trkpt lat="43.29021884415418" lon="-0.27393534757931853"><ele>252.8571428571429</ele><time>2026-04-28T17:13:33.001Z</time></trkpt><trkpt lat="43.29024394019362" lon="-0.27401611434761025"><ele>252.71428571428572</ele><time>2026-04-28T17:13:34.001Z</time></trkpt><trkpt lat="43.29026672307178" lon="-0.274096739119678"><ele>252.57142857142858</ele><time>2026-04-28T17:13:35.001Z</time></trkpt><trkpt lat="43.290288775369106" lon="-0.2741833891005457"><ele>252.42857142857144</ele><time>2026-04-28T17:13:36.001Z</time></trkpt><trkpt lat="43.29031513427129" lon="-0.2742756731296781"><ele>252.28571428571428</ele><time>2026-04-28T17:13:37.001Z</time></trkpt><trkpt lat="43.290342229579416" lon="-0.27437356485229936"><ele>252.14285714285714</ele><time>2026-04-28T17:13:38.001Z</time></trkpt><trkpt lat="43.29036734832805" lon="-0.27447637292060634"><ele>252.0</ele><time>2026-04-28T17:13:39.001Z</time></trkpt><trkpt lat="43.29039540745983" lon="-0.2745851021697875"><ele>252.0</ele><time>2026-04-28T17:13:40.001Z</time></trkpt><trkpt lat="43.29042648005815" lon="-0.27469663415853907"><ele>252.0</ele><time>2026-04-28T17:13:41.001Z</time></trkpt><trkpt lat="43.290456252192236" lon="-0.27481110412673254"><ele>252.0</ele><time>2026-04-28T17:13:42.001Z</time></trkpt><trkpt lat="43.29049249581978" lon="-0.27492816413660637"><ele>252.0</ele><time>2026-04-28T17:13:43.001Z</time></trkpt><trkpt lat="43.290529472282586" lon="-0.27504942461233706"><ele>252.0</ele><time>2026-04-28T17:13:44.001Z</time></trkpt><trkpt lat="43.29056382144289" lon="-0.2751773085754582"><ele>251.6</ele><time>2026-04-28T17:13:45.001Z</time></trkpt><trkpt lat="43.29060106462554" lon="-0.27530624965788275"><ele>251.2</ele><time>2026-04-28T17:13:46.001Z</time></trkpt><trkpt lat="43.29064327129615" lon="-0.2754292243859812"><ele>250.8</ele><time>2026-04-28T17:13:47.001Z</time></trkpt><trkpt lat="43.29068372100153" lon="-0.2755659379211087"><ele>250.4</ele><time>2026-04-28T17:13:48.001Z</time></trkpt><trkpt lat="43.29072847961533" lon="-0.27569138747237565"><ele>250.0</ele><time>2026-04-28T17:13:49.001Z</time></trkpt><trkpt lat="43.290775863869705" lon="-0.2758189915908868"><ele>249.75</ele><time>2026-04-28T17:13:50.001Z</time></trkpt><trkpt lat="43.290813911280814" lon="-0.2759659453451979"><ele>249.5</ele><time>2026-04-28T17:13:51.001Z</time></trkpt><trkpt lat="43.29083775861328" lon="-0.27612166179664105"><ele>249.25</ele><time>2026-04-28T17:13:52.001Z</time></trkpt><trkpt lat="43.29086597387121" lon="-0.27627733065097154"><ele>249.0</ele><time>2026-04-28T17:13:53Z</time></trkpt><trkpt lat="43.29090586875833" lon="-0.2764197347402398"><ele>249.0</ele><time>2026-04-28T17:13:54Z</time></trkpt><trkpt lat="43.29094424381354" lon="-0.27656330271024054"><ele>248.99999999999997</ele><time>2026-04-28T17:13:55Z</time></trkpt><trkpt lat="43.29098135065805" lon="-0.2767057123748952"><ele>248.99999999999997</ele><time>2026-04-28T17:13:56Z</time></trkpt><trkpt lat="43.291022170416696" lon="-0.276847296310368"><ele>249.0</ele><time>2026-04-28T17:13:57Z</time></trkpt><trkpt lat="43.291059517282264" lon="-0.2769901314345062"><ele>249.0</ele><time>2026-04-28T17:13:58Z</time></trkpt><trkpt lat="43.29109664688795" lon="-0.2771319701204389"><ele>249.0</ele><time>2026-04-28T17:13:59Z</time></trkpt><trkpt lat="43.29113627121877" lon="-0.27727369584749506"><ele>248.99999999999997</ele><time>2026-04-28T17:14:00Z</time></trkpt><trkpt lat="43.29117570719827" lon="-0.27741548427820145"><ele>248.99999999999997</ele><time>2026-04-28T17:14:01Z</time></trkpt><trkpt lat="43.291216356041595" lon="-0.2775588423650406"><ele>249.0</ele><time>2026-04-28T17:14:02Z</time></trkpt><trkpt lat="43.291255167213386" lon="-0.27770260989602374"><ele>249.0</ele><time>2026-04-28T17:14:03Z</time></trkpt><trkpt lat="43.29129154132223" lon="-0.27784487203101227"><ele>249.0</ele><time>2026-04-28T17:14:04Z</time></trkpt><trkpt lat="43.291331369156815" lon="-0.27798561722494547"><ele>248.99999999999997</ele><time>2026-04-28T17:14:05Z</time></trkpt><trkpt lat="43.29137158901257" lon="-0.27812707807045983"><ele>248.99999999999997</ele><time>2026-04-28T17:14:06Z</time></trkpt><trkpt lat="43.29141409875382" lon="-0.27826990703584936"><ele>249.0</ele><time>2026-04-28T17:14:07Z</time></trkpt><trkpt lat="43.29145069966858" lon="-0.27841627521179857"><ele>249.0</ele><time>2026-04-28T17:14:08Z</time></trkpt><trkpt lat="43.29148968408145" lon="-0.27856029556799977"><ele>249.2</ele><time>2026-04-28T17:14:09Z</time></trkpt><trkpt lat="43.29153060335809" lon="-0.27870368738167384"><ele>249.39999999999998</ele><time>2026-04-28T17:14:10Z</time></trkpt><trkpt lat="43.291570008597304" lon="-0.2788462334099595"><ele>249.6</ele><time>2026-04-28T17:14:11Z</time></trkpt><trkpt lat="43.291606865453" lon="-0.27898906894104253"><ele>249.8</ele><time>2026-04-28T17:14:12Z</time></trkpt><trkpt lat="43.291646385223615" lon="-0.2791326938547331"><ele>250.0</ele><time>2026-04-28T17:14:13Z</time></trkpt><trkpt lat="43.29168685268324" lon="-0.27927612625449033"><ele>250.0</ele><time>2026-04-28T17:14:14Z</time></trkpt><trkpt lat="43.291727291965465" lon="-0.2794209604718167"><ele>250.0</ele><time>2026-04-28T17:14:15Z</time></trkpt><trkpt lat="43.29176748943312" lon="-0.27956497455558904"><ele>250.0</ele><time>2026-04-28T17:14:16Z</time></trkpt><trkpt lat="43.291806719662695" lon="-0.2797111556553749"><ele>250.0</ele><time>2026-04-28T17:14:17Z</time></trkpt><trkpt lat="43.29184902031044" lon="-0.2798571938121523"><ele>250.0</ele><time>2026-04-28T17:14:18Z</time></trkpt><trkpt lat="43.29189121791821" lon="-0.2800047966918133"><ele>250.0</ele><time>2026-04-28T17:14:19Z</time></trkpt><trkpt lat="43.29192314904603" lon="-0.2801492883222601"><ele>250.0</ele><time>2026-04-28T17:14:20Z</time></trkpt><trkpt lat="43.29195685265582" lon="-0.2802920749577416"><ele>250.0</ele><time>2026-04-28T17:14:21Z</time></trkpt><trkpt lat="43.29200685767186" lon="-0.280420545982831"><ele>250.0</ele><time>2026-04-28T17:14:22Z</time></trkpt><trkpt lat="43.292056005334075" lon="-0.28058506100156677"><ele>249.33333333333331</ele><time>2026-04-28T17:14:23Z</time></trkpt><trkpt lat="43.2920820626645" lon="-0.2808170761151522"><ele>248.66666666666669</ele><time>2026-04-28T17:14:24Z</time></trkpt><trkpt lat="43.29216307189959" lon="-0.28107414618997023"><ele>248.0</ele><time>2026-04-28T17:14:25Z</time></trkpt><trkpt lat="43.29222023995326" lon="-0.28119118450713"><ele>247.75</ele><time>2026-04-28T17:14:27Z</time></trkpt><trkpt lat="43.29225790299753" lon="-0.28133758384186164"><ele>247.5</ele><time>2026-04-28T17:14:28Z</time></trkpt><trkpt lat="43.2922983666522" lon="-0.28148943028134965"><ele>247.25</ele><time>2026-04-28T17:14:29Z</time></trkpt><trkpt lat="43.292337093351236" lon="-0.28163561725897907"><ele>247.0</ele><time>2026-04-28T17:14:30Z</time></trkpt><trkpt lat="43.292377299411946" lon="-0.2817852898843579"><ele>247.0</ele><time>2026-04-28T17:14:31Z</time></trkpt><trkpt lat="43.29241586870755" lon="-0.2819336660493316"><ele>247.0</ele><time>2026-04-28T17:14:32Z</time></trkpt><trkpt lat="43.2924573609901" lon="-0.28208188735871"><ele>247.0</ele><time>2026-04-28T17:14:33Z</time></trkpt><trkpt lat="43.292494762858084" lon="-0.28223191416213445"><ele>247.0</ele><time>2026-04-28T17:14:34Z</time></trkpt><trkpt lat="43.29253274694365" lon="-0.2823850605414642"><ele>246.5</ele><time>2026-04-28T17:14:35Z</time></trkpt><trkpt lat="43.29257584591606" lon="-0.2825306582032137"><ele>246.0</ele><time>2026-04-28T17:14:36Z</time></trkpt><trkpt lat="43.29261726186764" lon="-0.28267865595127906"><ele>245.5</ele><time>2026-04-28T17:14:37Z</time></trkpt><trkpt lat="43.292660257865016" lon="-0.28282981138135876"><ele>245.0</ele><time>2026-04-28T17:14:38Z</time></trkpt><trkpt lat="43.29269905999097" lon="-0.28297592394625115"><ele>245.25</ele><time>2026-04-28T17:14:39Z</time></trkpt><trkpt lat="43.29274167292723" lon="-0.28312424523215673"><ele>245.5</ele><time>2026-04-28T17:14:40Z</time></trkpt><trkpt lat="43.29278163202331" lon="-0.28327260413255545"><ele>245.75</ele><time>2026-04-28T17:14:41Z</time></trkpt><trkpt lat="43.29282183566981" lon="-0.2834153030567333"><ele>246.0</ele><time>2026-04-28T17:14:42Z</time></trkpt><trkpt lat="43.29286239924885" lon="-0.2835635903620182"><ele>246.0</ele><time>2026-04-28T17:14:43Z</time></trkpt><trkpt lat="43.29290240880597" lon="-0.28371390683265846"><ele>246.0</ele><time>2026-04-28T17:14:44Z</time></trkpt><trkpt lat="43.2929419537888" lon="-0.2838667264942044"><ele>246.0</ele><time>2026-04-28T17:14:45Z</time></trkpt><trkpt lat="43.292986539662216" lon="-0.284011245083615"><ele>246.0</ele><time>2026-04-28T17:14:46Z</time></trkpt><trkpt lat="43.29302920103927" lon="-0.28415621397423774"><ele>245.8</ele><time>2026-04-28T17:14:47Z</time></trkpt><trkpt lat="43.293069204837444" lon="-0.28430146861203875"><ele>245.60000000000002</ele><time>2026-04-28T17:14:48Z</time></trkpt><trkpt lat="43.29310610186526" lon="-0.28444713545787764"><ele>245.4</ele><time>2026-04-28T17:14:49Z</time></trkpt><trkpt lat="43.293145502004236" lon="-0.28458456378834285"><ele>245.2</ele><time>2026-04-28T17:14:50Z</time></trkpt><trkpt lat="43.29318370625008" lon="-0.2847301542771651"><ele>245.0</ele><time>2026-04-28T17:14:51Z</time></trkpt><trkpt lat="43.293225538741076" lon="-0.28487455240892673"><ele>244.75</ele><time>2026-04-28T17:14:52Z</time></trkpt><trkpt lat="43.29326525944888" lon="-0.28501942546558373"><ele>244.5</ele><time>2026-04-28T17:14:53Z</time></trkpt><trkpt lat="43.293304706448815" lon="-0.28516962833836523"><ele>244.25</ele><time>2026-04-28T17:14:54Z</time></trkpt><trkpt lat="43.2933461135955" lon="-0.285315060103913"><ele>244.0</ele><time>2026-04-28T17:14:55Z</time></trkpt><trkpt lat="43.293384809180765" lon="-0.28545926661924353"><ele>244.0</ele><time>2026-04-28T17:14:56Z</time></trkpt><trkpt lat="43.2934236509291" lon="-0.2856084627078725"><ele>244.0</ele><time>2026-04-28T17:14:57Z</time></trkpt><trkpt lat="43.29346170988654" lon="-0.28575585678617693"><ele>244.0</ele><time>2026-04-28T17:14:58Z</time></trkpt><trkpt lat="43.2935031475917" lon="-0.2859040580822512"><ele>244.0</ele><time>2026-04-28T17:14:59Z</time></trkpt><trkpt lat="43.293547219678956" lon="-0.28605271222182826"><ele>244.0</ele><time>2026-04-28T17:15:00Z</time></trkpt><trkpt lat="43.293583041034374" lon="-0.28619892745522457"><ele>244.0</ele><time>2026-04-28T17:15:01Z</time></trkpt><trkpt lat="43.29363512177727" lon="-0.2863565563798097"><ele>244.0</ele><time>2026-04-28T17:15:02Z</time></trkpt><trkpt lat="43.29371204430846" lon="-0.28652873345179997"><ele>244.0</ele><time>2026-04-28T17:15:03Z</time></trkpt><trkpt lat="43.29379194235579" lon="-0.28671012222169406"><ele>244.25</ele><time>2026-04-28T17:15:04Z</time></trkpt><trkpt lat="43.29381167739851" lon="-0.28684435914860457"><ele>244.5</ele><time>2026-04-28T17:15:05Z</time></trkpt><trkpt lat="43.29379219065441" lon="-0.2869592721165777"><ele>244.75</ele><time>2026-04-28T17:15:06Z</time></trkpt><trkpt lat="43.29384205041558" lon="-0.2871114461598579"><ele>245.0</ele><time>2026-04-28T17:15:07Z</time></trkpt><trkpt lat="43.29394368301277" lon="-0.28730228960490845"><ele>244.33333333333334</ele><time>2026-04-28T17:15:08Z</time></trkpt><trkpt lat="43.294061561123954" lon="-0.2874955037678835"><ele>243.66666666666669</ele><time>2026-04-28T17:15:09Z</time></trkpt><trkpt lat="43.2940779817644" lon="-0.28776268217796785"><ele>243.0</ele><time>2026-04-28T17:15:10Z</time></trkpt><trkpt lat="43.29400711199512" lon="-0.28770203116156856"><ele>243.0</ele><time>2026-04-28T17:15:11Z</time></trkpt><trkpt lat="43.29404760415329" lon="-0.2878532267192131"><ele>243.0</ele><time>2026-04-28T17:15:12Z</time></trkpt><trkpt lat="43.29408705090795" lon="-0.2880000679218566"><ele>243.0</ele><time>2026-04-28T17:15:13Z</time></trkpt><trkpt lat="43.294122863122126" lon="-0.28813218963349246"><ele>243.0</ele><time>2026-04-28T17:15:14.001Z</time></trkpt><trkpt lat="43.29415422040565" lon="-0.2882480665697268"><ele>243.0</ele><time>2026-04-28T17:15:15.001Z</time></trkpt><trkpt lat="43.29417969584755" lon="-0.28834689959722726"><ele>243.0</ele><time>2026-04-28T17:15:16.001Z</time></trkpt><trkpt lat="43.29420234928734" lon="-0.28843220030901834"><ele>243.0</ele><time>2026-04-28T17:15:17.001Z</time></trkpt><trkpt lat="43.294233482572075" lon="-0.28855920010714237"><ele>243.0</ele><time>2026-04-28T17:15:19.001Z</time></trkpt><trkpt lat="43.29425902448399" lon="-0.288657718416095"><ele>243.0</ele><time>2026-04-28T17:15:22.001Z</time></trkpt><trkpt lat="43.29429085646772" lon="-0.2887848675140514"><ele>243.0</ele><time>2026-04-28T17:15:46.001Z</time></trkpt><trkpt lat="43.2943416616728" lon="-0.28895427919912686"><ele>243.16666666666666</ele><time>2026-04-28T17:15:48.001Z</time></trkpt><trkpt lat="43.294373217744074" lon="-0.2890530977326576"><ele>243.33333333333331</ele><time>2026-04-28T17:15:49.001Z</time></trkpt><trkpt lat="43.29440252075943" lon="-0.28915709077073104"><ele>243.5</ele><time>2026-04-28T17:15:50.001Z</time></trkpt><trkpt lat="43.294431507750886" lon="-0.2892722980920667"><ele>243.66666666666666</ele><time>2026-04-28T17:15:51.001Z</time></trkpt><trkpt lat="43.29446562980579" lon="-0.289387843183253"><ele>243.83333333333331</ele><time>2026-04-28T17:15:52.001Z</time></trkpt><trkpt lat="43.294503884851444" lon="-0.2895099324416989"><ele>244.0</ele><time>2026-04-28T17:15:53.001Z</time></trkpt><trkpt lat="43.294539885165506" lon="-0.28964196181905544"><ele>244.0</ele><time>2026-04-28T17:15:54.001Z</time></trkpt><trkpt lat="43.294575744994916" lon="-0.2897722955281674"><ele>243.99999999999997</ele><time>2026-04-28T17:15:55.001Z</time></trkpt><trkpt lat="43.29461209633293" lon="-0.28990702314366074"><ele>243.99999999999997</ele><time>2026-04-28T17:15:56.001Z</time></trkpt><trkpt lat="43.294649925144725" lon="-0.2900454815395962"><ele>244.0</ele><time>2026-04-28T17:15:57.001Z</time></trkpt><trkpt lat="43.294691284410085" lon="-0.2901818847090203"><ele>244.0</ele><time>2026-04-28T17:15:58.001Z</time></trkpt><trkpt lat="43.29472903788861" lon="-0.2903232487016012"><ele>244.0</ele><time>2026-04-28T17:15:59Z</time></trkpt><trkpt lat="43.294770163442294" lon="-0.29046748275490325"><ele>244.0</ele><time>2026-04-28T17:16:00Z</time></trkpt><trkpt lat="43.29480917719032" lon="-0.29061325848777547"><ele>244.0</ele><time>2026-04-28T17:16:01Z</time></trkpt><trkpt lat="43.294849572824724" lon="-0.29075870448397834"><ele>244.0</ele><time>2026-04-28T17:16:02Z</time></trkpt><trkpt lat="43.294887170939305" lon="-0.29090151822635174"><ele>244.0</ele><time>2026-04-28T17:16:03Z</time></trkpt><trkpt lat="43.2949312130282" lon="-0.29105680559164254"><ele>244.0</ele><time>2026-04-28T17:16:04Z</time></trkpt><trkpt lat="43.29497554167771" lon="-0.29121734785887643"><ele>244.0</ele><time>2026-04-28T17:16:05Z</time></trkpt><trkpt lat="43.29500425886373" lon="-0.2913520396076659"><ele>244.0</ele><time>2026-04-28T17:16:06Z</time></trkpt><trkpt lat="43.29504536825125" lon="-0.29149949211403225"><ele>244.0</ele><time>2026-04-28T17:16:07Z</time></trkpt><trkpt lat="43.295090609814416" lon="-0.29165042317021184"><ele>244.0</ele><time>2026-04-28T17:16:08Z</time></trkpt><trkpt lat="43.29512972550658" lon="-0.2917954099570627"><ele>244.0</ele><time>2026-04-28T17:16:09Z</time></trkpt><trkpt lat="43.295170241020784" lon="-0.29193935262785653"><ele>244.0</ele><time>2026-04-28T17:16:10Z</time></trkpt><trkpt lat="43.2952079548735" lon="-0.2920865561422149"><ele>244.0</ele><time>2026-04-28T17:16:11Z</time></trkpt><trkpt lat="43.29524901176132" lon="-0.2922362826688689"><ele>244.0</ele><time>2026-04-28T17:16:12Z</time></trkpt><trkpt lat="43.29528685258249" lon="-0.2923778920337934"><ele>244.0</ele><time>2026-04-28T17:16:13Z</time></trkpt><trkpt lat="43.295327082296104" lon="-0.29252670419553484"><ele>244.0</ele><time>2026-04-28T17:16:14Z</time></trkpt><trkpt lat="43.29537009457413" lon="-0.2926791305951937"><ele>243.75</ele><time>2026-04-28T17:16:15Z</time></trkpt><trkpt lat="43.295409540482616" lon="-0.29282772319702893"><ele>243.5</ele><time>2026-04-28T17:16:16Z</time></trkpt><trkpt lat="43.29544697521153" lon="-0.29297576547762416"><ele>243.25</ele><time>2026-04-28T17:16:17Z</time></trkpt><trkpt lat="43.29548500561187" lon="-0.2931216118478662"><ele>243.0</ele><time>2026-04-28T17:16:18Z</time></trkpt><trkpt lat="43.29552654838925" lon="-0.29327472856667697"><ele>242.75</ele><time>2026-04-28T17:16:19Z</time></trkpt><trkpt lat="43.295566774783396" lon="-0.29341964595968245"><ele>242.5</ele><time>2026-04-28T17:16:20Z</time></trkpt><trkpt lat="43.29560813502744" lon="-0.29356675753980604"><ele>242.25</ele><time>2026-04-28T17:16:21Z</time></trkpt><trkpt lat="43.29564816645705" lon="-0.2937134510832089"><ele>242.0</ele><time>2026-04-28T17:16:22Z</time></trkpt><trkpt lat="43.29568990565241" lon="-0.2938618962486779"><ele>241.75</ele><time>2026-04-28T17:16:23Z</time></trkpt><trkpt lat="43.29573388964354" lon="-0.29401259320496237"><ele>241.5</ele><time>2026-04-28T17:16:24Z</time></trkpt><trkpt lat="43.29577466932045" lon="-0.29416279649550264"><ele>241.25</ele><time>2026-04-28T17:16:25Z</time></trkpt><trkpt lat="43.295814114574576" lon="-0.2943117379592399"><ele>241.0</ele><time>2026-04-28T17:16:26Z</time></trkpt><trkpt lat="43.29585379630297" lon="-0.2944606873694679"><ele>241.0</ele><time>2026-04-28T17:16:27Z</time></trkpt><trkpt lat="43.29589383822045" lon="-0.29461300518024863"><ele>241.0</ele><time>2026-04-28T17:16:28Z</time></trkpt><trkpt lat="43.29593672384449" lon="-0.2947649736956089"><ele>241.0</ele><time>2026-04-28T17:16:29Z</time></trkpt><trkpt lat="43.29597705403171" lon="-0.29491287538804134"><ele>241.0</ele><time>2026-04-28T17:16:30Z</time></trkpt><trkpt lat="43.29601948044691" lon="-0.29506138595340076"><ele>241.0</ele><time>2026-04-28T17:16:31Z</time></trkpt><trkpt lat="43.29606192890159" lon="-0.29520769927390295"><ele>241.0</ele><time>2026-04-28T17:16:32Z</time></trkpt><trkpt lat="43.29610089531422" lon="-0.29535343569694683"><ele>241.0</ele><time>2026-04-28T17:16:33Z</time></trkpt><trkpt lat="43.29614241118089" lon="-0.29550198476919737"><ele>241.0</ele><time>2026-04-28T17:16:34Z</time></trkpt><trkpt lat="43.2961804622962" lon="-0.2956423953446355"><ele>240.75</ele><time>2026-04-28T17:16:35Z</time></trkpt><trkpt lat="43.296220550599" lon="-0.29578696476545885"><ele>240.5</ele><time>2026-04-28T17:16:36Z</time></trkpt><trkpt lat="43.29625893541675" lon="-0.2959326905998344"><ele>240.25</ele><time>2026-04-28T17:16:37Z</time></trkpt><trkpt lat="43.296297458705745" lon="-0.29607738394865696"><ele>240.0</ele><time>2026-04-28T17:16:38Z</time></trkpt><trkpt lat="43.29633679984259" lon="-0.29622369125782055"><ele>240.0</ele><time>2026-04-28T17:16:39Z</time></trkpt><trkpt lat="43.29637856860988" lon="-0.29636707057737743"><ele>240.0</ele><time>2026-04-28T17:16:40Z</time></trkpt><trkpt lat="43.29641630773818" lon="-0.29650826920454637"><ele>240.0</ele><time>2026-04-28T17:16:41Z</time></trkpt><trkpt lat="43.29645722769569" lon="-0.2966526001330244"><ele>240.0</ele><time>2026-04-28T17:16:42Z</time></trkpt><trkpt lat="43.29649430031258" lon="-0.2967943049544328"><ele>240.0</ele><time>2026-04-28T17:16:43Z</time></trkpt><trkpt lat="43.29653389323632" lon="-0.29693740291613874"><ele>240.5</ele><time>2026-04-28T17:16:44Z</time></trkpt><trkpt lat="43.296572282282334" lon="-0.29708554983756574"><ele>241.0</ele><time>2026-04-28T17:16:45Z</time></trkpt><trkpt lat="43.29661191047268" lon="-0.29723528101235924"><ele>241.5</ele><time>2026-04-28T17:16:46Z</time></trkpt><trkpt lat="43.29665119911793" lon="-0.29738843060426606"><ele>242.0</ele><time>2026-04-28T17:16:47Z</time></trkpt><trkpt lat="43.29669159293024" lon="-0.29753494727326485"><ele>242.0</ele><time>2026-04-28T17:16:48Z</time></trkpt><trkpt lat="43.29673173522083" lon="-0.2976771459373494"><ele>242.0</ele><time>2026-04-28T17:16:49Z</time></trkpt><trkpt lat="43.29677368289812" lon="-0.29781740694499176"><ele>242.0</ele><time>2026-04-28T17:16:50Z</time></trkpt><trkpt lat="43.296814746538665" lon="-0.29795985616654797"><ele>242.0</ele><time>2026-04-28T17:16:51Z</time></trkpt><trkpt lat="43.29685565843887" lon="-0.2981030056095728"><ele>242.0</ele><time>2026-04-28T17:16:52Z</time></trkpt><trkpt lat="43.296894385440396" lon="-0.2982517332766734"><ele>241.8</ele><time>2026-04-28T17:16:53Z</time></trkpt><trkpt lat="43.29693307900759" lon="-0.2984019655988918"><ele>241.6</ele><time>2026-04-28T17:16:54Z</time></trkpt><trkpt lat="43.29697375677876" lon="-0.29854150160598486"><ele>241.40000000000003</ele><time>2026-04-28T17:16:55Z</time></trkpt><trkpt lat="43.29701189857628" lon="-0.2986879617519679"><ele>241.20000000000002</ele><time>2026-04-28T17:16:56Z</time></trkpt><trkpt lat="43.297054043468506" lon="-0.2988288742653425"><ele>241.0</ele><time>2026-04-28T17:16:57Z</time></trkpt><trkpt lat="43.29709349698565" lon="-0.2989773128430076"><ele>240.75</ele><time>2026-04-28T17:16:58Z</time></trkpt><trkpt lat="43.29713338885556" lon="-0.2991177979979633"><ele>240.5</ele><time>2026-04-28T17:16:59Z</time></trkpt><trkpt lat="43.29717181374172" lon="-0.2992631785590257"><ele>240.25</ele><time>2026-04-28T17:17:00Z</time></trkpt><trkpt lat="43.29721067107962" lon="-0.29941261095537114"><ele>240.0</ele><time>2026-04-28T17:17:01Z</time></trkpt><trkpt lat="43.2972504944111" lon="-0.29955916183530673"><ele>240.0</ele><time>2026-04-28T17:17:02Z</time></trkpt><trkpt lat="43.29729513654003" lon="-0.29970153846015907"><ele>240.0</ele><time>2026-04-28T17:17:03Z</time></trkpt><trkpt lat="43.29733418787634" lon="-0.29985149029384855"><ele>240.0</ele><time>2026-04-28T17:17:04Z</time></trkpt><trkpt lat="43.29737147740126" lon="-0.29999834818961424"><ele>240.0</ele><time>2026-04-28T17:17:05Z</time></trkpt><trkpt lat="43.29741227503723" lon="-0.30014324585408686"><ele>240.0</ele><time>2026-04-28T17:17:06Z</time></trkpt><trkpt lat="43.297462384350865" lon="-0.30030041028233456"><ele>240.0</ele><time>2026-04-28T17:17:07Z</time></trkpt><trkpt lat="43.29749481721229" lon="-0.30043333397341226"><ele>240.0</ele><time>2026-04-28T17:17:08Z</time></trkpt><trkpt lat="43.29753622020721" lon="-0.30058927010304487"><ele>240.0</ele><time>2026-04-28T17:17:09Z</time></trkpt><trkpt lat="43.29758535475298" lon="-0.30076039563537943"><ele>239.75</ele><time>2026-04-28T17:17:10Z</time></trkpt><trkpt lat="43.297684621237835" lon="-0.3009700141474244"><ele>239.5</ele><time>2026-04-28T17:17:11Z</time></trkpt><trkpt lat="43.297752387061955" lon="-0.30111402905144663"><ele>239.25</ele><time>2026-04-28T17:17:12Z</time></trkpt><trkpt lat="43.297727314449546" lon="-0.3012169840608113"><ele>239.0</ele><time>2026-04-28T17:17:13Z</time></trkpt><trkpt lat="43.29776586808968" lon="-0.3013733688601089"><ele>238.79999999999998</ele><time>2026-04-28T17:17:14Z</time></trkpt><trkpt lat="43.29779936705463" lon="-0.30150021114870196"><ele>238.59999999999997</ele><time>2026-04-28T17:17:15Z</time></trkpt><trkpt lat="43.29784059614897" lon="-0.3016527342312145"><ele>238.4</ele><time>2026-04-28T17:17:16Z</time></trkpt><trkpt lat="43.297880278793876" lon="-0.30179459978840306"><ele>238.2</ele><time>2026-04-28T17:17:17Z</time></trkpt><trkpt lat="43.29791960791114" lon="-0.3019415324193413"><ele>238.0</ele><time>2026-04-28T17:17:18Z</time></trkpt><trkpt lat="43.297959867553374" lon="-0.302089758376009"><ele>238.0</ele><time>2026-04-28T17:17:19Z</time></trkpt><trkpt lat="43.298001502292095" lon="-0.3022323394668264"><ele>238.0</ele><time>2026-04-28T17:17:20Z</time></trkpt><trkpt lat="43.29803781219197" lon="-0.30238142249372574"><ele>238.0</ele><time>2026-04-28T17:17:21Z</time></trkpt><trkpt lat="43.29807507898284" lon="-0.3025256192752431"><ele>238.0</ele><time>2026-04-28T17:17:22Z</time></trkpt><trkpt lat="43.298118529811184" lon="-0.3026674942921138"><ele>238.2</ele><time>2026-04-28T17:17:23Z</time></trkpt><trkpt lat="43.29815689836308" lon="-0.302813763905333"><ele>238.4</ele><time>2026-04-28T17:17:24Z</time></trkpt><trkpt lat="43.29819595626593" lon="-0.3029587544877183"><ele>238.59999999999997</ele><time>2026-04-28T17:17:25Z</time></trkpt><trkpt lat="43.2982332163274" lon="-0.3031040957741762"><ele>238.79999999999998</ele><time>2026-04-28T17:17:26Z</time></trkpt><trkpt lat="43.29827361990038" lon="-0.30324622010516245"><ele>239.0</ele><time>2026-04-28T17:17:27Z</time></trkpt><trkpt lat="43.29831058787965" lon="-0.30338940630347344"><ele>239.0</ele><time>2026-04-28T17:17:28Z</time></trkpt><trkpt lat="43.298346573866596" lon="-0.30353288849991744"><ele>238.99999999999997</ele><time>2026-04-28T17:17:29Z</time></trkpt><trkpt lat="43.29838745411332" lon="-0.30367659963046406"><ele>238.99999999999997</ele><time>2026-04-28T17:17:30Z</time></trkpt><trkpt lat="43.29842564932771" lon="-0.3038221176852663"><ele>239.0</ele><time>2026-04-28T17:17:31Z</time></trkpt><trkpt lat="43.29846657952371" lon="-0.30396463220388664"><ele>239.0</ele><time>2026-04-28T17:17:32Z</time></trkpt><trkpt lat="43.29850425247065" lon="-0.3041013588653124"><ele>239.0</ele><time>2026-04-28T17:17:33Z</time></trkpt><trkpt lat="43.298536750495515" lon="-0.3042427908913048"><ele>238.99999999999997</ele><time>2026-04-28T17:17:34Z</time></trkpt><trkpt lat="43.29857302741328" lon="-0.30436859124206256"><ele>238.99999999999997</ele><time>2026-04-28T17:17:35Z</time></trkpt><trkpt lat="43.29860679452334" lon="-0.30448958989811065"><ele>239.0</ele><time>2026-04-28T17:17:36Z</time></trkpt><trkpt lat="43.29863855792069" lon="-0.30460804367131294"><ele>239.0</ele><time>2026-04-28T17:17:37Z</time></trkpt><trkpt lat="43.29867296125849" lon="-0.3047299117872871"><ele>238.79999999999998</ele><time>2026-04-28T17:17:38Z</time></trkpt><trkpt lat="43.298710681649766" lon="-0.3048612744688424"><ele>238.59999999999997</ele><time>2026-04-28T17:17:39Z</time></trkpt><trkpt lat="43.298745552272095" lon="-0.3049912020386287"><ele>238.4</ele><time>2026-04-28T17:17:40Z</time></trkpt><trkpt lat="43.29878467279136" lon="-0.3051284027454938"><ele>238.2</ele><time>2026-04-28T17:17:41Z</time></trkpt><trkpt lat="43.29882219180839" lon="-0.3052694690902315"><ele>238.0</ele><time>2026-04-28T17:17:42Z</time></trkpt><trkpt lat="43.29886142367939" lon="-0.30541075878222085"><ele>238.0</ele><time>2026-04-28T17:17:43Z</time></trkpt><trkpt lat="43.29889987733237" lon="-0.3055540705000856"><ele>238.0</ele><time>2026-04-28T17:17:44Z</time></trkpt><trkpt lat="43.29893952061751" lon="-0.3056985054744059"><ele>238.0</ele><time>2026-04-28T17:17:45Z</time></trkpt><trkpt lat="43.29897773662768" lon="-0.3058406525597737"><ele>238.0</ele><time>2026-04-28T17:17:46Z</time></trkpt><trkpt lat="43.29901801201405" lon="-0.30597573696441455"><ele>238.0</ele><time>2026-04-28T17:17:47Z</time></trkpt><trkpt lat="43.29905344264589" lon="-0.3061149953199926"><ele>238.0</ele><time>2026-04-28T17:17:48Z</time></trkpt><trkpt lat="43.29908748036544" lon="-0.3062452104312677"><ele>238.0</ele><time>2026-04-28T17:17:49Z</time></trkpt><trkpt lat="43.29912467223472" lon="-0.3063737434125087"><ele>238.0</ele><time>2026-04-28T17:17:50Z</time></trkpt><trkpt lat="43.29916750094038" lon="-0.30652804140827145"><ele>238.0</ele><time>2026-04-28T17:17:51Z</time></trkpt><trkpt lat="43.299221931813335" lon="-0.30670639887745454"><ele>238.0</ele><time>2026-04-28T17:17:53Z</time></trkpt><trkpt lat="43.29925117625414" lon="-0.3068036535996562"><ele>238.0</ele><time>2026-04-28T17:17:54Z</time></trkpt><trkpt lat="43.29929668109986" lon="-0.30693425391482027"><ele>238.0</ele><time>2026-04-28T17:17:56Z</time></trkpt><trkpt lat="43.29932479520144" lon="-0.3070674075455412"><ele>238.0</ele><time>2026-04-28T17:18:55Z</time></trkpt><trkpt lat="43.299387668274264" lon="-0.3071402480670054"><ele>238.0</ele><time>2026-04-28T17:18:57Z</time></trkpt><trkpt lat="43.29947998807095" lon="-0.30720167280196325"><ele>237.60000000000002</ele><time>2026-04-28T17:18:59Z</time></trkpt><trkpt lat="43.29956898903809" lon="-0.30728267511128937"><ele>237.20000000000002</ele><time>2026-04-28T17:19:01Z</time></trkpt><trkpt lat="43.299642171252096" lon="-0.30739887154654055"><ele>236.8</ele><time>2026-04-28T17:19:03Z</time></trkpt><trkpt lat="43.299672728670004" lon="-0.3075642536724063"><ele>236.4</ele><time>2026-04-28T17:19:05Z</time></trkpt><trkpt lat="43.29966728189191" lon="-0.3076522330341637"><ele>236.0</ele><time>2026-04-28T17:19:06Z</time></trkpt><trkpt lat="43.299652543953016" lon="-0.3077365222507728"><ele>236.00000000000003</ele><time>2026-04-28T17:19:07Z</time></trkpt><trkpt lat="43.299629071802755" lon="-0.3078263246885368"><ele>236.0</ele><time>2026-04-28T17:19:08Z</time></trkpt><trkpt lat="43.29959172007595" lon="-0.3078968790008106"><ele>236.0</ele><time>2026-04-28T17:19:09Z</time></trkpt><trkpt lat="43.299600397018395" lon="-0.3080282623435402"><ele>236.0</ele><time>2026-04-28T17:19:10Z</time></trkpt><trkpt lat="43.299613404467095" lon="-0.3081340983053385"><ele>236.00000000000003</ele><time>2026-04-28T17:19:11Z</time></trkpt><trkpt lat="43.29963815629842" lon="-0.3082398008480717"><ele>236.0</ele><time>2026-04-28T17:19:12Z</time></trkpt><trkpt lat="43.29966763775655" lon="-0.3083508731631126"><ele>236.0</ele><time>2026-04-28T17:19:13Z</time></trkpt><trkpt lat="43.29969633488113" lon="-0.3084650426682395"><ele>236.00000000000003</ele><time>2026-04-28T17:19:14Z</time></trkpt><trkpt lat="43.29972778022713" lon="-0.30857908327120476"><ele>236.00000000000003</ele><time>2026-04-28T17:19:15Z</time></trkpt><trkpt lat="43.299759743389146" lon="-0.30869959530907026"><ele>236.0</ele><time>2026-04-28T17:19:16Z</time></trkpt><trkpt lat="43.29979310653677" lon="-0.3088251755010116"><ele>236.0</ele><time>2026-04-28T17:19:17Z</time></trkpt><trkpt lat="43.299826946378346" lon="-0.3089550389544645"><ele>236.4</ele><time>2026-04-28T17:19:18Z</time></trkpt><trkpt lat="43.29986554693197" lon="-0.30908577214074384"><ele>236.8</ele><time>2026-04-28T17:19:19Z</time></trkpt><trkpt lat="43.2999032591697" lon="-0.3092183798361636"><ele>237.20000000000002</ele><time>2026-04-28T17:19:20Z</time></trkpt><trkpt lat="43.299941026591405" lon="-0.3093536736654866"><ele>237.60000000000002</ele><time>2026-04-28T17:19:21Z</time></trkpt><trkpt lat="43.29997564035058" lon="-0.30949029593226285"><ele>238.0</ele><time>2026-04-28T17:19:22Z</time></trkpt><trkpt lat="43.300012715197774" lon="-0.3096251351268097"><ele>237.4</ele><time>2026-04-28T17:19:23Z</time></trkpt><trkpt lat="43.30004925374817" lon="-0.30976229230036373"><ele>236.8</ele><time>2026-04-28T17:19:24Z</time></trkpt><trkpt lat="43.30008801288717" lon="-0.30990099537837384"><ele>236.2</ele><time>2026-04-28T17:19:25Z</time></trkpt><trkpt lat="43.30012347706661" lon="-0.3100396355138516"><ele>235.6</ele><time>2026-04-28T17:19:26Z</time></trkpt><trkpt lat="43.30015999943164" lon="-0.31017941314961395"><ele>235.0</ele><time>2026-04-28T17:19:27Z</time></trkpt><trkpt lat="43.300200006774126" lon="-0.3103179145231682"><ele>235.0</ele><time>2026-04-28T17:19:28Z</time></trkpt><trkpt lat="43.3002384107641" lon="-0.3104603781563674"><ele>235.0</ele><time>2026-04-28T17:19:29Z</time></trkpt><trkpt lat="43.300277255267964" lon="-0.3106016619663737"><ele>235.0</ele><time>2026-04-28T17:19:30Z</time></trkpt><trkpt lat="43.30031627860059" lon="-0.3107465581000061"><ele>235.0</ele><time>2026-04-28T17:19:31Z</time></trkpt><trkpt lat="43.300358313652296" lon="-0.3108870962703552"><ele>235.0</ele><time>2026-04-28T17:19:32Z</time></trkpt><trkpt lat="43.30039836439557" lon="-0.31102942526205285"><ele>235.0</ele><time>2026-04-28T17:19:33Z</time></trkpt><trkpt lat="43.30043953995533" lon="-0.311171106608623"><ele>235.0</ele><time>2026-04-28T17:19:34Z</time></trkpt><trkpt lat="43.30047802325126" lon="-0.3113146851288515"><ele>235.0</ele><time>2026-04-28T17:19:35Z</time></trkpt><trkpt lat="43.30051761010428" lon="-0.31145791313436644"><ele>235.0</ele><time>2026-04-28T17:19:36Z</time></trkpt><trkpt lat="43.300555745327124" lon="-0.3115963396063317"><ele>235.0</ele><time>2026-04-28T17:19:37Z</time></trkpt><trkpt lat="43.30059373718447" lon="-0.3117411160820107"><ele>235.0</ele><time>2026-04-28T17:19:38Z</time></trkpt><trkpt lat="43.30063551340963" lon="-0.3118864924722526"><ele>235.0</ele><time>2026-04-28T17:19:39Z</time></trkpt><trkpt lat="43.300674880230105" lon="-0.31203226394884054"><ele>235.0</ele><time>2026-04-28T17:19:40Z</time></trkpt><trkpt lat="43.30071308279837" lon="-0.3121768861860505"><ele>235.0</ele><time>2026-04-28T17:19:41Z</time></trkpt><trkpt lat="43.30075255383007" lon="-0.31231458446692983"><ele>235.0</ele><time>2026-04-28T17:19:42Z</time></trkpt><trkpt lat="43.30079080936405" lon="-0.31246590383059986"><ele>235.0</ele><time>2026-04-28T17:19:43Z</time></trkpt><trkpt lat="43.300829389364154" lon="-0.3126148657810551"><ele>235.0</ele><time>2026-04-28T17:19:44Z</time></trkpt><trkpt lat="43.30086771414367" lon="-0.31276015141879426"><ele>235.0</ele><time>2026-04-28T17:19:45Z</time></trkpt><trkpt lat="43.30090470298804" lon="-0.31290550306989895"><ele>235.0</ele><time>2026-04-28T17:19:46Z</time></trkpt><trkpt lat="43.30094241769891" lon="-0.31305029175423277"><ele>235.0</ele><time>2026-04-28T17:19:47Z</time></trkpt><trkpt lat="43.300982119183416" lon="-0.31319363694183705"><ele>235.0</ele><time>2026-04-28T17:19:48Z</time></trkpt><trkpt lat="43.30102370178578" lon="-0.31333570418629886"><ele>235.0</ele><time>2026-04-28T17:19:49Z</time></trkpt><trkpt lat="43.30106249382441" lon="-0.3134783253588538"><ele>235.0</ele><time>2026-04-28T17:19:50.001Z</time></trkpt><trkpt lat="43.30110165817738" lon="-0.3136222891665792"><ele>235.0</ele><time>2026-04-28T17:19:51.001Z</time></trkpt><trkpt lat="43.30114075720734" lon="-0.31376496184073005"><ele>235.2</ele><time>2026-04-28T17:19:52.001Z</time></trkpt><trkpt lat="43.30117807322399" lon="-0.31391137105873584"><ele>235.4</ele><time>2026-04-28T17:19:53.001Z</time></trkpt><trkpt lat="43.30121820034306" lon="-0.314054588205566"><ele>235.60000000000002</ele><time>2026-04-28T17:19:54.001Z</time></trkpt><trkpt lat="43.301257882337765" lon="-0.31419625372104687"><ele>235.8</ele><time>2026-04-28T17:19:55.001Z</time></trkpt><trkpt lat="43.301295622119376" lon="-0.3143410684144145"><ele>236.0</ele><time>2026-04-28T17:19:56.001Z</time></trkpt><trkpt lat="43.30133373508751" lon="-0.31448312330600775"><ele>236.0</ele><time>2026-04-28T17:19:57.001Z</time></trkpt><trkpt lat="43.301373175210145" lon="-0.3146238979870026"><ele>236.00000000000003</ele><time>2026-04-28T17:19:58.001Z</time></trkpt><trkpt lat="43.301411502704575" lon="-0.3147638079352134"><ele>236.00000000000003</ele><time>2026-04-28T17:19:59.001Z</time></trkpt><trkpt lat="43.30145117806851" lon="-0.3149065747234836"><ele>236.0</ele><time>2026-04-28T17:20:00.001Z</time></trkpt><trkpt lat="43.301491399831555" lon="-0.3150496328429449"><ele>236.0</ele><time>2026-04-28T17:20:01.001Z</time></trkpt><trkpt lat="43.301527180025644" lon="-0.31519429765343904"><ele>235.8</ele><time>2026-04-28T17:20:02.001Z</time></trkpt><trkpt lat="43.301565880913586" lon="-0.31533474448174054"><ele>235.60000000000002</ele><time>2026-04-28T17:20:03.001Z</time></trkpt><trkpt lat="43.30160369462101" lon="-0.3154784384967099"><ele>235.4</ele><time>2026-04-28T17:20:04.001Z</time></trkpt><trkpt lat="43.30164102424116" lon="-0.3156201482083982"><ele>235.2</ele><time>2026-04-28T17:20:05.001Z</time></trkpt><trkpt lat="43.30167975907582" lon="-0.3157617819037933"><ele>235.0</ele><time>2026-04-28T17:20:06.001Z</time></trkpt><trkpt lat="43.30171809514809" lon="-0.31590356610837733"><ele>235.0</ele><time>2026-04-28T17:20:07.001Z</time></trkpt><trkpt lat="43.30175414000832" lon="-0.31604721438813754"><ele>235.0</ele><time>2026-04-28T17:20:08.001Z</time></trkpt><trkpt lat="43.301789509100345" lon="-0.3161896815042957"><ele>235.0</ele><time>2026-04-28T17:20:09.001Z</time></trkpt><trkpt lat="43.30182986866134" lon="-0.31633240586610484"><ele>235.0</ele><time>2026-04-28T17:20:10.001Z</time></trkpt><trkpt lat="43.30186795482215" lon="-0.31647814703286176"><ele>235.0</ele><time>2026-04-28T17:20:11Z</time></trkpt><trkpt lat="43.30190955677214" lon="-0.31661976575468914"><ele>235.0</ele><time>2026-04-28T17:20:12Z</time></trkpt><trkpt lat="43.30195161557744" lon="-0.3167627577093114"><ele>235.0</ele><time>2026-04-28T17:20:13Z</time></trkpt><trkpt lat="43.301993831873816" lon="-0.3169038063747281"><ele>235.0</ele><time>2026-04-28T17:20:14Z</time></trkpt><trkpt lat="43.30203658639826" lon="-0.3170494242889085"><ele>235.0</ele><time>2026-04-28T17:20:15Z</time></trkpt><trkpt lat="43.3020801744636" lon="-0.31719439960726487"><ele>235.0</ele><time>2026-04-28T17:20:16Z</time></trkpt><trkpt lat="43.30211407389151" lon="-0.31734140263485305"><ele>235.0</ele><time>2026-04-28T17:20:17Z</time></trkpt><trkpt lat="43.30215575699008" lon="-0.31748528180282404"><ele>235.0</ele><time>2026-04-28T17:20:18Z</time></trkpt><trkpt lat="43.30219431997919" lon="-0.3176297774505205"><ele>235.0</ele><time>2026-04-28T17:20:19Z</time></trkpt><trkpt lat="43.30223415241397" lon="-0.31777603289407347"><ele>235.0</ele><time>2026-04-28T17:20:20Z</time></trkpt><trkpt lat="43.30227300643653" lon="-0.317921655660727"><ele>235.0</ele><time>2026-04-28T17:20:21Z</time></trkpt><trkpt lat="43.30231279974216" lon="-0.31806953927632803"><ele>235.0</ele><time>2026-04-28T17:20:22Z</time></trkpt><trkpt lat="43.30235448255084" lon="-0.3182096172068586"><ele>235.0</ele><time>2026-04-28T17:20:23Z</time></trkpt><trkpt lat="43.30239442258162" lon="-0.31835310359877367"><ele>235.0</ele><time>2026-04-28T17:20:24Z</time></trkpt><trkpt lat="43.30243195760018" lon="-0.3185025446384258"><ele>235.0</ele><time>2026-04-28T17:20:25Z</time></trkpt><trkpt lat="43.302474812700986" lon="-0.3186476496829736"><ele>235.0</ele><time>2026-04-28T17:20:26Z</time></trkpt><trkpt lat="43.30251247799367" lon="-0.3187916105037903"><ele>235.0</ele><time>2026-04-28T17:20:27Z</time></trkpt><trkpt lat="43.30255005688033" lon="-0.3189349064063495"><ele>235.2</ele><time>2026-04-28T17:20:28Z</time></trkpt><trkpt lat="43.302589506512106" lon="-0.3190781886325137"><ele>235.4</ele><time>2026-04-28T17:20:29Z</time></trkpt><trkpt lat="43.302630119798486" lon="-0.31922244126276245"><ele>235.60000000000002</ele><time>2026-04-28T17:20:30Z</time></trkpt><trkpt lat="43.30266897610039" lon="-0.31936660351660656"><ele>235.8</ele><time>2026-04-28T17:20:31Z</time></trkpt><trkpt lat="43.302708601896015" lon="-0.3195099123019408"><ele>236.0</ele><time>2026-04-28T17:20:32Z</time></trkpt><trkpt lat="43.302748945026" lon="-0.3196564518095391"><ele>235.25</ele><time>2026-04-28T17:20:33Z</time></trkpt><trkpt lat="43.302789656694166" lon="-0.3198026968401883"><ele>234.5</ele><time>2026-04-28T17:20:34Z</time></trkpt><trkpt lat="43.3028290159412" lon="-0.31994902940832814"><ele>233.75</ele><time>2026-04-28T17:20:35Z</time></trkpt><trkpt lat="43.302870580985996" lon="-0.32009192807264764"><ele>233.0</ele><time>2026-04-28T17:20:36Z</time></trkpt><trkpt lat="43.302909263779796" lon="-0.3202377296838983"><ele>233.0</ele><time>2026-04-28T17:20:37Z</time></trkpt><trkpt lat="43.3029459306936" lon="-0.3203813789239921"><ele>233.0</ele><time>2026-04-28T17:20:38Z</time></trkpt><trkpt lat="43.302984077576184" lon="-0.3205255933819512"><ele>233.0</ele><time>2026-04-28T17:20:39Z</time></trkpt><trkpt lat="43.30302202323643" lon="-0.3206685533505475"><ele>233.0</ele><time>2026-04-28T17:20:40Z</time></trkpt><trkpt lat="43.303058570153205" lon="-0.32080710576060634"><ele>233.0</ele><time>2026-04-28T17:20:41Z</time></trkpt><trkpt lat="43.30309375336822" lon="-0.3209368937823708"><ele>233.00000000000003</ele><time>2026-04-28T17:20:42Z</time></trkpt><trkpt lat="43.30312910609824" lon="-0.32105750532907473"><ele>233.0</ele><time>2026-04-28T17:20:43Z</time></trkpt><trkpt lat="43.30316818953118" lon="-0.3211687497992366"><ele>233.0</ele><time>2026-04-28T17:20:44Z</time></trkpt><trkpt lat="43.30320230136303" lon="-0.32124585615845525"><ele>233.0</ele><time>2026-04-28T17:20:45Z</time></trkpt><trkpt lat="43.303249878192986" lon="-0.3213296642867789"><ele>233.00000000000003</ele><time>2026-04-28T17:20:47Z</time></trkpt><trkpt lat="43.30332755994806" lon="-0.3214117865281029"><ele>233.0</ele><time>2026-04-28T17:20:50Z</time></trkpt><trkpt lat="43.30342419081867" lon="-0.3214748277174148"><ele>233.0</ele><time>2026-04-28T17:20:52Z</time></trkpt><trkpt lat="43.303382233545676" lon="-0.3216946456926761"><ele>233.0</ele><time>2026-04-28T17:20:54Z</time></trkpt><trkpt lat="43.30334317282736" lon="-0.3217736564718496"><ele>233.0</ele><time>2026-04-28T17:20:55Z</time></trkpt><trkpt lat="43.30336325788884" lon="-0.32190631698562605"><ele>233.0</ele><time>2026-04-28T17:20:56Z</time></trkpt><trkpt lat="43.303396341325715" lon="-0.3220238043649918"><ele>233.0</ele><time>2026-04-28T17:20:57Z</time></trkpt><trkpt lat="43.303426787719765" lon="-0.32213829521986703"><ele>232.60000000000002</ele><time>2026-04-28T17:20:58Z</time></trkpt><trkpt lat="43.303461467842006" lon="-0.3222614583483499"><ele>232.20000000000002</ele><time>2026-04-28T17:20:59Z</time></trkpt><trkpt lat="43.30349415173221" lon="-0.3223912978036954"><ele>231.8</ele><time>2026-04-28T17:21:00Z</time></trkpt><trkpt lat="43.30353200351887" lon="-0.3225225095706998"><ele>231.4</ele><time>2026-04-28T17:21:01Z</time></trkpt><trkpt lat="43.30357071838971" lon="-0.3226597550530176"><ele>231.0</ele><time>2026-04-28T17:21:02Z</time></trkpt><trkpt lat="43.30361428849979" lon="-0.322795862591484"><ele>231.0</ele><time>2026-04-28T17:21:03Z</time></trkpt><trkpt lat="43.30365159994639" lon="-0.3229404847208502"><ele>231.00000000000003</ele><time>2026-04-28T17:21:04Z</time></trkpt><trkpt lat="43.303689142688285" lon="-0.32308214283155967"><ele>231.00000000000003</ele><time>2026-04-28T17:21:05Z</time></trkpt><trkpt lat="43.30373556254232" lon="-0.3232217835302378"><ele>231.0</ele><time>2026-04-28T17:21:06Z</time></trkpt><trkpt lat="43.3037747439158" lon="-0.3233668692984515"><ele>231.0</ele><time>2026-04-28T17:21:07Z</time></trkpt><trkpt lat="43.303823930545335" lon="-0.323506774233294"><ele>230.8</ele><time>2026-04-28T17:21:08Z</time></trkpt><trkpt lat="43.30388549086529" lon="-0.323629755777258"><ele>230.60000000000002</ele><time>2026-04-28T17:21:09Z</time></trkpt><trkpt lat="43.30392054245956" lon="-0.3237523608938722"><ele>230.4</ele><time>2026-04-28T17:21:10Z</time></trkpt><trkpt lat="43.303953261979096" lon="-0.323872854422878"><ele>230.2</ele><time>2026-04-28T17:21:11Z</time></trkpt><trkpt lat="43.30398202869475" lon="-0.3239783205345663"><ele>230.0</ele><time>2026-04-28T17:21:12Z</time></trkpt><trkpt lat="43.30401334586892" lon="-0.32426278795936986"><ele>230.0</ele><time>2026-04-28T17:21:13Z</time></trkpt><trkpt lat="43.30405294571047" lon="-0.3244103060792197"><ele>230.0</ele><time>2026-04-28T17:21:14Z</time></trkpt><trkpt lat="43.30409487920524" lon="-0.32456010257806295"><ele>230.0</ele><time>2026-04-28T17:21:15Z</time></trkpt><trkpt lat="43.30413774909005" lon="-0.3247096757304778"><ele>230.0</ele><time>2026-04-28T17:21:16Z</time></trkpt><trkpt lat="43.30417728825475" lon="-0.3248561485262741"><ele>229.75</ele><time>2026-04-28T17:21:17Z</time></trkpt><trkpt lat="43.30421674000197" lon="-0.3250056479031497"><ele>229.5</ele><time>2026-04-28T17:21:18Z</time></trkpt><trkpt lat="43.304255229530646" lon="-0.3251570145088814"><ele>229.25</ele><time>2026-04-28T17:21:19Z</time></trkpt><trkpt lat="43.30429782815345" lon="-0.3253035617110278"><ele>229.0</ele><time>2026-04-28T17:21:20Z</time></trkpt><trkpt lat="43.304335537728164" lon="-0.3254521807418372"><ele>229.0</ele><time>2026-04-28T17:21:21Z</time></trkpt><trkpt lat="43.304376416192696" lon="-0.32559822219117857"><ele>229.0</ele><time>2026-04-28T17:21:22Z</time></trkpt><trkpt lat="43.30441577044595" lon="-0.3257402633992774"><ele>229.0</ele><time>2026-04-28T17:21:23Z</time></trkpt><trkpt lat="43.304455253548824" lon="-0.32588905322232437"><ele>229.0</ele><time>2026-04-28T17:21:24Z</time></trkpt><trkpt lat="43.304493594893366" lon="-0.3260320188600537"><ele>229.0</ele><time>2026-04-28T17:21:25Z</time></trkpt><trkpt lat="43.30453441266866" lon="-0.326176191208347"><ele>228.99999999999997</ele><time>2026-04-28T17:21:26Z</time></trkpt><trkpt lat="43.304574222706094" lon="-0.32632088205563875"><ele>228.99999999999997</ele><time>2026-04-28T17:21:27Z</time></trkpt><trkpt lat="43.30461106591997" lon="-0.3264657126937366"><ele>229.0</ele><time>2026-04-28T17:21:28Z</time></trkpt><trkpt lat="43.304650432250206" lon="-0.32660849613872306"><ele>229.0</ele><time>2026-04-28T17:21:29Z</time></trkpt><trkpt lat="43.30468971684491" lon="-0.32675209784667725"><ele>229.2</ele><time>2026-04-28T17:21:30Z</time></trkpt><trkpt lat="43.30473113213284" lon="-0.326892121357495"><ele>229.39999999999998</ele><time>2026-04-28T17:21:31Z</time></trkpt><trkpt lat="43.30476803480944" lon="-0.3270338831898727"><ele>229.6</ele><time>2026-04-28T17:21:32Z</time></trkpt><trkpt lat="43.30480154105978" lon="-0.3271763975294913"><ele>229.8</ele><time>2026-04-28T17:21:33Z</time></trkpt><trkpt lat="43.30484155817831" lon="-0.32732015860090613"><ele>230.0</ele><time>2026-04-28T17:21:34Z</time></trkpt><trkpt lat="43.30488224589589" lon="-0.327463064003318"><ele>229.6</ele><time>2026-04-28T17:21:35Z</time></trkpt><trkpt lat="43.304919788283726" lon="-0.32761107933978845"><ele>229.2</ele><time>2026-04-28T17:21:36Z</time></trkpt><trkpt lat="43.3049604506325" lon="-0.3277476502856317"><ele>228.8</ele><time>2026-04-28T17:21:37Z</time></trkpt><trkpt lat="43.30500221590971" lon="-0.3278929829878086"><ele>228.4</ele><time>2026-04-28T17:21:38Z</time></trkpt><trkpt lat="43.30504380855247" lon="-0.32802151601444834"><ele>228.0</ele><time>2026-04-28T17:21:39Z</time></trkpt><trkpt lat="43.30508424383442" lon="-0.328139686678555"><ele>227.83333333333334</ele><time>2026-04-28T17:21:40Z</time></trkpt><trkpt lat="43.30512266645219" lon="-0.3282544093937018"><ele>227.66666666666669</ele><time>2026-04-28T17:21:41Z</time></trkpt><trkpt lat="43.30516069425813" lon="-0.3283644166071804"><ele>227.5</ele><time>2026-04-28T17:21:42Z</time></trkpt><trkpt lat="43.30520953237421" lon="-0.3284561079006613"><ele>227.33333333333334</ele><time>2026-04-28T17:21:43Z</time></trkpt><trkpt lat="43.30527270308305" lon="-0.3285275780509565"><ele>227.16666666666669</ele><time>2026-04-28T17:21:44Z</time></trkpt><trkpt lat="43.30534259518781" lon="-0.32858570511922414"><ele>227.0</ele><time>2026-04-28T17:21:45Z</time></trkpt><trkpt lat="43.30540067194171" lon="-0.3286510414496148"><ele>227.00000000000003</ele><time>2026-04-28T17:21:46Z</time></trkpt><trkpt lat="43.30544498848632" lon="-0.3287391848371611"><ele>227.0</ele><time>2026-04-28T17:21:47Z</time></trkpt><trkpt lat="43.30548004502682" lon="-0.3288411945752193"><ele>227.0</ele><time>2026-04-28T17:21:48Z</time></trkpt><trkpt lat="43.30545344835592" lon="-0.3289554183964901"><ele>227.0</ele><time>2026-04-28T17:21:49Z</time></trkpt><trkpt lat="43.30542564130186" lon="-0.32906617998390986"><ele>227.00000000000003</ele><time>2026-04-28T17:21:50.001Z</time></trkpt><trkpt lat="43.30539607324263" lon="-0.3291785931834932"><ele>227.0</ele><time>2026-04-28T17:21:51.001Z</time></trkpt><trkpt lat="43.305382065175586" lon="-0.3293023933089581"><ele>227.0</ele><time>2026-04-28T17:21:52.001Z</time></trkpt><trkpt lat="43.30539491088734" lon="-0.3294321679824661"><ele>227.0</ele><time>2026-04-28T17:21:53.001Z</time></trkpt><trkpt lat="43.305428817841204" lon="-0.3295573959081229"><ele>227.0</ele><time>2026-04-28T17:21:54.001Z</time></trkpt><trkpt lat="43.30546887919831" lon="-0.3296863962866658"><ele>227.0</ele><time>2026-04-28T17:21:55.001Z</time></trkpt><trkpt lat="43.30551140262639" lon="-0.32981447212647264"><ele>227.0</ele><time>2026-04-28T17:21:56.001Z</time></trkpt><trkpt lat="43.30555655601728" lon="-0.3299455178038476"><ele>226.8</ele><time>2026-04-28T17:21:57.001Z</time></trkpt><trkpt lat="43.305594932557966" lon="-0.3300840777529351"><ele>226.6</ele><time>2026-04-28T17:21:58.001Z</time></trkpt><trkpt lat="43.3056478179979" lon="-0.33021240619477527"><ele>226.40000000000003</ele><time>2026-04-28T17:21:59.001Z</time></trkpt><trkpt lat="43.30567258335864" lon="-0.3303582497105813"><ele>226.20000000000002</ele><time>2026-04-28T17:22:00.001Z</time></trkpt><trkpt lat="43.3057094833483" lon="-0.33049680389821406"><ele>226.0</ele><time>2026-04-28T17:22:01.001Z</time></trkpt><trkpt lat="43.30575006105972" lon="-0.3306355864572453"><ele>226.0</ele><time>2026-04-28T17:22:02.001Z</time></trkpt><trkpt lat="43.305787444580886" lon="-0.3307777778474351"><ele>226.00000000000003</ele><time>2026-04-28T17:22:03.001Z</time></trkpt><trkpt lat="43.30582769733269" lon="-0.3309205701717453"><ele>226.00000000000003</ele><time>2026-04-28T17:22:04.001Z</time></trkpt><trkpt lat="43.3058656120451" lon="-0.331064471851302"><ele>226.0</ele><time>2026-04-28T17:22:05.001Z</time></trkpt><trkpt lat="43.305905185138336" lon="-0.3312007508460888"><ele>226.0</ele><time>2026-04-28T17:22:06.001Z</time></trkpt><trkpt lat="43.30594035459828" lon="-0.3313464459600787"><ele>226.0</ele><time>2026-04-28T17:22:07.001Z</time></trkpt><trkpt lat="43.30597839369364" lon="-0.3314885190751345"><ele>226.00000000000003</ele><time>2026-04-28T17:22:08.001Z</time></trkpt><trkpt lat="43.306020831845416" lon="-0.33162954407365774"><ele>226.00000000000003</ele><time>2026-04-28T17:22:09.001Z</time></trkpt><trkpt lat="43.30605743815714" lon="-0.33177443098221476"><ele>226.0</ele><time>2026-04-28T17:22:10.001Z</time></trkpt><trkpt lat="43.306092187270785" lon="-0.331919485110875"><ele>226.0</ele><time>2026-04-28T17:22:11.001Z</time></trkpt><trkpt lat="43.30612865493776" lon="-0.3320615907856122"><ele>226.0</ele><time>2026-04-28T17:22:12.001Z</time></trkpt><trkpt lat="43.30616316293357" lon="-0.3322092395877856"><ele>226.00000000000003</ele><time>2026-04-28T17:22:13.001Z</time></trkpt><trkpt lat="43.30619407793967" lon="-0.3323545476591912"><ele>226.00000000000003</ele><time>2026-04-28T17:22:14.001Z</time></trkpt><trkpt lat="43.3062289352494" lon="-0.33249658524626746"><ele>226.0</ele><time>2026-04-28T17:22:15.001Z</time></trkpt><trkpt lat="43.30626243073946" lon="-0.3326284248346436"><ele>226.0</ele><time>2026-04-28T17:22:16.001Z</time></trkpt><trkpt lat="43.30629362248548" lon="-0.33274377423925394"><ele>225.99999999999997</ele><time>2026-04-28T17:22:17Z</time></trkpt><trkpt lat="43.306323665155595" lon="-0.332845345364468"><ele>226.0</ele><time>2026-04-28T17:22:18Z</time></trkpt><trkpt lat="43.30636550555037" lon="-0.33293482429595056"><ele>226.0</ele><time>2026-04-28T17:22:19Z</time></trkpt><trkpt lat="43.30642857648033" lon="-0.3330095289482295"><ele>226.0</ele><time>2026-04-28T17:22:20Z</time></trkpt><trkpt lat="43.30650521820847" lon="-0.3330765843014428"><ele>225.99999999999997</ele><time>2026-04-28T17:22:21Z</time></trkpt><trkpt lat="43.30658017166229" lon="-0.33315070325565826"><ele>226.0</ele><time>2026-04-28T17:22:22Z</time></trkpt><trkpt lat="43.306644728907614" lon="-0.3332300404628527"><ele>226.0</ele><time>2026-04-28T17:22:23Z</time></trkpt><trkpt lat="43.3066901524597" lon="-0.3333353130121372"><ele>226.00000000000003</ele><time>2026-04-28T17:22:24Z</time></trkpt><trkpt lat="43.30675833739735" lon="-0.3334296591660034"><ele>226.00000000000003</ele><time>2026-04-28T17:22:25Z</time></trkpt><trkpt lat="43.30673540759509" lon="-0.33357158397834163"><ele>226.0</ele><time>2026-04-28T17:22:26Z</time></trkpt><trkpt lat="43.30669872685521" lon="-0.3336765725432532"><ele>226.0</ele><time>2026-04-28T17:22:27Z</time></trkpt><trkpt lat="43.306656442238754" lon="-0.33377572059488836"><ele>225.99999999999997</ele><time>2026-04-28T17:22:28Z</time></trkpt><trkpt lat="43.3065647514121" lon="-0.33382305472325235"><ele>226.0</ele><time>2026-04-28T17:22:29Z</time></trkpt><trkpt lat="43.306489321050144" lon="-0.3338735306448613"><ele>226.0</ele><time>2026-04-28T17:22:30Z</time></trkpt><trkpt lat="43.306425373605585" lon="-0.33392966754436865"><ele>226.0</ele><time>2026-04-28T17:22:31Z</time></trkpt><trkpt lat="43.3063816880147" lon="-0.3340023974470222"><ele>225.99999999999997</ele><time>2026-04-28T17:22:32Z</time></trkpt><trkpt lat="43.306347707050094" lon="-0.3340805321318297"><ele>226.0</ele><time>2026-04-28T17:22:33Z</time></trkpt><trkpt lat="43.30630468835158" lon="-0.3341532750911526"><ele>225.99999999999997</ele><time>2026-04-28T17:22:34Z</time></trkpt><trkpt lat="43.306306849003825" lon="-0.3342704169972451"><ele>226.0</ele><time>2026-04-28T17:22:35Z</time></trkpt><trkpt lat="43.306285746616375" lon="-0.33437080296088567"><ele>226.0</ele><time>2026-04-28T17:22:36Z</time></trkpt><trkpt lat="43.30626260310567" lon="-0.3344749595259718"><ele>226.0</ele><time>2026-04-28T17:22:37Z</time></trkpt><trkpt lat="43.306241386972935" lon="-0.3345764905265838"><ele>225.99999999999997</ele><time>2026-04-28T17:22:38Z</time></trkpt><trkpt lat="43.30622105481498" lon="-0.3346768016121666"><ele>226.0</ele><time>2026-04-28T17:22:39Z</time></trkpt><trkpt lat="43.30619972765665" lon="-0.33477729620962665"><ele>225.99999999999997</ele><time>2026-04-28T17:22:40Z</time></trkpt><trkpt lat="43.30617737828416" lon="-0.334880322623332"><ele>226.0</ele><time>2026-04-28T17:22:41Z</time></trkpt><trkpt lat="43.30615427518557" lon="-0.3349859805069086"><ele>226.0</ele><time>2026-04-28T17:22:42Z</time></trkpt><trkpt lat="43.30613218036264" lon="-0.33508332760181914"><ele>226.0</ele><time>2026-04-28T17:22:43Z</time></trkpt><trkpt lat="43.306108910481896" lon="-0.3351853092096972"><ele>225.99999999999997</ele><time>2026-04-28T17:22:44Z</time></trkpt><trkpt lat="43.30608573959036" lon="-0.3352906279654394"><ele>226.0</ele><time>2026-04-28T17:22:45Z</time></trkpt><trkpt lat="43.30605990836088" lon="-0.3353971087792084"><ele>225.99999999999997</ele><time>2026-04-28T17:22:46Z</time></trkpt><trkpt lat="43.306037071725626" lon="-0.3355077973815149"><ele>226.0</ele><time>2026-04-28T17:22:47Z</time></trkpt><trkpt lat="43.30601594295516" lon="-0.3356170707372413"><ele>226.0</ele><time>2026-04-28T17:22:48Z</time></trkpt><trkpt lat="43.305992643820574" lon="-0.33572877000409856"><ele>226.0</ele><time>2026-04-28T17:22:49Z</time></trkpt><trkpt lat="43.30597274077256" lon="-0.3358314316704202"><ele>225.99999999999997</ele><time>2026-04-28T17:22:50Z</time></trkpt><trkpt lat="43.305952063627316" lon="-0.33592906684829626"><ele>226.0</ele><time>2026-04-28T17:22:51Z</time></trkpt><trkpt lat="43.305932852841494" lon="-0.33602947750406975"><ele>225.99999999999997</ele><time>2026-04-28T17:22:52Z</time></trkpt><trkpt lat="43.30591118117895" lon="-0.336126279564707"><ele>226.0</ele><time>2026-04-28T17:22:53Z</time></trkpt><trkpt lat="43.30588711447582" lon="-0.3362225073605049"><ele>226.0</ele><time>2026-04-28T17:22:54Z</time></trkpt><trkpt lat="43.30586419646839" lon="-0.33631782395779813"><ele>226.0</ele><time>2026-04-28T17:22:55Z</time></trkpt><trkpt lat="43.30584502351286" lon="-0.3364042645857956"><ele>225.99999999999997</ele><time>2026-04-28T17:22:56Z</time></trkpt><trkpt lat="43.30580901713751" lon="-0.3365473271395201"><ele>226.0</ele><time>2026-04-28T17:22:58Z</time></trkpt><trkpt lat="43.30578089357842" lon="-0.33670954481531856"><ele>226.0</ele><time>2026-04-28T17:23:00Z</time></trkpt><trkpt lat="43.305738293113414" lon="-0.3368410703155646"><ele>226.00000000000003</ele><time>2026-04-28T17:23:02Z</time></trkpt><trkpt lat="43.30573316703205" lon="-0.33695079682086343"><ele>226.00000000000003</ele><time>2026-04-28T17:23:17Z</time></trkpt><trkpt lat="43.30570784006254" lon="-0.33705720158121827"><ele>226.0</ele><time>2026-04-28T17:23:19Z</time></trkpt><trkpt lat="43.30568211086093" lon="-0.3371988959544457"><ele>226.0</ele><time>2026-04-28T17:23:21Z</time></trkpt><trkpt lat="43.30564007890306" lon="-0.3373375522836873"><ele>225.8</ele><time>2026-04-28T17:23:23Z</time></trkpt><trkpt lat="43.30561020720861" lon="-0.33749209550119624"><ele>225.60000000000002</ele><time>2026-04-28T17:23:25Z</time></trkpt><trkpt lat="43.305577735379465" lon="-0.33766338289318565"><ele>225.4</ele><time>2026-04-28T17:23:27Z</time></trkpt><trkpt lat="43.305558159938954" lon="-0.3377546098025486"><ele>225.2</ele><time>2026-04-28T17:23:28Z</time></trkpt><trkpt lat="43.30554113741852" lon="-0.33784983306906524"><ele>225.0</ele><time>2026-04-28T17:23:29Z</time></trkpt><trkpt lat="43.30552132339801" lon="-0.33795075982343015"><ele>224.83333333333334</ele><time>2026-04-28T17:23:30Z</time></trkpt><trkpt lat="43.305499917126994" lon="-0.338053922548704"><ele>224.66666666666669</ele><time>2026-04-28T17:23:31Z</time></trkpt><trkpt lat="43.305482550246126" lon="-0.33815533719007645"><ele>224.5</ele><time>2026-04-28T17:23:32Z</time></trkpt><trkpt lat="43.30546064554824" lon="-0.33825980024174795"><ele>224.33333333333334</ele><time>2026-04-28T17:23:33Z</time></trkpt><trkpt lat="43.305451884701604" lon="-0.3383769961856894"><ele>224.16666666666669</ele><time>2026-04-28T17:23:34Z</time></trkpt><trkpt lat="43.30541490732797" lon="-0.3384778899032921"><ele>224.0</ele><time>2026-04-28T17:23:35Z</time></trkpt><trkpt lat="43.30539497760446" lon="-0.33858684179638376"><ele>224.0</ele><time>2026-04-28T17:23:36Z</time></trkpt><trkpt lat="43.30537551786869" lon="-0.3387027411786169"><ele>223.99999999999997</ele><time>2026-04-28T17:23:37Z</time></trkpt><trkpt lat="43.30535435623021" lon="-0.3388229587686064"><ele>223.99999999999997</ele><time>2026-04-28T17:23:38Z</time></trkpt><trkpt lat="43.30533627207085" lon="-0.3389514583399629"><ele>224.0</ele><time>2026-04-28T17:23:39Z</time></trkpt><trkpt lat="43.30530946971192" lon="-0.33906485730274355"><ele>224.0</ele><time>2026-04-28T17:23:40Z</time></trkpt><trkpt lat="43.30528704792563" lon="-0.33918785006881297"><ele>224.0</ele><time>2026-04-28T17:23:41Z</time></trkpt><trkpt lat="43.30526345814596" lon="-0.33931088555518946"><ele>223.99999999999997</ele><time>2026-04-28T17:23:42Z</time></trkpt><trkpt lat="43.305237742899955" lon="-0.3394248303721467"><ele>223.99999999999997</ele><time>2026-04-28T17:23:43Z</time></trkpt><trkpt lat="43.30521279656922" lon="-0.33954266913772063"><ele>224.0</ele><time>2026-04-28T17:23:44Z</time></trkpt><trkpt lat="43.305188144420946" lon="-0.33965920126542665"><ele>224.0</ele><time>2026-04-28T17:23:45Z</time></trkpt><trkpt lat="43.30516042796867" lon="-0.33978289387951066"><ele>224.0</ele><time>2026-04-28T17:23:46Z</time></trkpt><trkpt lat="43.30513355182652" lon="-0.33990201662200653"><ele>223.99999999999997</ele><time>2026-04-28T17:23:47Z</time></trkpt><trkpt lat="43.305109414415085" lon="-0.3400242074368519"><ele>223.99999999999997</ele><time>2026-04-28T17:23:48Z</time></trkpt><trkpt lat="43.305086829878014" lon="-0.3401551527539401"><ele>224.0</ele><time>2026-04-28T17:23:49Z</time></trkpt><trkpt lat="43.30506478736542" lon="-0.3402811074420941"><ele>224.0</ele><time>2026-04-28T17:23:50Z</time></trkpt><trkpt lat="43.305039376407436" lon="-0.3404116788937715"><ele>224.0</ele><time>2026-04-28T17:23:51Z</time></trkpt><trkpt lat="43.30501045168005" lon="-0.34054542487748435"><ele>223.99999999999997</ele><time>2026-04-28T17:23:52Z</time></trkpt><trkpt lat="43.3049853255011" lon="-0.3406792952168272"><ele>223.99999999999997</ele><time>2026-04-28T17:23:53Z</time></trkpt><trkpt lat="43.30495372341373" lon="-0.34081445800765103"><ele>224.0</ele><time>2026-04-28T17:23:54Z</time></trkpt><trkpt lat="43.3049228054833" lon="-0.34094592901409293"><ele>224.0</ele><time>2026-04-28T17:23:55Z</time></trkpt><trkpt lat="43.304888752055895" lon="-0.341079360412264"><ele>224.0</ele><time>2026-04-28T17:23:56.001Z</time></trkpt><trkpt lat="43.304857947920524" lon="-0.34121726653446127"><ele>223.99999999999997</ele><time>2026-04-28T17:23:57.001Z</time></trkpt><trkpt lat="43.30483061547036" lon="-0.3413567305068173"><ele>223.99999999999997</ele><time>2026-04-28T17:23:58.001Z</time></trkpt><trkpt lat="43.3048011176757" lon="-0.34149419280373094"><ele>224.0</ele><time>2026-04-28T17:23:59.001Z</time></trkpt><trkpt lat="43.30477246383522" lon="-0.34163137287067374"><ele>224.0</ele><time>2026-04-28T17:24:00.001Z</time></trkpt><trkpt lat="43.30474407611519" lon="-0.34176797310292706"><ele>223.79999999999998</ele><time>2026-04-28T17:24:01.001Z</time></trkpt><trkpt lat="43.304717175007454" lon="-0.34190508676488535"><ele>223.59999999999997</ele><time>2026-04-28T17:24:02.001Z</time></trkpt><trkpt lat="43.30468754780292" lon="-0.3420457845414812"><ele>223.4</ele><time>2026-04-28T17:24:03.001Z</time></trkpt><trkpt lat="43.304656435229916" lon="-0.34218406919088334"><ele>223.2</ele><time>2026-04-28T17:24:04.001Z</time></trkpt><trkpt lat="43.30462954847092" lon="-0.3423242602520423"><ele>223.0</ele><time>2026-04-28T17:24:05.001Z</time></trkpt><trkpt lat="43.30460764691365" lon="-0.3424580122521869"><ele>223.0</ele><time>2026-04-28T17:24:06.001Z</time></trkpt><trkpt lat="43.30458258547568" lon="-0.34258854409370626"><ele>223.0</ele><time>2026-04-28T17:24:07.001Z</time></trkpt><trkpt lat="43.304558352451835" lon="-0.34272096255005774"><ele>223.0</ele><time>2026-04-28T17:24:08.001Z</time></trkpt><trkpt lat="43.30453011893287" lon="-0.3428504401105052"><ele>223.0</ele><time>2026-04-28T17:24:09.001Z</time></trkpt><trkpt lat="43.30450503553118" lon="-0.3429740573465553"><ele>223.0</ele><time>2026-04-28T17:24:10.001Z</time></trkpt><trkpt lat="43.30448058630421" lon="-0.34309686851469334"><ele>223.16666666666666</ele><time>2026-04-28T17:24:11.001Z</time></trkpt><trkpt lat="43.304455310265155" lon="-0.3432109474071498"><ele>223.33333333333331</ele><time>2026-04-28T17:24:12.001Z</time></trkpt><trkpt lat="43.30443435379782" lon="-0.34331830671055535"><ele>223.5</ele><time>2026-04-28T17:24:13.001Z</time></trkpt><trkpt lat="43.30441526919976" lon="-0.3434206234100287"><ele>223.66666666666669</ele><time>2026-04-28T17:24:14.001Z</time></trkpt><trkpt lat="43.30439737494413" lon="-0.3435187768360543"><ele>223.83333333333334</ele><time>2026-04-28T17:24:15.001Z</time></trkpt><trkpt lat="43.30437839781273" lon="-0.3436149824911362"><ele>224.0</ele><time>2026-04-28T17:24:16.001Z</time></trkpt><trkpt lat="43.3043612898444" lon="-0.34370421092228276"><ele>224.0</ele><time>2026-04-28T17:24:17.001Z</time></trkpt><trkpt lat="43.30433094556339" lon="-0.34385718600734594"><ele>223.99999999999997</ele><time>2026-04-28T17:24:19.001Z</time></trkpt><trkpt lat="43.304308764372195" lon="-0.3439848881018884"><ele>223.99999999999997</ele><time>2026-04-28T17:24:21.001Z</time></trkpt><trkpt lat="43.30428124061572" lon="-0.344137734281846"><ele>224.0</ele><time>2026-04-28T17:24:23Z</time></trkpt><trkpt lat="43.30426851013109" lon="-0.34422412067142705"><ele>224.0</ele><time>2026-04-28T17:24:24Z</time></trkpt><trkpt lat="43.304253290451626" lon="-0.3443201362300582"><ele>223.66666666666669</ele><time>2026-04-28T17:24:25Z</time></trkpt><trkpt lat="43.30423484473893" lon="-0.34442528134128514"><ele>223.33333333333334</ele><time>2026-04-28T17:24:26Z</time></trkpt><trkpt lat="43.304209136036235" lon="-0.3445386817926304"><ele>223.0</ele><time>2026-04-28T17:24:27Z</time></trkpt><trkpt lat="43.30418386592086" lon="-0.34465738129920553"><ele>222.66666666666669</ele><time>2026-04-28T17:24:28Z</time></trkpt><trkpt lat="43.30415838922062" lon="-0.34477972428834885"><ele>222.33333333333334</ele><time>2026-04-28T17:24:29Z</time></trkpt><trkpt lat="43.30412860132472" lon="-0.3449066537370468"><ele>222.0</ele><time>2026-04-28T17:24:30Z</time></trkpt><trkpt lat="43.30409585825637" lon="-0.34504166877655745"><ele>222.0</ele><time>2026-04-28T17:24:31Z</time></trkpt><trkpt lat="43.30406315198628" lon="-0.34517880756264296"><ele>222.0</ele><time>2026-04-28T17:24:32Z</time></trkpt><trkpt lat="43.30403136755889" lon="-0.34531286295817987"><ele>222.0</ele><time>2026-04-28T17:24:33Z</time></trkpt><trkpt lat="43.30400035218388" lon="-0.3454568169208781"><ele>222.0</ele><time>2026-04-28T17:24:34Z</time></trkpt><trkpt lat="43.30397354338458" lon="-0.3455956789893429"><ele>222.0</ele><time>2026-04-28T17:24:35Z</time></trkpt><trkpt lat="43.30394665389009" lon="-0.3457376942614236"><ele>222.0</ele><time>2026-04-28T17:24:36Z</time></trkpt><trkpt lat="43.30391695022493" lon="-0.3458863653751103"><ele>222.0</ele><time>2026-04-28T17:24:37Z</time></trkpt><trkpt lat="43.30388883627267" lon="-0.3460323020730331"><ele>222.0</ele><time>2026-04-28T17:24:38Z</time></trkpt><trkpt lat="43.30385787274646" lon="-0.3461813534281669"><ele>222.0</ele><time>2026-04-28T17:24:39Z</time></trkpt><trkpt lat="43.303830828003115" lon="-0.3463249357424359"><ele>222.0</ele><time>2026-04-28T17:24:40Z</time></trkpt><trkpt lat="43.30380181209222" lon="-0.3464774243320074"><ele>221.8</ele><time>2026-04-28T17:24:41Z</time></trkpt><trkpt lat="43.30377327068386" lon="-0.3466207046785075"><ele>221.6</ele><time>2026-04-28T17:24:42Z</time></trkpt><trkpt lat="43.303742736826344" lon="-0.34676938192257145"><ele>221.40000000000003</ele><time>2026-04-28T17:24:43Z</time></trkpt><trkpt lat="43.303711905218336" lon="-0.3469198623574027"><ele>221.20000000000002</ele><time>2026-04-28T17:24:44Z</time></trkpt><trkpt lat="43.303682818750666" lon="-0.34706570184488666"><ele>221.0</ele><time>2026-04-28T17:24:45Z</time></trkpt><trkpt lat="43.30365139188976" lon="-0.34721116432274024"><ele>221.0</ele><time>2026-04-28T17:24:46Z</time></trkpt><trkpt lat="43.3036209052683" lon="-0.34735586271263424"><ele>221.00000000000003</ele><time>2026-04-28T17:24:47Z</time></trkpt><trkpt lat="43.30359163227503" lon="-0.3475063729640966"><ele>221.00000000000003</ele><time>2026-04-28T17:24:48Z</time></trkpt><trkpt lat="43.30356305547932" lon="-0.3476574687202683"><ele>221.0</ele><time>2026-04-28T17:24:49Z</time></trkpt><trkpt lat="43.30353291929328" lon="-0.34780536592898204"><ele>221.0</ele><time>2026-04-28T17:24:50Z</time></trkpt><trkpt lat="43.303500039147416" lon="-0.34795383376078326"><ele>221.0</ele><time>2026-04-28T17:24:51Z</time></trkpt><trkpt lat="43.30346937892558" lon="-0.3480991125644593"><ele>221.00000000000003</ele><time>2026-04-28T17:24:52Z</time></trkpt><trkpt lat="43.30344053566817" lon="-0.34824463036142633"><ele>221.00000000000003</ele><time>2026-04-28T17:24:53Z</time></trkpt><trkpt lat="43.303412210641554" lon="-0.3483921015359297"><ele>221.0</ele><time>2026-04-28T17:24:54Z</time></trkpt><trkpt lat="43.30338348977986" lon="-0.3485392630739168"><ele>221.0</ele><time>2026-04-28T17:24:55Z</time></trkpt><trkpt lat="43.30335367787158" lon="-0.34868602661311865"><ele>221.0</ele><time>2026-04-28T17:24:56Z</time></trkpt><trkpt lat="43.30332354637422" lon="-0.3488368044477451"><ele>221.0</ele><time>2026-04-28T17:24:57Z</time></trkpt><trkpt lat="43.303293946941466" lon="-0.3489865196361545"><ele>221.0</ele><time>2026-04-28T17:24:58Z</time></trkpt><trkpt lat="43.303263595666934" lon="-0.34913653402010186"><ele>221.0</ele><time>2026-04-28T17:24:59Z</time></trkpt><trkpt lat="43.30323326116093" lon="-0.3492827896437129"><ele>221.20000000000002</ele><time>2026-04-28T17:25:00Z</time></trkpt><trkpt lat="43.30320332271145" lon="-0.3494314597152192"><ele>221.40000000000003</ele><time>2026-04-28T17:25:01Z</time></trkpt><trkpt lat="43.303172107215126" lon="-0.3495765888681347"><ele>221.6</ele><time>2026-04-28T17:25:02Z</time></trkpt><trkpt lat="43.3031391544202" lon="-0.3497201463196111"><ele>221.8</ele><time>2026-04-28T17:25:03Z</time></trkpt><trkpt lat="43.30310766262572" lon="-0.3498664108271614"><ele>222.0</ele><time>2026-04-28T17:25:04Z</time></trkpt><trkpt lat="43.30307673929932" lon="-0.3500123324721154"><ele>221.6</ele><time>2026-04-28T17:25:05Z</time></trkpt><trkpt lat="43.30304837669486" lon="-0.3501557424891709"><ele>221.2</ele><time>2026-04-28T17:25:06Z</time></trkpt><trkpt lat="43.30301916251277" lon="-0.3503048120172601"><ele>220.8</ele><time>2026-04-28T17:25:07Z</time></trkpt><trkpt lat="43.30298981251858" lon="-0.35045732025838866"><ele>220.4</ele><time>2026-04-28T17:25:08Z</time></trkpt><trkpt lat="43.302958752503336" lon="-0.3506044179998591"><ele>220.0</ele><time>2026-04-28T17:25:09Z</time></trkpt><trkpt lat="43.30292731349325" lon="-0.3507563398666943"><ele>220.0</ele><time>2026-04-28T17:25:10Z</time></trkpt><trkpt lat="43.30289456916708" lon="-0.35089780608113785"><ele>220.0</ele><time>2026-04-28T17:25:11Z</time></trkpt><trkpt lat="43.30286201992653" lon="-0.3510352713672215"><ele>220.0</ele><time>2026-04-28T17:25:12Z</time></trkpt><trkpt lat="43.30283951948656" lon="-0.35117261719077797"><ele>220.0</ele><time>2026-04-28T17:25:13Z</time></trkpt><trkpt lat="43.30281382578747" lon="-0.3513020883061899"><ele>220.0</ele><time>2026-04-28T17:25:14Z</time></trkpt><trkpt lat="43.30279126484178" lon="-0.3514250236011276"><ele>219.83333333333331</ele><time>2026-04-28T17:25:15Z</time></trkpt><trkpt lat="43.302769857964094" lon="-0.3515516295954965"><ele>219.66666666666666</ele><time>2026-04-28T17:25:16Z</time></trkpt><trkpt lat="43.3027412511383" lon="-0.3516615507595623"><ele>219.5</ele><time>2026-04-28T17:25:17Z</time></trkpt><trkpt lat="43.30272143130939" lon="-0.351768201998311"><ele>219.33333333333331</ele><time>2026-04-28T17:25:18Z</time></trkpt><trkpt lat="43.30269242537128" lon="-0.35186533545167287"><ele>219.16666666666666</ele><time>2026-04-28T17:25:19Z</time></trkpt><trkpt lat="43.30267926759953" lon="-0.35195853708620256"><ele>219.0</ele><time>2026-04-28T17:25:20Z</time></trkpt><trkpt lat="43.302724657782825" lon="-0.35207396243310624"><ele>219.0</ele><time>2026-04-28T17:25:21Z</time></trkpt><trkpt lat="43.302718944084575" lon="-0.35217971806925075"><ele>219.0</ele><time>2026-04-28T17:25:22Z</time></trkpt><trkpt lat="43.30268311838101" lon="-0.35226632045510153"><ele>219.0</ele><time>2026-04-28T17:25:23Z</time></trkpt><trkpt lat="43.30263732338218" lon="-0.35234631983562703"><ele>219.0</ele><time>2026-04-28T17:25:24Z</time></trkpt><trkpt lat="43.30260825825869" lon="-0.3524360317051114"><ele>219.0</ele><time>2026-04-28T17:25:25Z</time></trkpt><trkpt lat="43.30258334132399" lon="-0.3525450278459011"><ele>219.0</ele><time>2026-04-28T17:25:26Z</time></trkpt><trkpt lat="43.30255865208487" lon="-0.3526639762890399"><ele>219.0</ele><time>2026-04-28T17:25:27Z</time></trkpt><trkpt lat="43.30253294960567" lon="-0.352784163658072"><ele>218.99999999999997</ele><time>2026-04-28T17:25:28Z</time></trkpt><trkpt lat="43.302506205776034" lon="-0.3529115314093977"><ele>218.99999999999997</ele><time>2026-04-28T17:25:29Z</time></trkpt><trkpt lat="43.30247823865375" lon="-0.3530411989331656"><ele>219.0</ele><time>2026-04-28T17:25:30Z</time></trkpt><trkpt lat="43.30244820159641" lon="-0.35317278865422747"><ele>219.0</ele><time>2026-04-28T17:25:31Z</time></trkpt><trkpt lat="43.30241713721943" lon="-0.3533061648165769"><ele>219.39999999999998</ele><time>2026-04-28T17:25:32Z</time></trkpt><trkpt lat="43.30238909463155" lon="-0.3534398101445986"><ele>219.79999999999998</ele><time>2026-04-28T17:25:33Z</time></trkpt><trkpt lat="43.30236255859855" lon="-0.3535745612877806"><ele>220.20000000000002</ele><time>2026-04-28T17:25:34Z</time></trkpt><trkpt lat="43.30233209640588" lon="-0.3537088417388797"><ele>220.60000000000002</ele><time>2026-04-28T17:25:35Z</time></trkpt><trkpt lat="43.30230663822076" lon="-0.3538451981245516"><ele>221.0</ele><time>2026-04-28T17:25:36.001Z</time></trkpt><trkpt lat="43.30227897078916" lon="-0.3539853181516614"><ele>221.0</ele><time>2026-04-28T17:25:37.001Z</time></trkpt><trkpt lat="43.30225158299363" lon="-0.35412628127030854"><ele>221.00000000000003</ele><time>2026-04-28T17:25:38.001Z</time></trkpt><trkpt lat="43.30222295243176" lon="-0.3542631171938773"><ele>221.00000000000003</ele><time>2026-04-28T17:25:39.001Z</time></trkpt><trkpt lat="43.30219180730717" lon="-0.35439850009327695"><ele>221.0</ele><time>2026-04-28T17:25:40.001Z</time></trkpt><trkpt lat="43.302161848507076" lon="-0.3545344988101232"><ele>221.0</ele><time>2026-04-28T17:25:41.001Z</time></trkpt><trkpt lat="43.30213231182461" lon="-0.3546648138608774"><ele>221.00000000000003</ele><time>2026-04-28T17:25:42.001Z</time></trkpt><trkpt lat="43.30210409214615" lon="-0.35479024673058174"><ele>221.0</ele><time>2026-04-28T17:25:43.001Z</time></trkpt><trkpt lat="43.30207709751685" lon="-0.3549062389565667"><ele>221.0</ele><time>2026-04-28T17:25:44.001Z</time></trkpt><trkpt lat="43.30204961224101" lon="-0.35502130032956736"><ele>221.0</ele><time>2026-04-28T17:25:45.001Z</time></trkpt><trkpt lat="43.30202606436194" lon="-0.3551379595336405"><ele>221.00000000000003</ele><time>2026-04-28T17:25:46.001Z</time></trkpt><trkpt lat="43.30200362139803" lon="-0.35525593540067735"><ele>221.0</ele><time>2026-04-28T17:25:47.001Z</time></trkpt><trkpt lat="43.30198160973866" lon="-0.3553714513476303"><ele>221.00000000000003</ele><time>2026-04-28T17:25:48.001Z</time></trkpt><trkpt lat="43.301961555379435" lon="-0.35548248674455796"><ele>221.0</ele><time>2026-04-28T17:25:49.001Z</time></trkpt><trkpt lat="43.301940664947715" lon="-0.3555883718816621"><ele>221.0</ele><time>2026-04-28T17:25:50.001Z</time></trkpt><trkpt lat="43.301920056109815" lon="-0.355686821591731"><ele>221.0</ele><time>2026-04-28T17:25:51.001Z</time></trkpt><trkpt lat="43.30190252895071" lon="-0.3557823649412717"><ele>221.0</ele><time>2026-04-28T17:25:52.001Z</time></trkpt><trkpt lat="43.301889808215606" lon="-0.3558742882344371"><ele>221.00000000000003</ele><time>2026-04-28T17:25:53.001Z</time></trkpt><trkpt lat="43.301879310333476" lon="-0.35596084448192844"><ele>221.0</ele><time>2026-04-28T17:25:54.001Z</time></trkpt><trkpt lat="43.301865020060966" lon="-0.35611823561378897"><ele>221.33333333333334</ele><time>2026-04-28T17:25:56.001Z</time></trkpt><trkpt lat="43.301835249269004" lon="-0.35624172382222785"><ele>221.66666666666669</ele><time>2026-04-28T17:25:58.001Z</time></trkpt><trkpt lat="43.30181957497708" lon="-0.35634482005112006"><ele>222.0</ele><time>2026-04-28T17:26:00.001Z</time></trkpt><trkpt lat="43.301784702670055" lon="-0.35642297793326055"><ele>222.33333333333331</ele><time>2026-04-28T17:26:02.001Z</time></trkpt><trkpt lat="43.301747740919446" lon="-0.3565103433909938"><ele>222.66666666666666</ele><time>2026-04-28T17:26:04.001Z</time></trkpt><trkpt lat="43.30171258595513" lon="-0.3565954343717204"><ele>223.0</ele><time>2026-04-28T17:26:06.001Z</time></trkpt><trkpt lat="43.30169560240924" lon="-0.35672686339053916"><ele>222.33333333333331</ele><time>2026-04-28T17:26:08.001Z</time></trkpt><trkpt lat="43.301657090339056" lon="-0.35684706929565335"><ele>221.66666666666666</ele><time>2026-04-28T17:26:10.001Z</time></trkpt><trkpt lat="43.30163586716594" lon="-0.35694701993741845"><ele>221.0</ele><time>2026-04-28T17:26:12.001Z</time></trkpt><trkpt lat="43.30161417153763" lon="-0.3570508238450202"><ele>220.33333333333331</ele><time>2026-04-28T17:26:14.001Z</time></trkpt><trkpt lat="43.30160039208442" lon="-0.3571709318145271"><ele>219.66666666666666</ele><time>2026-04-28T17:26:16.001Z</time></trkpt><trkpt lat="43.30160830867384" lon="-0.35731643527055584"><ele>219.0</ele><time>2026-04-28T17:26:18.001Z</time></trkpt><trkpt lat="43.30160586609565" lon="-0.35740335740478824"><ele>218.79999999999998</ele><time>2026-04-28T17:26:19.001Z</time></trkpt><trkpt lat="43.30163620511354" lon="-0.3575495570245602"><ele>218.59999999999997</ele><time>2026-04-28T17:26:21.001Z</time></trkpt><trkpt lat="43.301664207679096" lon="-0.35766418118922355"><ele>218.4</ele><time>2026-04-28T17:26:23.001Z</time></trkpt><trkpt lat="43.301564273085035" lon="-0.35774755883441134"><ele>218.2</ele><time>2026-04-28T17:26:24.001Z</time></trkpt><trkpt lat="43.301526267342176" lon="-0.357843149022721"><ele>218.0</ele><time>2026-04-28T17:26:26.001Z</time></trkpt><trkpt lat="43.30147336628639" lon="-0.3579766813272583"><ele>217.8</ele><time>2026-04-28T17:26:28.001Z</time></trkpt><trkpt lat="43.30142457637874" lon="-0.358134310887574"><ele>217.60000000000002</ele><time>2026-04-28T17:26:30Z</time></trkpt><trkpt lat="43.301388575387655" lon="-0.3582841906833603"><ele>217.39999999999998</ele><time>2026-04-28T17:26:32Z</time></trkpt><trkpt lat="43.30135889848889" lon="-0.35841613804908645"><ele>217.2</ele><time>2026-04-28T17:26:34Z</time></trkpt><trkpt lat="43.301333959934205" lon="-0.3585462290130378"><ele>217.0</ele><time>2026-04-28T17:26:36Z</time></trkpt><trkpt lat="43.30129897829669" lon="-0.35866829255506083"><ele>216.99999999999997</ele><time>2026-04-28T17:26:38Z</time></trkpt><trkpt lat="43.30126642457782" lon="-0.35881653725800033"><ele>217.0</ele><time>2026-04-28T17:26:40Z</time></trkpt><trkpt lat="43.301246261714766" lon="-0.3589047478336276"><ele>217.0</ele><time>2026-04-28T17:26:41Z</time></trkpt><trkpt lat="43.30122810624981" lon="-0.3589989738769583"><ele>217.0</ele><time>2026-04-28T17:26:42Z</time></trkpt><trkpt lat="43.30121218606183" lon="-0.3590974500112434"><ele>216.99999999999997</ele><time>2026-04-28T17:26:43Z</time></trkpt><trkpt lat="43.30119188565676" lon="-0.3591987963951551"><ele>217.0</ele><time>2026-04-28T17:26:44Z</time></trkpt><trkpt lat="43.30116833837524" lon="-0.3592989871644239"><ele>216.99999999999997</ele><time>2026-04-28T17:26:45Z</time></trkpt><trkpt lat="43.30114024681539" lon="-0.35939894144564544"><ele>217.0</ele><time>2026-04-28T17:26:46Z</time></trkpt><trkpt lat="43.30111636740551" lon="-0.3595026422393874"><ele>217.0</ele><time>2026-04-28T17:26:47Z</time></trkpt><trkpt lat="43.30109116292285" lon="-0.359603540484885"><ele>217.0</ele><time>2026-04-28T17:26:48Z</time></trkpt><trkpt lat="43.30106522132127" lon="-0.35970640118048436"><ele>216.99999999999997</ele><time>2026-04-28T17:26:49Z</time></trkpt><trkpt lat="43.3010378500038" lon="-0.35981166270761705"><ele>217.0</ele><time>2026-04-28T17:26:50Z</time></trkpt><trkpt lat="43.30100982036835" lon="-0.35991356039946937"><ele>216.99999999999997</ele><time>2026-04-28T17:26:51Z</time></trkpt><trkpt lat="43.30098347584082" lon="-0.3600213383758929"><ele>217.0</ele><time>2026-04-28T17:26:52Z</time></trkpt><trkpt lat="43.30097831279765" lon="-0.36013097785841297"><ele>217.0</ele><time>2026-04-28T17:26:53Z</time></trkpt><trkpt lat="43.300959276888825" lon="-0.3602320189178823"><ele>217.0</ele><time>2026-04-28T17:26:54Z</time></trkpt><trkpt lat="43.30094266775282" lon="-0.3603350348436387"><ele>216.99999999999997</ele><time>2026-04-28T17:26:55Z</time></trkpt><trkpt lat="43.30091845727901" lon="-0.3604257434423513"><ele>217.0</ele><time>2026-04-28T17:26:56Z</time></trkpt><trkpt lat="43.30091300550183" lon="-0.36052684133512636"><ele>216.99999999999997</ele><time>2026-04-28T17:26:57Z</time></trkpt><trkpt lat="43.30090271908456" lon="-0.36062556505832644"><ele>217.0</ele><time>2026-04-28T17:26:58Z</time></trkpt><trkpt lat="43.30089235612065" lon="-0.3607270083823359"><ele>217.0</ele><time>2026-04-28T17:26:59Z</time></trkpt><trkpt lat="43.30089238137406" lon="-0.36082971812962894"><ele>217.0</ele><time>2026-04-28T17:27:00Z</time></trkpt><trkpt lat="43.300881739598836" lon="-0.3609192918890837"><ele>216.99999999999997</ele><time>2026-04-28T17:27:01Z</time></trkpt><trkpt lat="43.30086245529294" lon="-0.36107829989348533"><ele>217.0</ele><time>2026-04-28T17:27:03Z</time></trkpt><trkpt lat="43.300847509220645" lon="-0.36124078336605164"><ele>216.99999999999997</ele><time>2026-04-28T17:27:05Z</time></trkpt><trkpt lat="43.300836092430494" lon="-0.36136697627748715"><ele>217.0</ele><time>2026-04-28T17:27:07Z</time></trkpt><trkpt lat="43.30082534720033" lon="-0.3614717972024161"><ele>217.0</ele><time>2026-04-28T17:27:09Z</time></trkpt><trkpt lat="43.300811848996545" lon="-0.3615736089728095"><ele>217.0</ele><time>2026-04-28T17:27:33Z</time></trkpt><trkpt lat="43.30079043259784" lon="-0.36166702859682814"><ele>216.99999999999997</ele><time>2026-04-28T17:27:35Z</time></trkpt><trkpt lat="43.3007738361305" lon="-0.36179556740240437"><ele>217.0</ele><time>2026-04-28T17:27:38Z</time></trkpt><trkpt lat="43.30076259467294" lon="-0.3618827477736943"><ele>217.0</ele><time>2026-04-28T17:27:48.001Z</time></trkpt><trkpt lat="43.300765858197025" lon="-0.36197138085366903"><ele>217.0</ele><time>2026-04-28T17:27:52.001Z</time></trkpt><trkpt lat="43.300559876300284" lon="-0.362026094891731"><ele>217.0</ele><time>2026-04-28T17:28:00.001Z</time></trkpt><trkpt lat="43.30045355985571" lon="-0.36210855611761117"><ele>217.0</ele><time>2026-04-28T17:28:02.001Z</time></trkpt><trkpt lat="43.300395035443316" lon="-0.3621468546940349"><ele>217.0</ele><time>2026-04-28T17:28:03.001Z</time></trkpt><trkpt lat="43.30033668359375" lon="-0.3621804756108103"><ele>217.0</ele><time>2026-04-28T17:28:04.001Z</time></trkpt><trkpt lat="43.300284804889706" lon="-0.36223018614770114"><ele>217.0</ele><time>2026-04-28T17:28:05.001Z</time></trkpt><trkpt lat="43.300226293312875" lon="-0.36226910752951846"><ele>217.0</ele><time>2026-04-28T17:28:06.001Z</time></trkpt><trkpt lat="43.30017017080134" lon="-0.36231485412477155"><ele>217.0</ele><time>2026-04-28T17:28:07.001Z</time></trkpt><trkpt lat="43.30011528052774" lon="-0.36235957682987596"><ele>217.0</ele><time>2026-04-28T17:28:08.001Z</time></trkpt><trkpt lat="43.300057728600116" lon="-0.3624080190795336"><ele>217.0</ele><time>2026-04-28T17:28:09.001Z</time></trkpt><trkpt lat="43.300010580410756" lon="-0.36247538991011546"><ele>216.85714285714286</ele><time>2026-04-28T17:28:10.001Z</time></trkpt><trkpt lat="43.29995537717539" lon="-0.3625248006238012"><ele>216.71428571428572</ele><time>2026-04-28T17:28:11.001Z</time></trkpt><trkpt lat="43.29990042697355" lon="-0.36257642828787684"><ele>216.57142857142856</ele><time>2026-04-28T17:28:12.001Z</time></trkpt><trkpt lat="43.299837017768944" lon="-0.3626182280108493"><ele>216.42857142857144</ele><time>2026-04-28T17:28:13.001Z</time></trkpt><trkpt lat="43.299784571581654" lon="-0.3626801907774228"><ele>216.28571428571428</ele><time>2026-04-28T17:28:14.001Z</time></trkpt><trkpt lat="43.29973548411273" lon="-0.3627435828413149"><ele>216.14285714285714</ele><time>2026-04-28T17:28:15.001Z</time></trkpt><trkpt lat="43.299683375634466" lon="-0.3628017180647856"><ele>216.0</ele><time>2026-04-28T17:28:16.001Z</time></trkpt><trkpt lat="43.29960834516473" lon="-0.36292867321365185"><ele>216.0</ele><time>2026-04-28T17:28:18.001Z</time></trkpt><trkpt lat="43.29953341625135" lon="-0.363029090075055"><ele>216.00000000000003</ele><time>2026-04-28T17:28:20.001Z</time></trkpt><trkpt lat="43.29945723065924" lon="-0.3631311913496969"><ele>216.00000000000003</ele><time>2026-04-28T17:28:22.001Z</time></trkpt><trkpt lat="43.29937781419737" lon="-0.36323249704999455"><ele>216.0</ele><time>2026-04-28T17:28:24.001Z</time></trkpt><trkpt lat="43.299310899897485" lon="-0.3633341132519245"><ele>216.0</ele><time>2026-04-28T17:28:26.001Z</time></trkpt><trkpt lat="43.299246693408186" lon="-0.36338180064567727"><ele>216.0</ele><time>2026-04-28T17:28:28.001Z</time></trkpt><trkpt lat="43.29916474494871" lon="-0.3634709428505794"><ele>216.0</ele><time>2026-04-28T17:28:31.001Z</time></trkpt><trkpt lat="43.2990720328824" lon="-0.36355469219983516"><ele>216.0</ele><time>2026-04-28T17:28:33.001Z</time></trkpt><trkpt lat="43.298979325307656" lon="-0.36366972063588154"><ele>216.0</ele><time>2026-04-28T17:28:35Z</time></trkpt><trkpt lat="43.29888774477057" lon="-0.3637851702213532"><ele>215.5</ele><time>2026-04-28T17:28:37Z</time></trkpt><trkpt lat="43.2988043131654" lon="-0.3639152931139539"><ele>215.0</ele><time>2026-04-28T17:28:39Z</time></trkpt><trkpt lat="43.29872799796922" lon="-0.3640499926714999"><ele>214.5</ele><time>2026-04-28T17:28:41Z</time></trkpt><trkpt lat="43.298646351307504" lon="-0.36416159490358324"><ele>214.0</ele><time>2026-04-28T17:28:43Z</time></trkpt><trkpt lat="43.29857372279513" lon="-0.3642709561301921"><ele>213.99999999999997</ele><time>2026-04-28T17:28:45Z</time></trkpt><trkpt lat="43.298519895555515" lon="-0.36435495909057414"><ele>214.0</ele><time>2026-04-28T17:28:47Z</time></trkpt><trkpt lat="43.298465775412545" lon="-0.36441995337878536"><ele>214.0</ele><time>2026-04-28T17:28:54Z</time></trkpt><trkpt lat="43.29839962541581" lon="-0.3644266986609865"><ele>214.0</ele><time>2026-04-28T17:28:56Z</time></trkpt><trkpt lat="43.29831618175375" lon="-0.36449586127960737"><ele>213.99999999999997</ele><time>2026-04-28T17:28:58Z</time></trkpt><trkpt lat="43.298220991997745" lon="-0.36457331738794846"><ele>214.0</ele><time>2026-04-28T17:29:00Z</time></trkpt><trkpt lat="43.29813980071451" lon="-0.36469986142434446"><ele>214.6</ele><time>2026-04-28T17:29:02Z</time></trkpt><trkpt lat="43.29810191196692" lon="-0.36476949923441504"><ele>215.2</ele><time>2026-04-28T17:29:03Z</time></trkpt><trkpt lat="43.29803163975568" lon="-0.364889166742665"><ele>215.79999999999998</ele><time>2026-04-28T17:29:05Z</time></trkpt><trkpt lat="43.29793324438528" lon="-0.36493571744670233"><ele>216.39999999999998</ele><time>2026-04-28T17:29:07Z</time></trkpt><trkpt lat="43.29785042905696" lon="-0.3648787683229499"><ele>217.0</ele><time>2026-04-28T17:29:09Z</time></trkpt><trkpt lat="43.29777722606783" lon="-0.36479831003622615"><ele>219.0</ele><time>2026-04-28T17:29:11Z</time></trkpt><trkpt lat="43.297707931308935" lon="-0.3647245702992384"><ele>219.0</ele><time>2026-04-28T17:29:13Z</time></trkpt><trkpt lat="43.297657229169936" lon="-0.36467285850900544"><ele>216.0</ele><time>2026-04-28T17:29:18Z</time></trkpt></trkseg></trk></gpx>